[[{"header":{"parameterUnit":"m.s-1","parameterCategory":1,"la1":30.6,"la2":29.2853,"lo1":-89.7004,"lo2":-87.6739,"dy":0.0162,"dx":0.0183,"nx":112,"ny":82,"refTime":"2023-05-02T18:00:00:Z","depth":0,"parameterNumber":2,"parameterNumberName":"U-component_of_WINDS"},"data":[0.0,0.0,0.0,0.0,0.0,0.0,0.0,0.0,0.0,0.0,0.0,0.0,0.0,0.0,0.0,0.0,0.0,0.0,0.0,0.0,0.0,0.0,0.0,0.0,0.0,0.0,0.0,0.0,0.0,0.0,0.0,0.0,0.0,0.0,0.0,0.0,0.0,0.0,0.0,0.0,0.0,0.0,0.0,0.0,0.0,0.0,0.0,0.0,0.0,0.0,0.0,0.0,0.0,0.0,0.0,0.0,0.0,0.0,0.0,0.0,0.0,0.0,0.0,0.0,0.0,0.0,0.0,0.0,0.0,0.0,0.0,0.0,0.0,0.0,0.0,0.0,0.0,0.0,0.0,0.0,0.0,0.0,0.0,0.0,0.0,0.0,0.0,0.0,0.0,0.0,0.722,0.7702,0.9387,1.0529,1.0639,1.1944,1.2096,1.0523,0.0,0.0,0.0,0.0,0.0,0.0,0.0,0.0,0.0,0.0,0.0,0.0,0.0,0.0,0.0,0.0,0.0,0.0,0.0,0.0,0.0,0.0,0.0,0.0,0.0,0.0,0.0,0.0,0.0,0.0,0.0,0.0,0.0,0.0,0.0,0.0,0.0,0.0,0.0,0.0,0.0,0.0,0.0,0.0,0.0,0.0,0.0,0.0,0.0,0.0,0.0,0.0,0.0,0.0,0.0,0.0,0.0,0.0,0.0,0.0,0.0,0.0,0.0,0.0,0.0,0.0,0.0,0.0,0.0,0.0,0.0,0.0,0.0,0.0,0.0,0.0,0.0,0.0,0.0,0.0,0.0,0.0,0.0,0.0,0.0,0.0,0.0,0.0,0.0,0.0,0.0,0.0,0.0,0.0,0.0,0.0,0.0,0.0,0.0,0.0,0.0,0.0,0.0,0.0,0.7541,0.8831,0.9872,1.0438,1.0382,1.0854,1.1268,1.1545,0.0,0.0,0.0,0.0,0.0,0.0,0.0,0.0,0.0,0.0,0.0,0.0,0.0,0.0,0.0,0.0,0.0,0.0,0.0,0.0,0.0,0.0,0.0,0.0,0.0,0.0,0.0,0.0,0.0,0.0,0.0,0.0,0.0,0.0,0.0,0.0,0.0,0.0,0.0,0.0,0.0,0.0,0.0,0.0,0.0,0.0,0.0,0.0,0.0,0.0,0.0,0.0,0.0,0.0,0.0,0.0,0.0,0.0,0.0,0.0,0.0,0.0,0.0,0.0,0.0,0.0,0.0,0.0,0.0,0.0,0.0,0.0,0.0,0.0,0.0,0.0,0.0,0.0,0.0,0.0,0.0,0.0,0.0,0.0,0.0,0.0,0.0,0.0,0.0,0.0,0.0,0.0,0.0,0.0,0.0,0.0,0.0,0.0,0.0,0.0,0.0,0.0,0.0,0.7342,0.7959,0.909,0.9411,0.9592,0.9707,0.9895,1.0216,1.0704,1.1143,0.0,0.0,0.0,0.0,0.0,0.0,0.0,0.0,0.0,0.0,0.0,0.0,0.0,0.0,0.0,0.0,0.0,0.0,0.0,0.0,0.0,0.0,0.0,0.0,0.0,0.0,0.0,0.0,0.0,0.0,0.0,0.0,0.0,0.0,0.0,0.0,0.0,0.0,0.0,0.0,0.0,0.0,0.0,0.0,0.0,0.0,0.0,0.0,0.0,0.0,0.0,0.0,0.0,0.0,0.0,0.0,0.0,0.0,0.0,0.0,0.0,0.0,0.0,0.0,0.0,0.0,0.0,0.0,0.0,0.0,0.0,0.0,0.0,0.0,0.0,0.0,0.0,0.0,0.0,0.0,0.0,0.0,0.0,0.0,0.0,0.0,0.0,0.0,0.0,0.0,0.0,0.0,0.0,0.0,0.0,0.0,0.0,0.0,0.0,0.0,0.0,0.0,0.7614,0.8194,0.8997,0.8938,0.8898,0.9064,0.9147,0.9437,0.999,1.0026,0.0,0.0,0.0,0.0,0.0,0.0,0.0,0.0,0.0,0.0,0.0,0.0,0.0,0.0,0.0,0.0,0.0,0.0,0.0,0.0,0.0,0.0,0.0,0.0,0.0,0.0,0.0,0.0,0.0,0.0,0.0,0.0,0.0,0.0,0.0,0.0,0.0,0.0,0.0,0.0,0.0,0.0,0.0,0.0,0.0,0.0,0.0,0.0,0.0,0.0,0.0,0.0,0.0,0.0,0.0,0.0,0.0,0.0,0.0,0.0,0.0,0.0,0.0,0.0,0.0,0.0,0.0,0.0,0.0,0.0,0.0,0.0,0.0,0.0,0.0,0.0,0.0,0.0,0.0,0.0,0.0,0.0,0.0,0.0,0.0,0.0,0.0,0.0,0.0,0.0,0.0,0.0,0.0,0.0,0.0,0.0,0.0,0.0,0.0,0.0,0.0,0.0,0.7254,0.8114,0.8771,0.8818,0.8818,0.8838,0.8679,0.9189,1.062,1.0208,0.0,0.0,0.0,0.0,0.0,0.0,0.0,0.0,0.0,0.0,0.0,0.0,0.0,0.0,0.0,0.0,0.0,0.0,0.0,0.0,0.0,0.0,0.0,0.0,0.0,0.0,0.0,0.0,0.0,0.0,0.0,0.0,0.0,0.0,0.0,0.0,0.0,0.0,0.0,0.0,0.0,0.0,0.0,0.0,0.0,0.0,0.0,0.0,0.0,0.0,0.0,0.0,0.0,0.0,0.0,0.0,0.0,0.0,0.0,0.0,0.0,0.0,0.0,0.0,0.0,0.0,0.0,0.0,0.0,0.0,0.0,0.0,0.0,0.0,0.0,0.0,0.0,0.0,0.0,0.0,0.0,0.0,0.0,0.0,0.0,0.0,0.0,0.0,0.0,0.0,0.0,0.0,0.0,0.0,0.0,0.0,0.0,0.0,0.0,0.0,0.0,0.0,0.6842,0.7779,0.0,0.8697,0.8738,0.855,0.8126,0.8619,1.0433,0.0,0.0,0.0,0.0,0.0,0.0,0.0,0.0,0.0,0.0,0.0,0.0,0.0,0.0,0.0,0.0,0.0,0.0,0.0,0.0,0.0,0.0,0.0,0.0,0.0,0.0,0.0,0.0,0.0,0.0,0.0,0.0,0.0,0.0,0.0,0.0,0.0,0.0,0.0,0.0,0.0,0.0,0.0,0.0,0.0,0.0,0.0,0.0,0.0,0.0,0.0,0.0,0.0,0.0,0.0,0.0,0.0,0.0,0.0,0.0,0.0,0.0,0.0,0.0,0.0,0.0,0.0,0.0,0.0,0.0,0.0,0.0,0.0,0.0,0.0,0.0,0.0,0.0,0.0,0.0,0.0,0.0,0.0,0.0,0.0,0.0,0.0,0.0,0.0,0.0,0.0,0.0,0.0,0.0,0.0,0.0,0.0,0.0,0.0,0.0,0.0,0.0,0.547,0.6468,0.7385,0.0,0.8448,0.8591,0.839,0.7779,0.8172,0.9987,0.0,0.0,0.0,0.0,0.0,0.0,0.0,0.0,0.0,0.0,0.0,0.0,0.0,0.0,0.0,0.0,0.0,0.0,0.0,0.0,0.0,0.0,0.0,0.0,0.0,0.0,0.0,0.0,0.0,0.0,0.0,0.0,0.0,0.0,0.0,0.0,0.0,0.0,0.0,0.0,0.0,0.0,0.0,0.0,0.0,0.0,0.0,0.0,0.0,0.0,0.0,0.0,0.0,0.0,0.0,0.0,0.0,0.0,0.0,0.0,0.0,0.0,0.0,0.0,0.0,0.0,0.0,0.0,0.0,0.0,0.0,0.0,0.0,0.0,0.0,0.0,0.0,0.0,0.0,0.0,0.0,0.0,0.0,0.0,0.0,0.0,0.0,0.0,0.0,0.0,0.0,0.0,0.0,0.0,0.0,0.0,0.0,0.0,0.0,0.0,0.0,0.0,0.5039,0.6091,0.6975,0.7422,0.7999,0.837,0.837,0.7652,0.7832,0.0,0.0,0.0,0.0,0.0,0.0,0.0,0.0,0.0,0.0,0.0,0.0,0.0,0.0,0.0,0.0,0.0,0.0,0.0,0.0,0.0,0.0,0.0,0.0,0.0,0.0,0.0,0.0,0.0,0.0,0.0,0.0,0.0,0.0,0.0,0.0,0.0,0.0,0.0,0.0,0.0,0.0,0.0,0.0,0.0,0.0,0.0,0.0,0.0,0.0,0.0,0.0,0.0,0.0,0.0,0.0,0.0,0.0,0.0,0.0,0.0,0.0,0.0,0.0,0.0,0.0,0.0,0.0,0.0,0.0,0.0,0.0,0.0,0.0,0.0,0.0,0.0,0.0,0.0,0.0,0.0,0.0,0.0,0.0,0.0,0.0,0.0,0.0,0.0,0.0,0.0,0.0,0.0,0.0,0.0,0.0,0.0,0.0,0.0,0.0,0.0,0.0,0.0,0.4705,0.5007,0.5443,0.6352,0.6662,0.6956,0.7249,0.6576,0.6987,0.8909,0.0,0.0,0.0,0.0,0.0,0.0,0.0,0.0,0.0,0.0,0.0,0.0,0.0,0.0,0.0,0.0,0.0,0.0,0.0,0.0,0.0,0.0,0.0,0.0,0.0,0.0,0.0,0.0,0.0,0.0,0.0,0.0,0.0,0.0,0.0,0.0,0.0,0.0,0.0,0.0,0.0,0.0,0.0,0.0,0.0,0.0,0.0,0.0,0.0,0.0,0.0,0.0,0.0,0.0,0.0,0.0,0.0,0.0,0.0,0.0,0.0,0.0,0.0,0.0,0.0,0.0,0.0,0.0,0.0,0.0,0.0,0.0,0.0,0.0,0.0,0.0,0.0,0.0,0.0,0.0,0.0,0.0,0.0,0.0,0.0,0.0,0.0,0.0,0.0,0.0,0.0,0.0,0.0,0.0,0.0,0.0,0.0,0.0,0.0,0.0,0.0,0.0,0.4325,0.4521,0.4848,0.5581,0.5997,0.6258,0.6455,0.6062,0.6435,0.7905,0.0,0.0,0.0,0.0,0.0,0.0,0.0,0.0,0.0,0.0,0.0,0.0,0.0,0.0,0.0,0.0,0.0,0.0,0.0,0.0,0.0,0.0,0.0,0.0,0.0,0.0,0.0,0.0,0.0,0.0,0.0,0.0,0.0,0.0,0.0,0.0,0.0,0.0,0.0,0.0,0.0,0.0,0.0,0.0,0.0,0.0,0.0,0.0,0.0,0.0,0.0,0.0,0.0,0.0,0.0,0.0,0.0,0.0,0.0,0.0,0.0,0.0,0.0,0.0,0.0,0.0,0.0,0.0,0.0,0.0,0.0,0.0,0.0,0.0,0.0,0.0,0.0,0.0,0.0,0.0,0.0,0.0,0.0,0.0,0.0,0.0,0.0,0.0,0.0,0.0,0.0,0.0,0.0,0.0,0.0,0.0,0.0,0.0,0.0,0.0,0.0,0.0,0.4019,0.4447,0.482,0.4997,0.5604,0.5991,0.5922,0.5848,0.6028,0.6532,0.0,0.0,0.0,0.0,0.0,0.0,0.0,0.0,0.0,0.0,0.0,0.0,0.0,0.0,0.0,0.0,0.0,0.0,0.0,0.0,0.0,0.0,0.0,0.0,0.0,0.0,0.0,0.0,0.0,0.0,0.0,0.0,0.0,0.0,0.0,0.0,0.0,0.0,0.0,0.0,0.0,0.0,0.0,0.0,0.0,0.0,0.0,0.0,0.0,0.0,0.0,0.0,0.0,0.0,0.0,0.0,0.0,0.0,0.0,0.0,0.5203,0.0,0.0,0.0,0.0,0.0,0.0,0.0,0.0,0.0,0.0,0.0,0.0,0.0,0.0,0.0,0.0,0.0,0.0,0.0,0.0,0.0,0.0,0.0,0.0,0.0,0.0,0.0,0.0,0.0,0.0,0.0,0.0,0.0,0.0,0.0,0.0,0.0,0.0,0.0,0.0,0.0,0.4113,0.4003,0.4001,0.436,0.4419,0.4696,0.5251,0.4879,0.5032,0.607,0.6532,0.0,0.0,0.0,0.0,0.0,0.0,0.0,0.0,0.0,0.0,0.0,0.0,0.0,0.0,0.0,0.0,0.0,0.0,0.0,0.0,0.0,0.0,0.0,0.0,0.0,0.0,0.0,0.0,0.0,0.0,0.0,0.0,0.0,0.0,0.0,0.0,0.0,0.0,0.0,0.0,0.0,0.0,0.0,0.0,0.0,0.0,0.0,0.0,0.0,0.0,0.0,0.0,0.0,0.0,0.0,0.0,0.0,0.0,0.0,0.0,0.4928,0.0,0.0,0.0,0.0,0.0,0.0,0.0,0.0,0.0,0.0,0.0,0.0,0.0,0.0,0.0,0.0,0.0,0.0,0.0,0.0,0.0,0.0,0.0,0.0,0.0,0.0,0.0,0.0,0.0,0.0,0.0,0.0,0.0,0.0,0.0,0.0,0.0,0.0,0.0,0.0,0.4219,0.3982,0.391,0.4164,0.4239,0.4337,0.4655,0.4664,0.4845,0.5339,0.5861,0.0,0.0,0.0,0.0,0.0,0.0,0.0,0.0,0.0,0.0,0.0,0.0,0.0,0.0,0.0,0.0,0.0,0.0,0.0,0.0,0.0,0.0,0.0,0.0,0.0,0.0,0.0,0.0,0.0,0.0,0.0,0.0,0.0,0.0,0.0,0.0,0.0,0.0,0.0,0.0,0.0,0.0,0.0,0.0,0.0,0.0,0.0,0.0,0.0,0.0,0.0,0.0,0.0,0.4253,0.3703,0.1942,0.214,0.2212,0.2266,0.377,0.4096,0.3562,0.3819,0.0,0.0,0.0,0.0,0.0,0.0,0.0,0.0,0.0,0.0,0.0,0.0,0.0,0.0,0.0,0.0,0.0,0.0,0.0,0.0,0.0,0.0,0.0,0.0,0.5886,0.5844,0.0,0.0,0.0,0.0,0.0,0.0,0.0,0.0,0.0,0.0,0.0,0.0,0.4435,0.4185,0.4066,0.4217,0.4392,0.4412,0.4244,0.467,0.484,0.465,0.5273,0.5668,0.0,0.0,0.0,0.0,0.0,0.0,0.0,0.0,0.0,0.0,0.0,0.0,0.0,0.0,0.0,0.0,0.0,0.0,0.0,0.0,0.0,0.0,0.0,0.0,0.0,0.0,0.0,0.0,0.0,0.0,0.0,0.0,1.0756,0.9625,0.0,0.0,0.0,0.0,0.0,0.0,0.0,0.0,0.0,0.0,0.0,0.0,0.0,0.5759,0.5092,0.4386,0.3346,0.2047,0.3216,0.3334,0.258,0.2332,0.2221,0.2201,0.2443,0.0,0.1661,0.1688,0.0,0.0,0.0,0.0,0.0,0.0,0.0,0.0,0.0,0.0,0.0,0.0,0.0,0.0,0.0,0.0,0.0,0.0,0.0,0.0,0.0,0.0,0.4417,0.4329,0.4293,0.4329,0.0,0.565,0.6701,0.655,0.6586,0.0,0.0,0.0,0.0,0.0,0.0,0.0,0.5008,0.4536,0.4273,0.4419,0.4508,0.4512,0.4491,0.4371,0.4282,0.4292,0.4282,0.4615,0.5298,0.5276,0.0,0.0,0.0,0.0,0.0,0.0,0.0,0.0,0.0,0.0,0.0,0.0,0.0,0.0,0.0,0.0,0.0,0.0,0.0,0.0,0.0,0.0,0.0,0.0,0.0,0.0,0.0,0.0,0.0,1.2418,1.0875,0.894,1.0009,1.0416,0.0,0.0,0.0,0.0,0.0,0.0,0.0,0.0,0.0,0.6105,0.5427,0.4402,0.2916,0.3357,0.3355,0.2805,0.1973,0.1422,0.1188,0.1025,0.0978,0.096,0.0975,0.0807,0.0578,0.0566,0.0725,0.1008,0.0,0.0,0.0,0.0,0.3767,0.4385,0.3705,0.2374,0.0,0.0953,0.0,0.0,0.0,0.0,0.0,0.0,0.0,0.0,0.0,0.0,0.4371,0.4275,0.4473,0.4611,0.4613,0.5132,0.5697,0.0,0.6294,0.6637,0.6516,0.0,0.0,0.0,0.0,0.5157,0.4831,0.4453,0.4304,0.4501,0.4519,0.4519,0.4519,0.4406,0.4334,0.42,0.4133,0.424,0.4571,0.4662,0.5056,0.0,0.0,0.0,0.0,0.0,0.0,0.0,0.0,0.0,0.0,0.0,0.0,0.0,0.0,0.0,0.0,0.0,0.0,0.0,0.0,0.0,0.0,0.0,0.0,0.0,0.0,0.0,0.0,1.1841,1.0146,0.8108,0.867,0.874,0.0,0.0,0.0,0.0,0.0,0.0,0.8043,0.635,0.4867,0.3826,0.4125,0.3198,0.0928,0.1151,0.1505,0.1969,0.0175,-0.0667,-0.0667,-0.0666,-0.067,-0.0677,-0.0666,-0.0712,-0.0634,-0.0165,-0.0,-0.0,-0.0,0.067,0.1619,0.1619,0.235,0.336,0.333,0.1856,-0.0,-0.0,0.0,-0.0,-0.0,0.0,0.0,0.0,0.0,0.3605,0.3778,0.3848,0.3933,0.3925,0.4515,0.5074,0.5037,0.4979,0.4973,0.0,0.5806,0.6332,0.6346,0.0,0.0,0.0,0.0,0.5165,0.4718,0.4452,0.4345,0.4508,0.4519,0.4519,0.4519,0.4519,0.4416,0.4307,0.4304,0.4253,0.4138,0.4243,0.4513,0.5088,0.0,0.0,0.0,0.0,0.0,0.0,0.0,0.0,0.0,0.0,0.0,0.0,0.0,0.0,0.0,0.0,0.0,0.0,0.0,0.0,0.0,0.0,0.0,0.0,0.0,0.0,0.0,0.0,0.0,0.6809,0.652,0.0,0.0,0.0,0.0,0.8285,0.7275,0.6129,0.4803,0.3268,0.1567,-0.0231,0.2262,0.2409,-0.0181,-0.3351,-0.4091,-0.2375,-0.2499,-0.2594,-0.2594,-0.2582,-0.2567,-0.2588,-0.2579,-0.2537,-0.243,-0.0693,-0.0,-0.0,-0.0,0.0056,0.0112,0.0112,0.0168,0.0224,0.0224,0.011,-0.0,-0.0,-0.0,-0.0,-0.0,0.0059,0.0,0.0,0.1197,0.225,0.2003,0.2098,0.229,0.2289,0.3648,0.4989,0.5304,0.5202,0.5043,0.0,0.4796,0.498,0.5466,0.0,0.5694,0.6081,0.5788,0.5412,0.5096,0.4739,0.4512,0.4519,0.4519,0.4519,0.4519,0.4519,0.4515,0.4508,0.4508,0.4501,0.4494,0.4501,0.4505,0.456,0.4567,0.0,0.0,0.0,0.0,0.0,0.0,0.0,0.0,0.0,0.0,0.0,0.0,0.0,0.0,0.0,0.0,0.0,0.0,0.0,0.0,0.0,0.0,0.0,0.0,0.0,0.0,0.0,0.0,0.7708,0.7298,0.0,0.5391,0.5705,0.5514,0.4446,0.38,0.2897,0.1448,0.0845,-0.0241,-0.1869,-0.2092,-0.266,-0.3564,-0.4807,-0.5064,-0.442,-0.4466,-0.4421,-0.4421,-0.4415,-0.4443,-0.4434,-0.4412,-0.4452,-0.4364,-0.3717,-0.279,-0.1726,-0.1726,-0.1726,-0.1721,-0.1511,-0.0818,-0.0,-0.0,-0.0,-0.0,-0.0,-0.0,-0.0,-0.0,-0.0,-0.0,-0.0,0.0372,0.0759,0.0688,0.0702,0.0784,0.079,0.1244,0.2086,0.3357,0.4498,0.527,0.5155,0.5047,0.4985,0.507,0.51,0.5195,0.5312,0.5144,0.4962,0.4952,0.4717,0.4556,0.4599,0.4577,0.4519,0.4519,0.4519,0.4519,0.4519,0.4519,0.4519,0.4519,0.4519,0.4519,0.4519,0.4519,0.4675,0.0,0.0,0.0,0.0,0.0,0.0,0.0,0.0,0.0,0.0,0.0,0.0,0.0,0.0,0.0,0.0,0.0,0.0,0.0,0.0,0.0,0.0,0.0,0.0,0.0,0.0,0.6514,0.7949,0.6643,0.4924,0.304,0.2783,0.2094,0.0504,0.0253,-0.0254,-0.1154,-0.174,-0.2759,-0.4116,-0.6107,-0.6854,-0.6252,-0.6591,-0.6633,-0.6427,-0.6503,-0.6543,-0.6543,-0.6543,-0.6543,-0.6539,-0.6479,-0.6428,-0.6407,-0.6008,-0.5152,-0.4034,-0.3722,-0.3638,-0.3569,-0.3348,-0.2577,-0.1493,-0.0366,-0.0,-0.0,-0.0,-0.0,-0.0,-0.0,-0.0,-0.0,-0.0,-0.0,-0.0,-0.0,-0.0,-0.0,-0.0,-0.0,0.0344,0.1514,0.3659,0.5186,0.4639,0.4854,0.5165,0.5016,0.4989,0.4989,0.4989,0.4863,0.4823,0.4972,0.4724,0.4579,0.468,0.4555,0.4519,0.4519,0.4567,0.4573,0.4522,0.4567,0.4573,0.4519,0.4567,0.4538,0.4538,0.4538,0.4565,0.4613,0.0,0.0,0.0,0.0,0.0,0.0,0.0,0.0,0.0,0.0,0.0,0.0,0.0,0.0,0.0,0.0,0.0,0.0,0.0,0.0,0.0,0.0,0.0,0.6471,0.6974,0.7141,0.7048,0.4139,0.1414,-0.0307,-0.0554,-0.1326,-0.3072,-0.3224,-0.3127,-0.286,-0.4523,-0.5949,-0.707,-0.9325,-0.9699,-0.7972,-0.893,-0.9045,-0.8425,-0.8651,-0.8824,-0.8824,-0.8824,-0.8824,-0.8814,-0.8528,-0.843,-0.8337,-0.7206,-0.6732,-0.6633,-0.5767,-0.5413,-0.5428,-0.5378,-0.5165,-0.4446,-0.1286,-0.0129,-0.0064,-0.0062,-0.0062,-0.0,-0.0,-0.0,-0.0,-0.0,-0.0,-0.0,-0.0,-0.0,-0.0,-0.0,-0.0,-0.0,-0.0,0.2766,0.4715,0.3022,0.4178,0.5338,0.5169,0.5138,0.5138,0.5138,0.5016,0.0,0.5121,0.488,0.4701,0.4711,0.4575,0.4536,0.4532,0.4613,0.4629,0.4529,0.4602,0.4616,0.4522,0.4606,0.4684,0.4684,0.4697,0.4687,0.4532,0.0,0.0,0.0,0.0,0.0,0.0,0.0,0.0,0.0,0.0,0.0,0.0,0.0,0.0,0.0,0.0,0.0,0.0,0.0,0.0,0.0,0.0,0.5207,0.6876,0.5824,0.4079,0.1968,0.0868,-0.0317,-0.1898,-0.3429,-0.453,-0.4999,-0.5296,-0.5731,-0.6522,-0.7018,-0.7247,-0.7277,-0.8174,-0.8209,-0.7194,-0.8213,-0.8581,-0.8425,-0.8651,-0.8824,-0.8824,-0.8824,-0.8824,-0.8824,-0.8692,-0.8574,-0.8363,-0.8255,-0.766,-0.6768,-0.5778,-0.5383,-0.5373,-0.5233,-0.5145,-0.4957,-0.4188,-0.3085,-0.1986,-0.1971,-0.1079,-0.0,-0.0,-0.0,-0.0,-0.0,-0.0,-0.0,-0.0,-0.0,-0.0,-0.0,-0.0,-0.0,-0.0,0.0791,0.1744,0.2522,0.4161,0.5358,0.5359,0.5311,0.5308,0.5298,0.5169,0.0,0.5277,0.504,0.4938,0.5155,0.504,0.4904,0.4802,0.483,0.4745,0.4532,0.4556,0.4563,0.4519,0.456,0.458,0.458,0.4843,0.5236,0.0,0.0,0.0,0.0,0.0,0.0,0.0,0.0,0.0,0.0,0.0,0.0,0.0,0.0,0.0,0.0,0.0,0.0,0.0,0.0,0.0,0.0,0.6333,0.5057,0.5981,0.3823,0.1526,-0.0186,-0.1669,-0.2877,-0.3726,-0.4937,-0.5644,-0.5686,-0.6246,-0.6869,-0.7482,-0.8299,-0.8513,-0.8142,-0.8756,-0.8918,-0.8622,-0.9333,-0.9713,-0.9892,-1.0254,-1.037,-1.0271,-1.0376,-1.037,-1.0259,-1.0154,-1.0026,-0.9823,-0.9516,-0.889,0.0,0.0,0.0,0.0,0.0,-0.5416,-0.5423,-0.5504,-0.4818,-0.3994,-0.4001,-0.3258,-0.2314,-0.1518,-0.1334,-0.1281,-0.1281,-0.0648,-0.0,-0.0,-0.0,-0.0,-0.0,-0.0,-0.0,-0.0,-0.0,0.03,0.1334,0.2445,0.0,0.4132,0.4897,0.543,0.5415,0.5309,0.5291,0.5511,0.5196,0.5074,0.5247,0.5131,0.4982,0.4836,0.488,0.0,0.0,0.0,0.4558,0.4558,0.4619,0.0,0.0,0.0,0.5307,0.5631,0.0,0.0,0.0,0.549,0.5559,0.0,0.0,0.0,0.0,0.0,0.0,0.0,0.0,0.0,0.0,0.0,0.0,0.0,0.0,0.0,0.0,0.629,0.4578,0.4038,0.1414,-0.0578,-0.0902,-0.357,-0.5456,-0.5509,-0.5459,-0.5521,-0.5851,-0.6539,-0.7031,-0.7271,0.0,0.0,0.0,0.0,-1.0795,-1.0949,-1.1275,-1.161,-1.1877,-1.2506,-1.2559,-1.2311,-1.2579,-1.2552,-1.2285,-1.2031,-1.1897,-1.185,-1.0802,-1.0395,-1.0125,-0.8236,-0.6873,-0.5967,-0.595,-0.5882,-0.5827,-0.5745,0.0,0.0,-0.5768,-0.5775,-0.5551,-0.3928,-0.3423,-0.3433,-0.3433,-0.2119,-0.0659,-0.0439,-0.0373,-0.0304,-0.0076,-0.0,-0.0,-0.0,-0.0,-0.0,-0.0,-0.0,0.0528,0.2138,0.373,0.483,0.509,0.5111,0.5264,0.5593,0.5362,0.5122,0.5122,0.0,0.0,0.4782,0.4877,0.4816,0.4507,0.4616,0.4697,0.4714,0.4863,0.4935,0.4918,0.5077,0.5087,0.4945,0.5087,0.5155,0.5159,0.6132,0.6148,0.0,0.0,0.0,0.0,0.0,0.0,0.0,0.0,0.0,0.0,0.0,0.0,0.0,0.0,0.0,0.7111,0.5794,0.3951,0.1255,-0.0464,-0.2187,-0.4199,-0.5027,-0.5704,-0.64,-0.594,-0.6169,-0.7623,-0.7464,-0.8022,-0.9663,-1.0429,-1.0761,-1.055,-1.1006,-1.0979,-1.0544,-1.1391,-1.1817,-1.187,0.0,0.0,-1.2305,-1.2365,-1.2358,-1.2298,-1.2245,-1.2084,-1.1904,-1.217,-1.1936,-1.1194,-0.9259,-0.7946,-0.7131,-0.7056,-0.6596,-0.5969,-0.5847,-0.5803,-0.5803,-0.581,-0.5892,-0.5899,-0.5528,-0.5549,0.0,-0.5657,-0.5421,-0.4717,-0.2929,-0.2473,-0.2086,-0.0379,-0.0,-0.0,-0.0,-0.0,-0.0,-0.0,-0.0,0.0078,0.0465,0.0819,0.1516,0.2976,0.3241,0.3772,0.5275,0.5356,0.5316,0.5375,0.529,0.5286,0.5257,0.5159,0.4914,0.45,0.4619,0.4748,0.487,0.5013,0.5036,0.4921,0.5182,0.5243,0.5091,0.5243,0.5318,0.5318,0.5543,0.5624,0.0,0.0,0.0,0.0,0.0,0.0,0.0,0.0,0.0,0.0,0.0,0.7483,0.0,0.0,0.4913,0.336,0.2596,0.1118,-0.2193,-0.3645,-0.4833,-0.6097,-0.6485,-0.6862,-0.7335,-0.7003,-0.7189,-0.8062,-0.84,-0.8974,-1.0014,-1.0778,-1.1175,-1.1119,-1.1435,-1.1571,-1.1338,-1.2004,-1.2378,-1.2392,-1.2759,-1.2739,-1.2318,-1.2772,-1.2806,-1.2532,-1.2685,-1.2672,-1.2559,-1.2859,-1.2746,-1.2343,-1.1392,-1.0116,-0.874,-0.8005,-0.7524,-0.711,-0.6416,-0.6186,-0.6251,-0.6251,-0.6331,-0.6338,-0.6338,-0.6404,-0.6476,-0.6476,-0.6451,-0.6176,-0.5103,-0.4864,-0.4615,-0.3599,-0.2468,-0.1586,-0.1569,-0.1565,-0.1565,-0.1565,-0.0705,-0.0,-0.0,-0.0,0.0301,0.1188,0.1318,0.1661,0.257,0.3495,0.4046,0.4057,0.4836,0.504,0.4159,0.4486,0.4732,0.4531,0.4703,0.4857,0.487,0.4948,0.4988,0.4974,0.5254,0.5328,0.5247,0.5325,0.5466,0.5477,0.5477,0.5477,0.0,0.0,0.0,0.0,0.0,0.0,0.0,0.0,0.7996,0.6177,0.6061,0.584,0.4131,0.2123,0.0251,-0.1152,-0.1643,-0.2804,-0.5602,-0.7029,-0.7721,-0.7432,-0.7768,-0.8083,-0.8208,-0.8076,-0.812,-0.8479,-0.9239,-0.9807,-0.9995,-1.0992,-1.1623,-1.1677,-1.1971,-1.2245,-1.2478,-1.2719,-1.2916,-1.2839,-1.3327,-1.318,-1.2505,-1.3233,-1.3293,-1.2929,-1.3106,-1.324,-1.3293,-1.3293,-1.3333,-1.338,-1.338,-1.2388,-1.0795,-0.9388,-0.8864,-0.8673,-0.7608,-0.716,-0.7026,-0.7026,-0.6864,-0.6702,-0.6702,-0.6702,-0.6702,-0.6702,-0.6622,-0.6629,-0.6629,-0.6642,-0.6742,-0.6746,-0.5218,-0.383,-0.3832,-0.3776,-0.3805,-0.3805,-0.237,-0.1103,-0.0709,-0.0629,-0.0468,-0.0076,-0.0,-0.0,-0.0,0.1243,0.2173,0.2186,0.4094,0.4499,0.2348,0.3097,0.3735,0.4047,0.4238,0.4374,0.4463,0.4504,0.4552,0.4601,0.5114,0.5376,0.5369,0.5369,0.5447,0.5596,0.5627,0.5586,1.371,0.9746,0.6618,0.7813,0.6599,0.4836,0.0,0.0,0.7093,0.5042,0.5114,0.4406,0.0862,-0.2392,-0.4604,-0.4716,-0.609,-0.7414,-0.8285,-0.9419,-0.9841,-0.8734,-0.8221,-0.8273,-0.9087,-0.8452,-0.8634,-1.0168,-0.9903,-1.0159,-1.1158,-1.1832,-1.2325,-1.2661,-1.2899,-1.308,-1.3106,-1.314,-1.316,-1.316,-1.3227,-1.3206,-1.3113,-1.3213,-1.322,-1.316,-1.32,-1.336,-1.3594,-1.3594,-1.3754,-1.3988,-1.3988,-1.3904,-1.349,-1.1885,-1.0795,-1.0123,-0.9912,-0.9122,-0.8237,-0.8237,-0.751,-0.6702,-0.6702,-0.6702,-0.6702,-0.6702,-0.6702,-0.6702,-0.6702,-0.6705,-0.6709,-0.6805,-0.6622,-0.636,-0.6296,-0.6287,-0.6277,-0.6277,-0.5924,-0.5017,-0.3065,-0.2773,-0.2109,-0.0313,-0.0,-0.0,-0.0,0.0151,0.0298,0.029,0.3344,0.3994,0.0605,0.0456,0.1088,0.2367,0.2495,0.2652,0.2917,0.2928,0.2933,0.2998,0.4564,0.5393,0.5393,0.5393,0.5403,0.5411,0.5688,0.5798,0.8156,0.4207,0.0,0.0,0.3308,0.2981,0.1503,0.2136,0.3599,0.5164,0.2126,-0.1028,-0.1569,-0.4537,-0.7012,0.0,-0.8149,-0.893,-0.9296,-0.9784,-1.0027,-0.9875,-0.9662,-0.9581,-0.9742,-0.974,-1.0046,-1.075,-1.0898,-1.1274,-1.1917,-1.2331,-1.2699,-1.3006,-1.3307,-1.346,-1.346,-1.3634,-1.3634,-1.3467,-1.3634,-1.354,-1.322,-1.3567,-1.3721,-1.3721,-1.3721,-1.3788,-1.3901,-1.3901,-1.3975,-1.4088,-1.4088,-1.4088,-1.3944,-1.2441,-1.1792,-1.1365,-1.0632,-1.0055,-0.9653,-0.9653,-0.8904,-0.7979,-0.7979,-0.7468,-0.6956,-0.6956,-0.6956,-0.6956,-0.6956,-0.6956,-0.6956,-0.6963,-0.6902,-0.6844,-0.6854,-0.6783,-0.6722,-0.6722,-0.6675,-0.6299,-0.529,-0.5173,-0.4902,-0.4005,-0.1675,-0.0,-0.0,-0.0,-0.0,-0.0,0.1323,0.1654,0.0138,-0.0,0.0274,0.0861,0.0939,0.1013,0.1142,0.1141,0.1141,0.1138,0.1876,0.2748,0.3825,0.382,0.3834,0.3797,0.3971,0.4143,0.3197,0.0,0.0,-0.0986,0.0325,0.1095,0.0206,-0.0424,-0.0072,0.2508,-0.0854,-0.4187,-0.3892,-0.6237,-0.8429,-0.898,-0.9325,-0.9659,-1.0092,-1.0117,-1.018,-1.0531,-1.0588,-1.0458,-1.0103,-1.0679,-1.1022,-1.1002,-1.1536,-1.1997,-1.2285,-1.2665,-1.3162,-1.3784,-1.377,-1.3843,-1.4159,-1.4142,-1.3981,-1.3768,-1.3981,-1.3861,-1.3467,-1.3895,-1.4128,-1.4208,-1.4208,-1.4208,-1.4208,-1.4208,-1.4162,-1.4088,-1.4088,-1.4088,-1.3971,-1.2989,-1.2692,-1.265,-1.178,-1.124,-1.1037,-1.1037,-1.0265,-0.9405,-0.9405,-0.8568,-0.7638,-0.7638,-0.741,-0.7268,-0.7268,-0.7234,-0.7204,-0.7204,-0.7092,-0.6987,-0.6987,-0.6932,-0.6875,-0.6831,-0.6831,-0.6824,-0.6696,-0.6669,-0.6739,-0.6739,-0.3914,-0.1675,-0.1037,-0.0397,-0.0,-0.0,-0.0,-0.0,-0.0,-0.0,-0.0,-0.0,-0.0,-0.0,-0.0,-0.0,-0.0,-0.0,-0.0,0.0678,0.1966,0.1951,0.1932,0.1983,0.2471,0.2832,0.0,0.0,-0.4546,-0.2776,-0.2169,-0.1664,-0.029,-0.158,-0.3407,-0.4795,-0.3144,-0.2631,-0.6325,-0.7942,-0.8956,-0.9583,-0.965,-1.008,-1.1165,-1.1108,-1.0844,-1.0608,-1.0611,-1.0471,0.0,-1.0679,-1.1022,-1.1002,-1.1536,-1.1997,-1.2285,-1.2866,-1.3791,-1.5195,-1.4483,-1.4559,-1.5606,-1.465,-1.4082,-1.4075,-1.4082,-1.4075,-1.4062,-1.4082,-1.4242,-1.4502,-1.4502,-1.4502,-1.4502,-1.4502,-1.4342,-1.4088,-1.4088,-1.4088,-1.4088,-1.4075,-1.4075,-1.3997,-1.399,-1.3203,-1.2242,-1.2242,-1.1466,-1.0524,-1.0524,-0.9879,-0.9058,-0.9058,-0.8375,-0.7587,-0.7587,-0.7475,-0.7363,-0.7363,-0.7248,-0.7132,-0.7132,-0.7248,-0.7305,-0.7156,-0.7129,-0.7085,-0.6946,-0.68,-0.6702,-0.6702,-0.6619,-0.5862,-0.3764,-0.1475,-0.0,-0.0,-0.0,-0.0,-0.0,-0.0,-0.0,-0.0,-0.0,-0.0,-0.0,-0.0,-0.0,-0.0,-0.0,-0.0,0.007,0.0072,0.0074,0.0151,0.1893,0.2844,0.0,0.0,-0.7193,-0.6156,-0.6014,-0.5692,-0.4428,-0.3593,-0.3834,-0.6288,-0.5847,-0.5738,-0.8177,-0.8594,-0.8941,-1.0123,-1.0625,-1.1035,-1.1677,-1.1997,-1.1864,-1.0955,-1.1015,0.0,0.0,0.0,0.0,-1.1283,-1.2004,-1.2585,-1.2886,-1.3973,-1.4674,-1.4789,-1.5227,-1.5383,-1.5262,-1.4636,-1.4888,-1.5929,-1.5711,-1.5752,-1.6214,-1.576,-1.5582,-1.5612,-1.5908,-1.5458,-1.4536,-1.4736,-1.4529,-1.4128,-1.4516,-1.4549,-1.4396,-1.4596,-1.4543,-1.4349,-1.4155,-1.3822,-1.3502,-1.3687,-1.3033,-1.2091,-1.2265,-1.1557,-1.0702,-1.0702,-0.9841,-0.8881,-0.8881,-0.8199,-0.7522,-0.7522,-0.7482,-0.7444,-0.7444,-0.7485,-0.7509,-0.7455,-0.7363,-0.7278,-0.7231,-0.7095,-0.6959,-0.6865,-0.6776,-0.6433,-0.577,-0.3581,-0.2085,-0.2038,-0.0855,-0.0,-0.0,-0.0,-0.0,-0.0,-0.0,-0.0,-0.0,-0.0,-0.0,-0.0,-0.0,-0.0,-0.0,-0.0,-0.0,-0.0,0.0616,0.0936,-0.8981,-0.9186,-0.9315,-0.957,-0.9559,-0.9104,-0.7729,-0.6675,-0.6271,-0.7367,-0.7511,-0.7752,-0.8679,-0.8853,-0.9282,-1.0554,-1.0989,-1.1357,-1.215,-1.2244,-1.2058,-1.1683,-1.1537,-1.1438,0.0,0.0,0.0,-1.1597,-1.2412,-1.3226,-1.3724,-1.4728,-1.5598,-1.6345,-1.6607,-1.6768,-1.6858,-1.622,-1.6481,-1.7454,-1.7227,-1.7347,-1.773,-1.7278,-1.7103,-1.7148,-1.7461,-1.7087,-1.614,-1.5906,-1.5518,-1.5105,-1.4987,-1.4843,-1.4703,-1.4897,-1.4843,-1.4636,-1.4342,-1.4175,-1.4135,-1.4429,-1.398,-1.3485,-1.377,-1.3088,-1.2221,-1.2221,-1.1258,-1.0288,-0.9819,-0.9025,-0.8237,-0.777,-0.7638,-0.76,-0.76,-0.7641,-0.7658,-0.7611,-0.756,-0.7512,-0.7461,-0.7326,-0.7173,-0.7027,-0.684,-0.6783,-0.6634,-0.5278,-0.4336,-0.4235,-0.3052,-0.1943,-0.1147,-0.1086,-0.1078,-0.1109,-0.1106,-0.1094,-0.1138,-0.0426,-0.0,-0.0,-0.0,-0.0,-0.0,-0.0,-0.0,-0.0,-0.0,-0.0,-0.9424,-1.0192,-1.1086,-1.2942,-1.2942,-1.1938,-1.0257,-1.0492,-1.0381,-0.8334,-0.8298,-0.8543,0.0,0.0,-1.0103,-1.1011,-1.0953,-1.1314,-1.2837,-1.2104,-1.1734,0.0,0.0,0.0,0.0,0.0,0.0,-1.2213,0.0,-1.3773,-1.4769,-1.5227,-1.675,-1.9488,-1.8588,-1.8759,-2.0174,-1.9239,-1.8707,-1.8673,-1.869,-1.8776,-1.8759,-1.869,-1.8891,-1.9137,-1.9154,-1.9154,-1.896,-1.7717,-1.7071,-1.6683,-1.5514,-1.4997,-1.499,-1.5003,-1.4997,-1.4943,-1.4663,-1.4362,-1.4155,-1.4449,-1.4543,-1.4603,-1.4917,-1.4349,-1.3508,-1.3508,-1.283,-1.175,-1.0485,-1.0056,-0.9636,-0.8301,-0.791,-0.7715,-0.7715,-0.7822,-0.788,-0.7743,-0.7818,-0.7859,-0.7614,-0.7468,-0.7319,-0.7163,-0.7132,-0.6983,-0.6664,-0.661,-0.6555,-0.6332,-0.6308,-0.5503,-0.3443,-0.3281,-0.3251,-0.3257,-0.3247,-0.3285,-0.3279,-0.1382,-0.0291,-0.0146,-0.015,-0.0152,-0.0152,-0.0078,-0.0,-0.0,-0.0,-0.0,-1.2788,-1.404,-1.5111,-1.6406,-1.5797,-1.4506,-1.3112,-1.1926,-1.0933,-1.0358,-0.9722,-0.935,0.0,0.0,0.0,-1.2362,-1.3172,0.0,-1.4944,-1.4972,0.0,-1.5157,0.0,-1.5064,-1.5064,-1.4623,0.0,0.0,-1.5184,-1.5042,-1.5597,-1.7136,-1.8396,-1.9177,-1.9358,-1.9531,-1.9656,-2.0279,-2.035,-1.9782,-2.0161,-2.0598,-2.1024,-2.0522,-2.027,-2.0289,-2.0572,-2.0093,-1.8985,-1.7995,-1.7296,-1.6727,-1.5879,-1.5478,-1.5311,-1.5531,-1.5471,-1.5277,-1.5197,-1.4836,-1.4462,-1.4756,-1.485,-1.4943,-1.5451,-1.537,-1.5227,-1.5227,-1.4309,-1.3295,-1.3006,-1.2093,-1.1279,-1.0891,-1.0082,-0.9377,-0.9377,-0.9409,-0.9429,-0.9385,-0.93,-0.8863,-0.7656,-0.7397,-0.7319,-0.7163,-0.7051,-0.6943,-0.6837,-0.6824,-0.6763,-0.6614,-0.6428,-0.6042,-0.5551,-0.5466,-0.5482,-0.5452,-0.5515,-0.5451,-0.5489,-0.4955,-0.397,-0.2316,-0.2295,-0.2324,-0.2324,-0.0781,-0.0,-0.0,-0.0,-0.0,-1.5069,-1.6716,-1.7853,-1.8692,-1.8111,-1.6797,-1.4554,-1.2956,-1.167,-1.0597,-1.0089,0.0,0.0,0.0,0.0,0.0,0.0,0.0,-1.5564,-1.6472,-1.6971,0.0,-1.7505,0.0,-1.6924,-1.6661,-1.6734,0.0,-1.6374,-1.6288,-1.7549,-1.8792,-1.985,-2.0533,-2.0946,-2.113,-2.1033,-2.1765,-2.1886,-2.1437,-2.1767,-2.2026,-2.2441,-2.2045,-2.1783,-2.1792,0.0,-2.1636,-2.074,-1.9141,-1.8268,-1.7858,-1.6334,-1.5732,-1.5605,-1.5765,-1.5725,-1.5571,-1.5438,-1.5184,-1.493,-1.5097,-1.5157,-1.5237,-1.5691,-1.5832,-1.5832,-1.5832,-1.5248,-1.4657,-1.407,-1.3295,-1.2619,-1.2042,-1.1361,-1.0877,-1.0877,-1.0877,-1.0877,-1.0877,-1.0299,-0.9556,-0.8625,-0.7934,-0.7492,-0.7275,-0.7173,-0.7099,-0.7031,-0.6909,-0.6797,-0.6709,-0.6552,-0.6505,-0.6505,-0.6458,-0.6373,-0.6373,-0.6318,-0.6318,-0.6318,-0.6322,-0.5698,-0.4528,-0.4511,-0.454,-0.4462,-0.3366,-0.2268,-0.1329,-0.0396,-0.0,-1.7027,-1.9029,-2.0042,-2.0308,-1.9927,-1.8574,-1.5078,-1.3615,-1.2391,-1.0199,0.0,-1.0317,-1.0094,0.0,-1.1541,-1.2641,0.0,-1.3787,-1.5775,-1.7469,-1.8416,-1.8365,-1.9463,-1.9773,-1.8513,-1.8625,-1.8727,-1.8641,-1.7588,-1.7834,-1.9852,-2.0227,-2.109,-2.25,-2.2568,-2.2773,-2.3135,-2.3135,-2.3135,-2.3135,-2.3135,-2.3135,-2.3135,-2.3135,-2.3135,-2.3135,-2.3135,0.0,-2.296,-2.0674,-1.967,-1.9314,-1.6936,-1.592,-1.5832,-1.5832,-1.5832,-1.5792,-1.5538,-1.5451,-1.5444,-1.5404,-1.5398,-1.5451,-1.5745,-1.5832,-1.5832,-1.5832,-1.5832,-1.554,-1.4459,-1.4166,-1.3878,-1.2721,-1.2334,-1.2139,-1.2139,-1.2139,-1.2139,-1.2139,-1.1165,-1.0134,-0.9844,-0.8668,-0.7719,-0.7444,-0.7383,-0.7322,-0.7187,-0.6929,-0.6759,-0.6759,-0.6742,-0.6729,-0.6729,-0.659,-0.6495,-0.6474,-0.6359,-0.6281,-0.6338,-0.6271,-0.6278,-0.6278,-0.6285,-0.6291,-0.6291,-0.6312,-0.5361,-0.3534,-0.1691,-0.0734,-2.034,-2.2336,-2.319,-2.2104,-2.0635,-1.8647,-1.5414,-1.3465,0.0,0.0,0.0,-1.1436,-1.1731,-1.2463,0.0,-1.426,0.0,0.0,0.0,0.0,-2.0163,0.0,0.0,0.0,0.0,0.0,0.0,0.0,0.0,-2.0241,-2.068,-2.124,-2.1894,-2.25,-2.2852,-2.3066,-2.3135,-2.3135,-2.3135,-2.3135,-2.3135,-2.3135,-2.3135,-2.3135,-2.3135,-2.3135,-2.3135,0.0,-2.296,-2.1569,-2.0395,-1.9405,-1.7956,-1.6763,-1.5832,-1.5832,-1.5832,-1.5818,-1.5772,-1.5752,-1.5712,-1.5478,-1.5398,-1.5451,-1.5745,-1.5832,-1.5832,-1.5832,-1.5832,-1.573,-1.5534,-1.5439,-1.5439,-1.5146,-1.4364,-1.3584,-1.3584,-1.3584,-1.3584,-1.3584,-1.2522,-1.1196,-1.0031,-0.8668,-0.7753,-0.7587,-0.7451,-0.7363,-0.7333,-0.7173,-0.7065,-0.7065,-0.6959,-0.6888,-0.6888,-0.6749,-0.6607,-0.6481,-0.6451,-0.6383,-0.6345,-0.6264,-0.6264,-0.6264,-0.6268,-0.6268,-0.6268,-0.6482,-0.6388,-0.5978,-0.5715,-0.4594,-2.3241,-2.4943,-2.5111,-2.3641,-2.2521,-2.0736,-1.6817,0.0,0.0,0.0,0.0,-1.2436,-1.266,0.0,0.0,0.0,0.0,0.0,0.0,0.0,0.0,0.0,0.0,0.0,0.0,0.0,0.0,0.0,0.0,-2.2013,-2.2013,-2.237,-2.2627,-2.2832,-2.3037,-2.3135,-2.3135,-2.3135,-2.3135,-2.3135,-2.3135,-2.3135,-2.3135,-2.3135,-2.3135,-2.3135,-2.3135,0.0,-2.3047,-2.1756,-2.0935,-2.0305,-1.9139,-1.8218,-1.7755,-1.7755,-1.7304,-1.6756,-1.6756,-1.6386,-1.5805,-1.5665,-1.5618,-1.5651,-1.5785,-1.5832,-1.5832,-1.5832,-1.5832,-1.5832,-1.5832,-1.5832,-1.5832,-1.5832,-1.5337,-1.4854,-1.4854,-1.4854,-1.4854,-1.4854,-1.3782,-1.2485,-1.1129,-0.9765,-0.865,-0.7825,-0.7648,-0.7546,-0.739,-0.7309,-0.7227,-0.7149,-0.7078,-0.7037,-0.7037,-0.6905,-0.6753,-0.66,-0.6515,-0.641,-0.6345,-0.6338,-0.6338,-0.6338,-0.6338,-0.6298,-0.6373,-0.6531,-0.6613,-0.6614,-0.6692,-0.6241,-2.5436,-2.6769,-2.6431,-2.4976,-2.3704,-2.1801,-1.7863,-1.48,0.0,0.0,0.0,-1.2972,0.0,0.0,0.0,0.0,0.0,0.0,0.0,0.0,0.0,0.0,0.0,0.0,0.0,0.0,0.0,0.0,0.0,0.0,-2.3135,-2.3135,-2.3135,-2.3135,-2.3135,-2.3135,-2.3135,-2.3135,-2.3135,-2.3135,-2.3135,-2.3135,-2.3135,-2.3135,-2.3135,-2.3135,-2.3135,0.0,0.0,-2.212,-2.1569,-2.1203,-2.0305,-1.9761,-1.9497,-1.9497,-1.8864,-1.8056,-1.7785,-1.7037,-1.6204,-1.592,-1.5832,-1.5832,-1.5832,-1.5832,-1.5832,-1.5832,-1.5832,-1.5832,-1.5832,-1.5832,-1.5832,-1.5832,-1.5832,-1.5832,-1.5832,-1.5832,-1.5832,-1.5832,-1.4752,-1.3488,-1.2139,-1.0877,-0.9461,-0.807,-0.7831,-0.7726,-0.7495,-0.7441,-0.736,-0.7207,-0.716,-0.7139,-0.7139,-0.7037,-0.6909,-0.6759,-0.6607,-0.6458,-0.6312,-0.6278,-0.6338,-0.6338,-0.6338,-0.6332,-0.6471,-0.6505,-0.66,-0.6753,-0.6826,-0.69,-2.6317,-2.724,-2.7026,-2.6083,-2.2503,-1.8826,-1.7258,0.0,0.0,0.0,-1.2168,-1.2434,-1.3538,0.0,0.0,0.0,0.0,0.0,0.0,0.0,0.0,0.0,0.0,0.0,0.0,0.0,0.0,0.0,0.0,0.0,-2.3135,-2.3135,-2.3135,-2.3135,-2.3135,-2.3135,-2.3135,-2.3135,-2.3135,-2.3135,-2.3135,-2.3135,-2.3135,-2.3135,-2.3135,-2.3135,-2.3135,0.0,0.0,-2.296,-2.2306,-2.1293,-2.1203,-2.0486,-1.9497,-1.9497,-1.9405,-1.9222,-1.8048,-1.7591,-1.7318,-1.6204,-1.5832,-1.5832,-1.5832,-1.5832,-1.5832,-1.5832,-1.5832,-1.5832,-1.5832,-1.5832,-1.5832,-1.5832,-1.5832,-1.5832,-1.5832,-1.5832,-1.5832,-1.5832,-1.4752,-1.3488,-1.2139,-1.0877,-0.9505,-0.8216,-0.7899,-0.7801,-0.7773,-0.7658,-0.7519,-0.7366,-0.7224,-0.7139,-0.7139,-0.7129,-0.7058,-0.6915,-0.6763,-0.661,-0.6461,-0.6329,-0.6338,-0.6338,-0.6338,-0.6332,-0.6471,-0.661,-0.6759,-0.6912,-0.7054,-0.7034,-2.5946,-2.6842,-2.6401,-2.4872,-2.2891,-2.0597,-1.7954,0.0,0.0,-1.3258,-1.3325,-1.3414,-1.3884,0.0,0.0,0.0,0.0,0.0,0.0,0.0,0.0,0.0,0.0,0.0,0.0,0.0,0.0,0.0,0.0,0.0,-2.3135,-2.3135,-2.3135,-2.3135,-2.3135,-2.3135,-2.3135,-2.3135,-2.3135,-2.3135,-2.3135,-2.3135,-2.3135,-2.3135,-2.3135,-2.3135,-2.3135,0.0,0.0,-2.3135,-2.2862,-2.2403,-2.2403,-2.2129,-2.1676,-2.1676,-2.1221,-2.0477,-2.0034,-1.9405,-1.868,-1.8218,-1.8033,-1.7755,-1.6285,-1.5832,-1.5832,-1.5832,-1.5832,-1.5832,-1.5832,-1.5832,-1.5832,-1.5832,-1.5832,-1.5832,-1.5832,-1.5832,-1.5832,-1.5832,-1.5439,-1.4657,-1.3301,-1.2716,-1.1843,-1.0578,-0.9641,-0.9073,-0.8968,-0.8236,-0.7672,-0.7526,-0.737,-0.7241,-0.7146,-0.7139,-0.7082,-0.6939,-0.6871,-0.6729,-0.6481,-0.6417,-0.6346,-0.6342,-0.6346,-0.6461,-0.661,-0.6763,-0.6912,-0.7058,-0.7112,-0.7139,-2.4774,-2.5739,-2.5686,-2.4449,-2.2831,-2.0919,0.0,0.0,0.0,-1.3631,-1.3757,-1.3794,-1.3984,-1.4771,-1.5095,0.0,0.0,0.0,0.0,0.0,0.0,0.0,0.0,0.0,0.0,0.0,0.0,0.0,0.0,0.0,-2.3135,-2.3135,-2.3135,-2.3135,-2.3135,-2.3135,-2.3135,-2.3135,-2.3135,-2.3135,-2.3135,-2.3135,-2.3135,-2.3135,-2.3135,-2.3135,-2.3135,0.0,0.0,-2.3135,-2.3135,-2.3135,-2.3135,-2.3135,-2.3135,-2.3135,-2.258,-2.1756,-2.1382,-2.0755,-1.9943,-1.9579,-1.9497,-1.9123,-1.739,-1.6662,-1.6386,-1.6386,-1.6109,-1.5832,-1.5832,-1.5832,-1.5832,-1.5832,-1.5832,-1.5832,-1.5832,-1.5832,-1.5832,-1.5832,-1.5832,-1.5439,-1.4166,-1.3878,-1.3392,-1.2139,-1.117,-1.0533,-1.039,-0.9606,-0.8775,-0.8332,-0.812,-0.7876,-0.7224,-0.7166,-0.7099,-0.6997,-0.6953,-0.6831,-0.6617,-0.6519,-0.6424,-0.6325,-0.642,-0.6549,-0.6702,-0.6854,-0.7,-0.7139,-0.7139,-0.7139,-2.2645,-2.3974,-2.4911,-2.546,-2.1763,-1.8213,0.0,0.0,0.0,-1.2929,-1.2929,-1.3104,-1.3684,-1.3314,-1.3111,-1.37,0.0,0.0,0.0,0.0,0.0,0.0,0.0,0.0,0.0,0.0,0.0,0.0,0.0,0.0,-2.3135,-2.3135,-2.3135,-2.3135,-2.3135,-2.3135,-2.3135,-2.3135,-2.3135,-2.3135,-2.3135,-2.3135,-2.3135,-2.3135,-2.3135,0.0,0.0,0.0,0.0,-2.3135,-2.3135,-2.3135,-2.3135,-2.3135,-2.3135,-2.3135,-2.3047,-2.295,-2.1756,-2.1293,-2.1114,-1.9852,-1.9497,-1.9497,-1.9488,-1.8588,-1.7692,-1.7692,-1.6756,-1.5832,-1.5832,-1.5832,-1.5832,-1.5832,-1.5832,-1.5832,-1.5832,-1.5832,-1.5832,-1.5832,-1.5832,-1.5439,-1.4166,-1.3878,-1.3392,-1.2139,-1.1848,-1.1848,-1.1848,-1.1848,-1.1279,-0.9923,-0.9806,-0.9095,-0.7576,-0.7227,-0.7139,-0.7139,-0.7007,-0.6926,-0.6922,-0.6634,-0.6471,-0.6471,-0.6471,-0.6549,-0.6702,-0.6854,-0.7,-0.7139,-0.7139,-0.7139,-1.9401,-1.9978,-2.025,-2.0193,-1.8235,-1.6298,-1.6243,0.0,0.0,0.0,0.0,-1.2968,-1.3152,-1.304,-1.2979,-1.317,0.0,0.0,0.0,0.0,0.0,0.0,0.0,0.0,0.0,0.0,0.0,0.0,0.0,0.0,-2.3135,-2.3135,-2.3135,-2.3135,-2.3135,-2.3135,-2.3135,-2.3135,-2.3135,-2.3135,-2.3135,-2.3135,-2.3135,-2.3135,-2.3135,0.0,0.0,0.0,0.0,-2.3135,-2.3135,-2.3135,-2.3135,-2.3135,-2.3135,-2.3135,-2.3135,-2.3047,-2.2677,-2.2492,-2.2492,-2.2041,-2.1952,-2.1952,-2.1952,-2.0503,-1.8772,-1.7956,-1.6763,-1.5832,-1.5832,-1.5832,-1.5832,-1.5832,-1.5832,-1.5832,-1.5832,-1.5832,-1.5832,-1.5832,-1.5832,-1.5635,-1.5242,-1.5242,-1.5045,-1.4663,-1.3782,-1.3295,-1.3295,-1.2431,-1.1726,-1.1269,-1.1,-0.989,-0.757,-0.7421,-0.7363,-0.7153,-0.7197,-0.7139,-0.6939,-0.6834,-0.6736,-0.663,-0.6729,-0.6807,-0.6858,-0.7004,-0.7095,-0.7139,-0.7139,-0.7139,0.0,-1.7724,-1.8166,-1.7929,-1.6696,0.0,0.0,0.0,0.0,0.0,0.0,0.0,-1.2881,-1.2918,-1.2878,-1.291,0.0,0.0,0.0,0.0,0.0,0.0,0.0,0.0,0.0,0.0,0.0,0.0,0.0,0.0,-2.3135,-2.3135,-2.3135,-2.3135,-2.3135,-2.3135,-2.3135,-2.3135,-2.3135,-2.3135,-2.3135,-2.3135,-2.3135,-2.3135,-2.3135,0.0,0.0,0.0,0.0,-2.3135,-2.3135,-2.3135,-2.3135,-2.3135,-2.3135,-2.3135,-2.3135,-2.3135,-2.3135,-2.3135,-2.3135,-2.3135,-2.3135,-2.3135,-2.3135,-2.1765,-1.9943,-1.868,-1.749,-1.648,-1.648,-1.6204,-1.5832,-1.5832,-1.5832,-1.5832,-1.5832,-1.5832,-1.5832,-1.5832,-1.5832,-1.5832,-1.5832,-1.5832,-1.5832,-1.5832,-1.5146,-1.4657,-1.4657,-1.3884,-1.3204,-1.2721,-1.2452,-1.1404,-0.9109,-0.8402,-0.7883,-0.7238,-0.7319,-0.7288,-0.7105,-0.699,-0.6881,-0.679,-0.6878,-0.6929,-0.6929,-0.7071,-0.7139,-0.7139,-0.7139,-0.7139,0.0,0.0,0.0,0.0,0.0,0.0,0.0,0.0,0.0,0.0,0.0,0.0,0.0,0.0,0.0,-1.2969,0.0,0.0,0.0,0.0,0.0,0.0,0.0,0.0,0.0,0.0,0.0,0.0,0.0,0.0,-2.3135,-2.3135,-2.3135,-2.3135,-2.3135,-2.3135,-2.3135,-2.3135,-2.3135,-2.3135,-2.3135,-2.3135,-2.3135,-2.3135,-2.3135,0.0,0.0,0.0,0.0,-2.3135,-2.3135,-2.3135,-2.3135,-2.3135,-2.3135,-2.3135,-2.3135,-2.3135,-2.3135,-2.3135,-2.3135,-2.3135,-2.3135,-2.3135,-2.3135,-2.2217,-2.1025,-1.9943,-1.8772,-1.7777,-1.7692,-1.685,-1.592,-1.5825,-1.5832,-1.5832,-1.5832,-1.5832,-1.5832,-1.5832,-1.5832,-1.5832,-1.5832,-1.5832,-1.5832,-1.5832,-1.5832,-1.5832,-1.5832,-1.5832,-1.5343,-1.4166,-1.4052,-1.3277,-1.162,-1.0113,-0.8729,-0.7538,-0.7545,-0.7458,-0.7356,-0.7088,-0.6946,-0.6946,-0.6946,-0.6946,-0.6946,-0.7078,-0.7139,-0.7139,-0.7139,-0.7146,-1.4498,0.0,-1.4496,-1.4954,0.0,0.0,0.0,0.0,0.0,0.0,0.0,0.0,0.0,0.0,0.0,0.0,0.0,0.0,0.0,0.0,0.0,0.0,0.0,0.0,0.0,0.0,0.0,0.0,0.0,-2.3135,-2.3135,-2.3135,-2.3135,-2.3135,-2.3135,-2.3135,-2.3135,-2.3135,-2.3135,-2.3135,-2.3135,-2.3135,-2.3135,-2.3135,-2.3135,0.0,0.0,0.0,-2.3135,-2.3135,-2.3135,-2.3135,-2.3135,-2.3135,-2.3135,-2.3135,-2.3135,-2.3135,-2.3135,-2.3135,-2.3135,-2.3135,-2.3135,-2.3135,-2.3135,-2.2217,-2.1203,-2.0935,-2.0034,-1.8864,-1.7963,-1.7505,-1.7037,-1.6015,-1.5832,-1.5832,-1.5832,-1.5832,-1.5832,-1.5832,-1.5832,-1.5832,-1.5832,-1.5832,-1.5832,-1.5832,-1.5832,-1.5832,-1.5832,-1.5832,-1.573,-1.5439,-1.5149,-1.449,-1.324,-1.176,-1.0219,-0.8629,-0.8637,-0.8204,-0.7197,-0.7129,-0.7092,-0.7092,-0.7092,-0.7092,-0.7092,-0.7126,-0.7139,-0.7139,-0.7139,-0.7204,-1.4237,-1.4037,-1.4061,-1.4387,-1.4447,-1.4489,0.0,0.0,0.0,0.0,0.0,0.0,0.0,0.0,0.0,0.0,0.0,0.0,0.0,0.0,0.0,0.0,0.0,0.0,0.0,0.0,0.0,0.0,0.0,-2.3135,-2.3135,-2.3135,-2.3135,-2.3135,-2.3135,-2.3135,-2.3135,-2.3135,-2.3135,-2.3135,-2.3135,-2.3135,-2.3135,-2.3135,-2.3135,0.0,0.0,0.0,-2.3135,-2.3135,-2.3135,-2.3135,-2.3135,-2.3135,-2.3135,-2.3135,-2.3135,-2.3135,-2.3135,-2.3135,-2.3135,-2.3135,-2.3135,-2.3135,-2.3135,-2.2677,-2.212,-2.212,-2.1212,-2.0034,-1.8864,-1.8141,-1.7412,-1.6109,-1.5832,-1.5832,-1.5832,-1.5832,-1.5832,-1.5832,-1.5832,-1.5832,-1.5832,-1.5832,-1.5832,-1.5832,-1.5832,-1.5832,-1.5832,-1.5832,-1.5832,-1.5832,-1.5691,-1.5252,-1.4558,-1.3782,-1.2385,-1.0281,-1.0185,-0.9509,-0.8238,-0.8004,-0.7665,-0.7139,-0.7139,-0.7139,-0.7139,-0.7139,-0.7139,-0.7139,-0.7139,-0.7224,-1.45,-1.4802,-1.523,-1.4979,-1.4979,-1.4997,0.0,0.0,0.0,0.0,0.0,0.0,0.0,0.0,0.0,0.0,0.0,0.0,0.0,0.0,0.0,0.0,0.0,0.0,0.0,0.0,0.0,0.0,0.0,-2.3135,-2.3135,-2.3135,-2.3135,-2.3135,-2.3135,-2.3135,-2.3135,-2.3135,-2.3135,-2.3135,-2.3135,-2.3135,-2.3135,-2.3135,-2.3135,-2.3135,0.0,0.0,-2.3135,-2.3135,-2.3135,-2.3135,-2.3135,-2.3135,-2.3135,-2.3135,-2.3135,-2.3135,-2.3135,-2.3135,-2.3135,-2.3135,-2.3135,-2.3135,-2.3135,-2.3135,-2.3135,-2.3135,-2.2403,-2.1293,-2.0124,-1.8864,-1.7684,-1.6386,-1.592,-1.5832,-1.5832,-1.5832,-1.5832,-1.5832,-1.5832,-1.5832,-1.5832,-1.5832,-1.5832,-1.5832,-1.5832,-1.5832,-1.5832,-1.5832,-1.5832,-1.5832,-1.5832,-1.5732,-1.5484,-1.5464,-1.4602,-1.2414,-1.1889,-1.0987,-0.9574,-0.9068,-0.8364,-0.7139,-0.7139,-0.7139,-0.7139,-0.7139,-0.7139,-0.7139,-0.7166,-0.7258,-1.5605,-1.6208,-1.6703,-1.5268,-1.5229,-1.5567,0.0,0.0,0.0,0.0,0.0,0.0,0.0,0.0,0.0,0.0,0.0,0.0,0.0,0.0,0.0,0.0,0.0,0.0,0.0,0.0,0.0,0.0,0.0,-2.3135,-2.3135,-2.3135,-2.3135,-2.3135,-2.3135,-2.3135,-2.3135,-2.3135,-2.3135,-2.3135,-2.3135,-2.3135,-2.3135,-2.3135,-2.3135,-2.3135,0.0,-2.3135,-2.3135,-2.3135,-2.3135,-2.3135,-2.3135,-2.3135,-2.3135,-2.3135,-2.3135,-2.3135,-2.3135,-2.3135,-2.3135,-2.3135,-2.3135,-2.3135,-2.3135,-2.3135,-2.3135,-2.3135,-2.296,-2.2589,-2.1302,-2.0124,-1.8956,-1.7684,-1.6574,-1.5832,-1.5832,-1.5832,-1.5832,-1.5832,-1.5832,-1.5832,-1.5832,-1.5832,-1.5832,-1.5832,-1.5832,-1.5832,-1.5832,-1.5832,-1.5832,-1.5832,-1.5832,-1.5812,-1.5765,-1.5765,-1.5569,-1.5177,-1.3755,-1.1834,-0.9388,-0.9089,-0.8364,-0.7139,-0.7139,-0.7139,-0.7139,-0.7139,-0.7139,-0.7143,-0.7275,-0.7417,-1.5844,-1.6283,-1.6735,-1.5957,-1.6409,0.0,0.0,0.0,0.0,0.0,0.0,0.0,0.0,0.0,0.0,0.0,0.0,0.0,0.0,0.0,0.0,0.0,0.0,0.0,0.0,0.0,0.0,0.0,0.0,0.0,-2.3135,-2.3135,-2.3135,-2.3135,-2.3135,-2.3135,-2.3135,-2.3135,-2.3135,-2.3135,-2.3135,-2.3135,-2.3135,-2.3135,-2.3135,-2.3135,0.0,-2.3135,-2.3135,-2.3135,-2.3135,-2.3135,-2.3135,-2.3135,-2.3135,-2.3135,-2.3135,-2.3135,-2.3135,-2.3135,-2.3135,-2.3135,-2.3135,-2.3135,-2.3135,-2.3135,-2.3135,-2.3135,-2.3135,-2.2862,-2.1569,-2.0845,-2.0124,-1.8956,-1.777,-1.6857,-1.6857,-1.6298,-1.5832,-1.5832,-1.5832,-1.5832,-1.5832,-1.5832,-1.5832,-1.5832,-1.5832,-1.5832,-1.5832,-1.5832,-1.5832,-1.5832,-1.5832,-1.5832,-1.5832,-1.5832,-1.5758,-1.5605,-1.3548,-1.1763,-1.0333,-0.8906,-0.776,-0.7143,-0.7139,-0.7139,-0.7139,-0.7139,-0.7139,-0.7143,-0.7299,-0.7455,-1.6007,-1.6195,-1.6522,-1.6522,0.0,0.0,0.0,0.0,0.0,0.0,0.0,0.0,0.0,0.0,0.0,0.0,0.0,0.0,0.0,0.0,0.0,0.0,0.0,0.0,0.0,0.0,0.0,0.0,0.0,0.0,-2.3551,-2.3464,-2.3387,-2.3135,-2.3135,-2.3135,-2.3135,-2.3135,-2.3135,-2.3135,-2.3135,-2.3135,-2.3135,-2.3135,-2.3135,-2.3135,-2.3135,-2.3135,-2.3135,-2.3135,-2.3135,-2.3135,-2.3135,-2.3135,-2.3135,-2.3135,-2.3135,-2.3135,-2.3135,-2.3135,-2.3135,-2.3135,-2.3135,-2.3135,-2.3135,-2.3135,-2.3135,-2.3135,-2.3135,-2.2862,-2.1943,-2.148,-2.1025,-2.0124,-1.9047,-1.8141,-1.8141,-1.7124,-1.6197,-1.6197,-1.6015,-1.5832,-1.5832,-1.5832,-1.5832,-1.5832,-1.5832,-1.5832,-1.5832,-1.5832,-1.5832,-1.5832,-1.5832,-1.5832,-1.5832,-1.5832,-1.5732,-1.5511,-1.3339,-1.1827,-1.1297,-0.9026,-0.7598,-0.7251,-0.7177,-0.7156,-0.7193,-0.7156,-0.7156,-0.72,-0.7353,-0.7506,-1.6471,-1.6484,-1.6522,-1.6522,0.0,0.0,0.0,0.0,0.0,0.0,0.0,0.0,0.0,0.0,0.0,0.0,0.0,0.0,0.0,0.0,0.0,0.0,0.0,0.0,0.0,0.0,0.0,0.0,0.0,0.0,-2.4702,-2.4713,-2.4211,-2.3135,-2.3135,-2.3135,-2.3135,-2.3135,-2.3135,-2.3135,-2.3135,-2.3135,-2.3135,-2.3135,-2.3135,-2.3135,-2.3135,-2.3135,-2.3135,-2.3135,-2.3135,-2.3135,-2.3135,-2.3135,-2.3135,-2.3135,-2.3135,-2.3135,-2.3135,-2.3135,-2.3135,-2.3135,-2.3135,-2.3135,-2.3135,-2.3135,-2.3135,-2.3135,-2.3135,-2.3047,-2.296,-2.2129,-2.1293,-2.1203,-2.0215,-1.9405,-1.9405,-1.8411,-1.7598,-1.7598,-1.6574,-1.5832,-1.5832,-1.5832,-1.5832,-1.5832,-1.5832,-1.5832,-1.5832,-1.5832,-1.5832,-1.5832,-1.5832,-1.5832,-1.5832,-1.5832,-1.5818,-1.5798,-1.4196,-1.2813,-1.1655,-0.9976,-0.8512,-0.7563,-0.7285,-0.721,-0.7353,-0.721,-0.7214,-0.736,-0.7512,-0.7658,-1.6522,-1.6779,-1.696,-1.6579,0.0,0.0,0.0,0.0,0.0,0.0,0.0,0.0,0.0,0.0,0.0,0.0,0.0,0.0,0.0,0.0,0.0,0.0,0.0,0.0,0.0,0.0,0.0,0.0,0.0,0.0,-2.4872,-2.4787,-2.4296,-2.3135,-2.3135,-2.3135,-2.3135,-2.3135,-2.3135,-2.3135,-2.3135,-2.3135,-2.3135,-2.3135,-2.3135,-2.3135,-2.3135,-2.3135,-2.3135,-2.3135,-2.3135,-2.3135,-2.3135,-2.3135,-2.3135,-2.3135,-2.3135,-2.3135,-2.3135,-2.3135,-2.3135,-2.3135,-2.3135,-2.3135,-2.3135,-2.3135,-2.3135,-2.3135,-2.3135,-2.3135,-2.3135,-2.2765,-2.2403,-2.2403,-2.1489,-2.0666,-2.0666,-1.967,-1.8596,-1.787,-1.7318,-1.6763,-1.592,-1.5832,-1.5832,-1.5832,-1.5832,-1.5832,-1.5832,-1.5832,-1.5832,-1.5832,-1.5832,-1.5832,-1.5832,-1.5832,-1.5832,-1.5832,-1.4463,-1.3472,-1.2946,-1.0791,-0.9295,-0.8792,-0.7848,-0.7455,-0.7512,-0.7455,-0.7458,-0.7516,-0.7662,-0.776,-1.6522,-1.6529,-1.6577,0.0,0.0,0.0,0.0,0.0,0.0,0.0,0.0,0.0,0.0,0.0,0.0,0.0,0.0,0.0,0.0,0.0,0.0,0.0,0.0,0.0,0.0,0.0,0.0,0.0,0.0,0.0,0.0,-2.4787,-2.4296,-2.3135,-2.3135,-2.3135,-2.3135,-2.3135,-2.3135,-2.3135,-2.3135,-2.3135,-2.3135,-2.3135,-2.3135,-2.3135,-2.3135,-2.3135,-2.3135,-2.3135,-2.3135,-2.3135,-2.3135,-2.3135,-2.3135,-2.3135,-2.3135,-2.3135,-2.3135,-2.3135,-2.3135,-2.3135,-2.3135,-2.3135,-2.3135,-2.3135,-2.3135,-2.3135,-2.3135,-2.3135,-2.3135,-2.3135,-2.3135,-2.3135,-2.2492,-2.1845,-2.1845,-2.0935,-1.9852,-1.9047,-1.8234,-1.7412,-1.6574,-1.6109,-1.5832,-1.5832,-1.5832,-1.5832,-1.5832,-1.5832,-1.5832,-1.5832,-1.5832,-1.5832,-1.5832,-1.5832,-1.5832,-1.5832,-1.4949,-1.4285,-1.3826,-1.1647,-1.0152,-0.9703,-0.8663,-0.7991,-0.7665,-0.7621,-0.7624,-0.7668,-0.7767,-0.7838,-1.6522,-1.5617,0.0,0.0,0.0,0.0,0.0,0.0,0.0,0.0,0.0,0.0,0.0,0.0,0.0,0.0,0.0,0.0,0.0,0.0,0.0,0.0,0.0,0.0,0.0,0.0,0.0,0.0,0.0,0.0,0.0,-2.4787,-2.4296,-2.3135,-2.3135,-2.3135,-2.3135,-2.3125,-2.3125,-2.3135,-2.3135,-2.3135,-2.3135,-2.3135,-2.3135,-2.3135,-2.3135,-2.3135,-2.3135,-2.3135,-2.3135,-2.3135,-2.3135,-2.3135,-2.3135,-2.3135,-2.3135,-2.3135,-2.3135,-2.3135,-2.3135,-2.3135,-2.3135,-2.3135,-2.3135,-2.3135,-2.3135,-2.3135,-2.3135,-2.3135,-2.3135,-2.3135,-2.3135,-2.3135,-2.3135,-2.3135,-2.3135,-2.2129,-2.1293,-2.1293,-1.9405,-1.7692,-1.7692,-1.6669,-1.5825,-1.5832,-1.5832,-1.5832,-1.5832,-1.5832,-1.5832,-1.5832,-1.5832,-1.5832,-1.5832,-1.5832,-1.5832,-1.5832,-1.5832,-1.5242,-1.3974,-1.249,-1.1144,-1.0092,-0.972,-0.8965,-0.7814,-0.7672,-0.7675,-0.7814,-0.7814,-0.7892,-1.6522,0.0,0.0,0.0,0.0,0.0,0.0,0.0,0.0,0.0,0.0,0.0,0.0,0.0,0.0,0.0,0.0,0.0,0.0,0.0,0.0,0.0,0.0,0.0,0.0,0.0,0.0,0.0,0.0,0.0,0.0,-2.4787,-2.4296,-2.3135,-2.2852,-2.2705,-2.2705,-2.2402,-2.2402,-2.2705,-2.2705,-2.2852,-2.3135,-2.3135,-2.3135,-2.3135,-2.3135,-2.3135,-2.3135,-2.3135,-2.3135,-2.3135,-2.3135,-2.3135,-2.3135,-2.3135,-2.3135,-2.3135,-2.3135,-2.3135,-2.3135,-2.3135,-2.3135,-2.3135,-2.3135,-2.3135,-2.3135,-2.3135,-2.3135,-2.3135,-2.3135,-2.3135,-2.3135,-2.3135,-2.3135,-2.3135,-2.3135,-2.2862,-2.2306,-2.148,-2.0755,-1.967,-1.7956,-1.7412,-1.6857,-1.592,-1.5832,-1.5832,-1.5832,-1.5832,-1.5832,-1.5832,-1.5832,-1.5832,-1.5832,-1.5832,-1.5832,-1.5832,-1.5832,-1.5635,-1.5242,-1.3999,-1.3121,-1.2711,-1.1712,-1.0624,-0.9331,-0.9283,-0.88,-0.797,-0.797,-0.7994,-1.6522,0.0,0.0,0.0,0.0,0.0,0.0,0.0,0.0,0.0,0.0,0.0,0.0,0.0,0.0,0.0,0.0,0.0,0.0,0.0,0.0,0.0,0.0,0.0,0.0,0.0,0.0,0.0,0.0,0.0,0.0,-2.3778,-2.3468,-2.2646,-2.2393,-2.2266,-2.2266,-2.2012,-2.2012,-2.2266,-2.2266,-2.248,-2.2891,-2.3066,-2.3135,-2.3135,-2.3135,-2.3135,-2.3135,-2.3135,-2.3135,-2.3135,-2.3135,-2.3135,-2.3135,-2.3135,-2.3135,-2.3135,-2.3135,-2.3135,-2.3135,-2.3135,-2.3135,-2.3135,-2.3135,-2.3135,-2.3135,-2.3135,-2.3135,-2.3135,-2.3135,-2.3135,-2.3135,-2.3135,-2.3135,-2.3135,-2.3135,-2.3135,-2.2862,-2.2129,-2.1658,-2.0845,-1.9405,-1.8319,-1.7412,-1.6662,-1.6103,-1.5832,-1.5832,-1.5832,-1.5832,-1.5832,-1.5832,-1.5832,-1.5832,-1.5832,-1.5832,-1.5832,-1.5832,-1.5832,-1.5832,-1.5045,-1.4459,-1.3878,-1.3102,-1.2037,-1.0779,-1.0293,-0.9608,-0.8825,-0.8237,-0.8038,0.0,0.0,0.0,0.0,0.0,0.0,0.0,0.0,0.0,0.0,0.0,0.0,0.0,0.0,0.0,0.0,0.0,0.0,0.0,0.0,0.0,0.0,0.0,0.0,0.0,0.0,0.0,0.0,0.0,0.0,0.0,-2.2246,-2.2275,-2.1894,-2.1846,-2.1826,-2.1826,-2.1787,-2.1787,-2.1826,-2.1826,-2.2051,-2.2471,-2.2891,-2.3105,-2.3135,-2.3135,-2.3135,-2.3135,-2.3135,-2.3135,-2.3135,-2.3135,-2.3135,-2.3135,-2.3135,-2.3135,-2.3135,-2.3135,-2.3135,-2.3135,-2.3135,-2.3135,-2.3135,-2.3135,-2.3135,-2.3135,-2.3135,-2.3135,-2.3135,-2.3135,-2.3135,-2.3135,-2.3135,-2.3135,-2.3135,-2.3135,-2.3135,-2.3135,-2.3135,-2.2208,-2.1382,-2.1293,-1.9497,-1.7956,-1.7684,-1.6574,-1.5832,-1.5832,-1.5832,-1.5832,-1.5832,-1.5832,-1.5832,-1.5832,-1.5832,-1.5832,-1.5832,-1.5832,-1.5832,-1.5832,-1.5832,-1.5242,-1.407,-1.407,-1.3397,-1.2042,-1.0872,-1.0288,-1.0096,-0.8825,-0.8134,0.0,0.0,0.0,0.0,0.0,0.0,0.0,0.0,0.0,0.0,0.0,0.0,0.0,0.0,0.0,0.0,0.0,0.0,0.0,0.0,0.0,0.0,0.0,0.0,0.0,0.0,0.0,0.0,0.0,0.0,-2.1894,-2.1973,-2.1982,-2.1894,-2.1553,-2.1377,-2.1377,-2.1025,-2.1025,0.0,-2.1377,-2.1602,-2.2031,-2.2461,-2.2822,-2.3135,-2.3135,-2.3135,-2.3135,-2.3135,-2.3135,-2.3135,-2.3135,-2.3135,-2.3135,-2.3135,-2.3135,-2.3135,-2.3135,-2.3135,-2.3135,-2.3135,-2.3135,-2.3135,-2.3135,-2.3135,-2.3135,-2.3135,-2.3135,-2.3135,-2.3135,-2.3135,-2.3135,-2.3135,-2.3135,-2.3135,-2.3135,-2.3135,-2.3135,-2.3135,-2.2862,-2.2403,-2.148,-2.0845,-1.9852,-1.7963,-1.6574,-1.5832,-1.5832,-1.5832,-1.5832,-1.5832,-1.5832,-1.5832,-1.5832,-1.5832,-1.5832,-1.5832,-1.5832,-1.5832,-1.5832,-1.5832,-1.5635,-1.5439,-1.5439,-1.4752,-1.3488,-1.3199,-1.2522,-1.1463,-1.0194,-0.9608,0.0,0.0,0.0,0.0,0.0,0.0,0.0,0.0,0.0,0.0,0.0,0.0,0.0,0.0,0.0,0.0,0.0,0.0,0.0,0.0,0.0,0.0,0.0,0.0,0.0,0.0,0.0,0.0,0.0,-2.1699,-2.1279,-2.1455,-2.1475,-2.126,-2.1035,-2.0918,-2.0918,-2.0684,-2.0684,-2.0918,-2.0918,-2.1143,-2.1592,-2.2227,-2.2744,-2.3135,-2.3135,-2.3135,-2.3135,-2.3135,-2.3135,-2.3135,-2.3135,-2.3135,-2.3135,-2.3135,-2.3135,-2.3135,-2.3135,-2.3135,-2.3135,-2.3135,-2.3135,-2.3135,-2.3135,-2.3135,-2.3135,-2.3135,-2.3135,-2.3135,-2.3135,-2.3135,-2.3135,-2.3135,-2.3135,-2.3135,-2.3135,-2.3135,-2.3135,-2.3135,-2.3135,-2.2862,-2.2306,-2.1658,-2.0486,-1.8048,-1.7131,-1.648,-1.5927,-1.5832,-1.5832,-1.5832,-1.5832,-1.5832,-1.5832,-1.5832,-1.5832,-1.5832,-1.5832,-1.5832,-1.5832,-1.5832,-1.5832,-1.5832,-1.5832,-1.5439,-1.4848,-1.4166,-1.3584,-1.2818,-1.0872,-0.9998,0.0,0.0,0.0,0.0,0.0,0.0,0.0,0.0,0.0,0.0,0.0,0.0,0.0,0.0,0.0,0.0,0.0,0.0,0.0,0.0,0.0,0.0,0.0,0.0,0.0,0.0,0.0,0.0,0.0,-2.1123,-2.0381,-2.0693,-2.0732,-2.0361,-2.041,-2.0449,-2.0449,-2.0527,-2.0566,-2.0566,-2.0566,-2.0801,-2.126,-2.1973,-2.2519,-2.292,-2.292,-2.292,-2.293,-2.2998,-2.3027,-2.3037,-2.3105,-2.3135,-2.3135,-2.3135,-2.3135,-2.3135,-2.3135,-2.3135,-2.3135,-2.3135,-2.3135,-2.3135,-2.3135,-2.3135,-2.3135,-2.3135,-2.3135,-2.3135,-2.3135,-2.3135,-2.3135,-2.3135,-2.3135,-2.3135,-2.3135,-2.3135,-2.3135,-2.3135,-2.3135,-2.3135,-2.3135,-2.212,-2.0567,-1.8319,-1.787,-1.7225,-1.592,-1.5832,-1.5832,-1.5832,-1.5832,-1.5832,-1.5832,-1.5832,-1.5832,-1.5832,-1.5832,-1.5832,-1.5832,-1.5832,-1.5832,-1.5832,-1.5832,-1.5832,-1.5832,-1.4752,-1.4262,-1.4166,-1.1745,-1.0676,0.0,0.0,0.0,0.0,0.0,0.0,0.0,0.0,0.0,0.0,0.0,0.0,0.0,0.0,0.0,0.0,0.0,0.0,0.0,0.0,0.0,0.0,0.0,0.0,0.0,0.0,0.0,0.0,-1.957,-1.958,-1.9463,-1.9512,-1.9521,-1.9463,-1.9805,-2.0,-2.0,-2.0381,-2.0566,-2.0566,-2.0566,-2.0801,-2.124,-2.1348,-2.1641,-2.2051,-2.2051,-2.2051,-2.208,-2.2441,-2.2598,-2.2627,-2.2998,-2.3135,-2.3135,-2.3135,-2.3135,-2.3135,-2.3135,-2.3135,-2.3135,-2.3135,-2.3135,-2.3135,-2.3135,-2.3135,-2.3135,-2.3135,-2.3135,-2.3135,-2.3135,-2.3135,-2.3135,-2.3135,-2.3135,-2.3135,-2.3135,-2.3135,-2.3135,-2.3135,-2.3135,-2.3135,-2.3135,-2.212,-2.0845,-1.9497,-1.8411,-1.7225,-1.592,-1.5832,-1.5832,-1.5832,-1.5832,-1.5832,-1.5832,-1.5832,-1.5832,-1.5832,-1.5832,-1.5832,-1.5832,-1.5832,-1.5832,-1.5832,-1.5832,-1.5832,-1.5832,-1.5635,-1.554,-1.5534,-1.4076,-1.3392,0.0,0.0,0.0,0.0,0.0,0.0,0.0,0.0,0.0,0.0,0.0,0.0,0.0,0.0,0.0,0.0,0.0,0.0,0.0,0.0,0.0,0.0,0.0,0.0,0.0,0.0,0.0,0.0,-1.915,-1.9287,-1.9287,-1.9287,-1.9287,-1.9287,-1.9463,-1.9561,-1.9561,-1.9756,-1.9961,-2.0205,-2.0449,-2.0674,-2.0859,-2.0859,-2.124,-2.1885,-2.1885,-2.1885,-2.1924,-2.2344,-2.251,-2.2549,-2.2969,-2.3135,-2.3135,-2.3135,-2.3135,-2.3135,-2.3135,-2.3135,-2.3135,-2.3135,-2.3135,-2.3135,-2.3135,-2.3135,-2.3135,-2.3135,-2.3135,-2.3135,-2.3135,-2.3135,-2.3135,-2.3135,-2.3135,-2.3135,-2.3135,-2.3135,-2.3135,-2.3135,-2.3135,-2.3135,-2.3135,-2.2677,-2.1943,-2.0666,-1.9497,-1.8226,-1.7037,-1.6197,-1.5832,-1.5832,-1.5832,-1.5832,-1.5832,-1.5832,-1.5832,-1.5832,-1.5832,-1.5832,-1.5832,-1.5832,-1.5832,-1.5832,-1.5832,-1.5832,-1.5832,-1.5832,-1.5832,-1.5737,-1.4459,-1.3878,0.0,0.0,0.0,0.0,0.0,0.0,0.0,0.0,0.0,0.0,0.0,0.0,0.0,0.0,0.0,0.0,0.0,0.0,0.0,0.0,0.0,0.0,0.0,0.0,0.0,0.0,0.0,0.0,-1.8457,-1.8633,-1.8633,-1.874,-1.8809,-1.8809,-1.9014,-1.9121,-1.9121,-1.9238,-1.9443,-1.9756,-2.0195,-2.04,-2.041,-2.0518,-2.0928,-2.1553,-2.1553,-2.1611,-2.1758,-2.2178,-2.2412,-2.2549,-2.2969,-2.3135,-2.3135,-2.3135,-2.3135,-2.3135,-2.3135,-2.3135,-2.3135,-2.3135,-2.3135,-2.3135,-2.3135,-2.3135,-2.3135,-2.3135,-2.3135,-2.3135,-2.3135,-2.3135,-2.3135,-2.3135,-2.3135,-2.3135,-2.3135,-2.3135,-2.3135,-2.3135,-2.3135,-2.3135,-2.3135,-2.3135,-2.2677,-2.148,-2.0305,-1.9039,-1.787,-1.6574,-1.5832,-1.5832,-1.5832,-1.5832,-1.5832,-1.5832,-1.5832,-1.5832,-1.5832,-1.5832,-1.5832,-1.5832,-1.5832,-1.5832,-1.5832,-1.5832,-1.5832,-1.5832,-1.5832,-1.5737,-1.4854,-1.4364,0.0,0.0,0.0,0.0,0.0,0.0,0.0,0.0,0.0,0.0,0.0,0.0,0.0,0.0,0.0,0.0,0.0,0.0,0.0,0.0,0.0,0.0,0.0,0.0,0.0,0.0,0.0,0.0,-1.6792,-1.6865,-1.6865,-1.7256,-1.748,-1.748,-1.8252,-1.8672,-1.8672,-1.9082,-1.9297,-1.9326,-1.9746,-1.9951,-1.9961,-2.0381,-2.0586,-2.0635,-2.0635,-2.0869,-2.1299,-2.1738,-2.2158,-2.2549,-2.2969,-2.3135,-2.3135,-2.3135,-2.3135,-2.3135,-2.3135,-2.3135,-2.3135,-2.3135,-2.3135,-2.3135,-2.3135,-2.3135,-2.3135,-2.3135,-2.3135,-2.3135,-2.3135,-2.3135,-2.3135,-2.3135,-2.3135,-2.3135,-2.3135,-2.3135,-2.3135,-2.3135,-2.3135,-2.3135,-2.3135,-2.3135,-2.2677,-2.148,-2.0305,-1.9039,-1.787,-1.6574,-1.5832,-1.5832,-1.5832,-1.5832,-1.5832,-1.5832,-1.5832,-1.5832,-1.5832,-1.5832,-1.5832,-1.5832,-1.5832,-1.5832,-1.5832,-1.5832,-1.5832,-1.5832,-1.5832,-1.5832,-1.573,-1.573,0.0,0.0,0.0,0.0,0.0,0.0,0.0,0.0,0.0,0.0,0.0,0.0,0.0,0.0,0.0,0.0,0.0,0.0,0.0,0.0,0.0,0.0,0.0,0.0,0.0,0.0,0.0,0.0,0.0,-1.6665,-1.6665,-1.6885,-1.6963,-1.6963,-1.7256,-1.7549,-1.7832,-1.8525,-1.8867,-1.8877,-1.9307,-1.9648,-1.9922,-2.0078,-2.0303,-2.0566,-2.0566,-2.0654,-2.084,-2.1279,-2.1562,-2.1738,-2.2168,-2.25,-2.2734,-2.2734,-2.291,-2.3135,-2.3135,-2.3135,-2.3135,-2.3135,-2.3135,-2.3135,-2.3135,-2.3135,-2.3135,-2.3135,-2.3135,-2.3135,-2.3135,-2.3135,-2.3135,-2.3135,-2.3135,-2.3135,-2.3135,-2.3135,-2.3135,-2.3135,-2.3135,-2.3135,-2.3135,-2.3135,-2.296,-2.2492,-2.0764,-1.9314,-1.8956,-1.7023,-1.5832,-1.5832,-1.5832,-1.5832,-1.5832,-1.5832,-1.5832,-1.5832,-1.5832,-1.5832,-1.5832,-1.5832,-1.5832,-1.5832,-1.5832,-1.5832,-1.5832,-1.5832,-1.5832,-1.5832,-1.5832,-1.5832,0.0,0.0,0.0,0.0,0.0,0.0,0.0,0.0,0.0,0.0,0.0,0.0,0.0,0.0,0.0,0.0,0.0,0.0,0.0,0.0,0.0,0.0,0.0,0.0,0.0,0.0,0.0,0.0,0.0,0.0,-1.6074,-1.6211,-1.6426,-1.6719,-1.6665,-1.6875,-1.7168,-1.7861,-1.8213,-1.8223,-1.8799,-1.9219,-1.9492,-1.9639,-1.9941,-2.0352,-2.0352,-2.0518,-2.081,-2.1113,-2.1318,-2.1484,-2.1777,-2.2139,-2.251,-2.251,-2.2783,-2.3135,-2.3135,-2.3135,-2.3135,-2.3135,-2.3135,-2.3135,-2.3135,-2.3135,-2.3135,-2.3135,-2.3135,-2.3135,-2.3135,-2.3135,-2.3135,-2.3135,-2.3135,-2.3135,-2.3135,-2.3135,-2.3135,-2.3135,-2.3135,-2.3135,-2.3135,-2.3135,-2.3135,-2.3135,-2.1042,-1.9497,-1.9497,-1.7296,-1.5832,-1.5832,-1.5832,-1.5832,-1.5832,-1.5832,-1.5832,-1.5832,-1.5832,-1.5832,-1.5832,-1.5832,-1.5832,-1.5832,-1.5832,-1.5832,-1.5832,-1.5832,-1.5832,-1.5832,-1.5832,-1.5832,0.0,0.0,0.0,0.0,0.0,0.0,0.0,0.0,0.0,0.0,0.0,0.0,0.0,0.0,0.0,0.0,0.0,0.0,0.0,0.0,0.0,0.0,0.0,0.0,0.0,0.0,0.0,0.0,-1.5081,-1.5014,-1.4802,-1.5156,-1.5771,-1.665,-1.6689,-1.6699,-1.6709,-1.7148,-1.7363,-1.7373,-1.8203,-1.8533,-1.8633,-1.9072,-1.9502,-1.9893,-1.9893,-2.0391,-2.1191,-2.1211,-2.1465,-2.1846,-2.1865,-2.2129,-2.249,-2.251,-2.2783,-2.3135,-2.3135,-2.3135,-2.3135,-2.3135,-2.3135,-2.3135,-2.3135,-2.3135,-2.3135,-2.3135,-2.3135,-2.3135,-2.3135,-2.3135,-2.3135,-2.3135,-2.3135,-2.3135,-2.3135,-2.3135,-2.3135,-2.3135,-2.3135,-2.3135,-2.3135,-2.3135,-2.3135,-2.3135,-2.1042,-1.9588,-1.9497,-1.739,-1.5825,-1.5832,-1.5832,-1.5832,-1.5832,-1.5832,-1.5832,-1.5832,-1.5832,-1.5832,-1.5832,-1.5832,-1.5832,-1.5832,-1.5832,-1.5832,-1.5832,-1.5832,-1.5832,-1.5832,-1.5832,-1.5832,-1.5242,0.0,0.0,0.0,0.0,0.0,0.0,0.0,0.0,0.0,0.0,0.0,0.0,0.0,0.0,0.0,0.0,0.0,0.0,0.0,0.0,0.0,0.0,0.0,0.0,0.0,0.0,0.0,-1.4397,-1.434,-1.4307,-1.4424,-1.4746,-1.5303,-1.5615,-1.5928,-1.625,-1.6689,-1.6914,-1.6924,-1.7471,-1.7891,-1.8193,-1.8623,-1.9053,-1.9463,-1.9463,-1.9775,-2.0303,-2.0625,-2.082,-2.0957,-2.1289,-2.168,-2.21,-2.2402,-2.2783,-2.3135,-2.3135,-2.3135,-2.3135,-2.3135,-2.3135,-2.3135,-2.3135,-2.3135,-2.3135,-2.3135,-2.3135,-2.3135,-2.3135,-2.3135,-2.3135,-2.3135,-2.3135,-2.3135,-2.3135,-2.3135,-2.3135,-2.3135,-2.3135,-2.3135,-2.3135,-2.3135,-2.3135,-2.3135,-2.1765,-2.0486,-1.9579,-1.8133,-1.685,-1.592,-1.5832,-1.5832,-1.5832,-1.5832,-1.5832,-1.5832,-1.5832,-1.5832,-1.5832,-1.5832,-1.5832,-1.5832,-1.5832,-1.5832,-1.5832,-1.5832,-1.5832,-1.5832,-1.5832,-1.5832,0.0,0.0,0.0,0.0,0.0,0.0,-1.3175,-1.2788,0.0,0.0,0.0,0.0,0.0,0.0,0.0,0.0,0.0,0.0,0.0,0.0,0.0,0.0,0.0,0.0,0.0,-1.3993,-1.3993,-1.3993,-1.3993,-1.3919,-1.3857,-1.398,-1.4336,-1.4775,-1.4844,-1.5166,-1.5781,-1.6055,-1.6269,-1.6465,-1.709,-1.751,-1.7764,-1.8184,-1.8603,-1.9014,-1.9014,-1.9258,-1.9687,-2.0117,-2.04,-2.0605,-2.1064,-2.1504,-2.1934,-2.2353,-2.2783,-2.3135,-2.3135,-2.3135,-2.3135,-2.3135,-2.3135,-2.3135,-2.3135,-2.3135,-2.3135,-2.3135,-2.3135,-2.3135,-2.3135,-2.3135,-2.3135,-2.3135,-2.3135,-2.3135,-2.3135,-2.3135,-2.3135,-2.3135,-2.3135,-2.3135,-2.3135,-2.3135,-2.3135,-2.3135,-2.2031,-2.1025,-2.0305,-1.8772,-1.7412,-1.6662,-1.6109,-1.5832,-1.5832,-1.5832,-1.5832,-1.5832,-1.5832,-1.5832,-1.5832,-1.5832,-1.5832,-1.5832,-1.5832,-1.5832,-1.5832,-1.5832,-1.5832,-1.5832,-1.5832,-1.5832,0.0,0.0,0.0,0.0,0.0,0.0,-1.3289,-1.2762,-1.226,0.0,0.0,0.0,0.0,0.0,0.0,0.0,0.0,0.0,0.0,0.0,0.0,0.0,0.0,0.0,-1.3637,-1.3684,-1.3684,-1.3684,-1.3684,-1.3631,-1.3469,-1.3789,-1.4189,-1.4629,-1.4268,-1.4453,-1.5264,-1.5322,-1.5537,-1.5988,-1.6816,-1.7266,-1.7324,-1.7744,-1.8164,-1.8494,-1.8494,-1.8818,-1.9248,-1.9668,-2.0098,-2.0547,-2.1035,-2.1475,-2.1875,-2.2344,-2.2744,-2.3076,-2.3125,-2.3135,-2.3135,-2.3135,-2.3135,-2.3135,-2.3135,-2.3135,-2.3135,-2.3135,-2.3135,-2.3135,-2.3135,-2.3135,-2.3135,-2.3135,-2.3135,-2.3135,-2.3135,-2.3135,-2.3135,-2.3135,-2.3135,-2.3135,-2.3135,-2.3135,-2.3135,-2.3135,-2.2217,-2.1471,-2.1293,-1.9314,-1.787,-1.7684,-1.6574,-1.5832,-1.5832,-1.5832,-1.5832,-1.5832,-1.5832,-1.5832,-1.5832,-1.5832,-1.5832,-1.5832,-1.5832,-1.5832,-1.5832,-1.5832,-1.5832,-1.5832,-1.5832,-1.5832,0.0,0.0,0.0,0.0,0.0,0.0,-1.37,-1.3549,-1.3516,0.0,0.0,0.0,0.0,0.0,0.0,0.0,0.0,0.0,0.0,0.0,0.0,0.0,0.0,0.0,-1.3055,-1.3055,-1.3055,-1.3055,-1.3055,-1.3056,-1.2998,-1.3076,-1.332,-1.374,-1.3672,-1.3877,-1.4321,-1.4736,-1.4951,-1.5049,-1.5908,-1.6514,-1.6875,-1.7305,-1.7734,-1.8135,-1.8135,-1.8369,-1.8799,-1.9228,-1.9658,-2.0117,-2.0918,-2.1289,-2.1455,-2.2227,-2.2568,-2.2685,-2.3018,-2.3135,-2.3135,-2.3135,-2.3135,-2.3135,-2.3135,-2.3135,-2.3135,-2.3135,-2.3135,-2.3135,-2.3135,-2.3135,-2.3135,-2.3135,-2.3135,-2.3135,-2.3135,-2.3135,-2.3135,-2.3135,-2.3135,-2.3135,-2.3135,-2.3135,-2.3135,-2.3135,-2.2862,-2.2403,-2.1382,-2.0034,-1.8772,-1.7777,-1.6574,-1.5832,-1.5832,-1.5832,-1.5832,-1.5832,-1.5832,-1.5832,-1.5832,-1.5832,-1.5832,-1.5832,-1.5832,-1.5832,-1.5832,-1.5832,-1.5832,-1.5832,-1.5832,-1.5832,0.0,0.0,0.0,-1.3065,0.0,0.0,0.0,-1.3679,-1.3581,0.0,0.0,0.0,0.0,0.0,0.0,0.0,0.0,0.0,0.0,0.0,0.0,0.0,0.0,0.0,-1.2881,-1.2881,-1.2881,-1.2881,-1.2881,-1.2881,-1.2881,-1.2881,-1.3076,-1.3496,-1.3301,-1.3496,-1.4077,-1.4141,-1.4365,-1.4795,-1.543,-1.5977,-1.6416,-1.708,-1.75,-1.7705,-1.792,-1.8125,-1.8379,-1.9014,-1.9414,-1.9707,-2.0801,-2.123,-2.1309,-2.1963,-2.2197,-2.2266,-2.2685,-2.2822,-2.2861,-2.3066,-2.3135,-2.3135,-2.3135,-2.3135,-2.3135,-2.3135,-2.3135,-2.3135,-2.3135,-2.3135,-2.3135,-2.3135,-2.3135,-2.3135,-2.3135,-2.3135,-2.3135,-2.3135,-2.3135,-2.3135,-2.3135,-2.3135,-2.3135,-2.3135,-2.3135,-2.2862,-2.2306,-2.0584,-1.9314,-1.868,-1.6936,-1.5832,-1.5832,-1.5832,-1.5832,-1.5832,-1.5832,-1.5832,-1.5832,-1.5832,-1.5832,-1.5832,-1.5832,-1.5832,-1.5832,-1.5832,-1.5832,-1.5832,-1.5832,-1.5832,0.0,0.0,0.0,0.0,0.0,-1.3115,0.0,0.0,0.0,0.0,0.0,0.0,0.0,0.0,0.0,0.0,0.0,0.0,0.0,0.0,0.0,0.0,0.0,0.0,0.0,-1.2881,-1.2881,-1.2881,-1.2881,-1.2881,-1.2881,-1.2881,-1.3037,-1.3379,-1.3057,-1.3203,-1.3887,-1.3633,-1.3896,-1.4668,-1.5088,-1.5566,-1.6145,-1.6807,-1.7227,-1.7402,-1.7744,-1.7939,-1.8066,-1.8848,-1.9209,-1.9404,-2.0635,-2.1103,-2.1162,-2.1602,-2.1816,-2.1953,-2.2363,-2.2568,-2.2685,-2.3027,-2.3135,-2.3135,-2.3135,-2.3135,-2.3135,-2.3135,-2.3135,-2.3135,-2.3135,-2.3135,-2.3135,-2.3135,-2.3135,-2.3135,-2.3135,-2.3135,-2.3135,-2.3135,-2.3135,-2.3135,-2.3135,-2.3135,-2.3135,-2.3135,-2.3135,-2.3135,-2.3135,-2.0953,-1.9497,-1.9497,-1.7296,-1.5832,-1.5832,-1.5832,-1.5832,-1.5832,-1.5832,-1.5832,-1.5832,-1.5832,-1.5832,-1.5832,-1.5832,-1.5832,-1.5832,-1.5832,-1.5832,-1.5832,-1.5832,-1.5832,0.0,0.0,0.0,0.0,-1.3286,0.0,0.0,0.0,0.0,-1.5182,0.0,0.0,0.0,0.0,0.0,0.0,0.0,0.0,0.0,0.0,0.0,0.0,0.0,0.0,0.0,-1.2881,-1.2881,-1.2881,-1.2881,-1.2881,-1.2881,-1.2881,-1.29,-1.2949,-1.29,-1.293,-1.3027,-1.335,-1.374,-1.4209,-1.4648,-1.5273,-1.6125,-1.6223,-1.6641,-1.7383,-1.7432,-1.7666,-1.8047,-1.8516,-1.8936,-1.9375,-2.0283,-2.0644,-2.0693,-2.1143,-2.1553,-2.1953,-2.2363,-2.2754,-2.3076,-2.3125,-2.3135,-2.3135,-2.3135,-2.3135,-2.3135,-2.3135,-2.3135,-2.3135,-2.3135,-2.3135,-2.3135,-2.3135,-2.3135,-2.3135,-2.3135,-2.3135,-2.3135,-2.3135,-2.3135,-2.3135,-2.3135,-2.3135,-2.3135,-2.3135,-2.3135,-2.3135,-2.3135,-2.0953,-1.9497,-1.9497,-1.7296,-1.5832,-1.5832,-1.5832,-1.5832,-1.5832,-1.5832,-1.5832,-1.5832,-1.5832,-1.5832,-1.5832,-1.5832,-1.5832,-1.5832,-1.5832,-1.5832,-1.5832,-1.5832,-1.5832,0.0,0.0,0.0,0.0,0.0,0.0,-1.4807,0.0,-1.4026,0.0,0.0,0.0,0.0,0.0,0.0,0.0,-1.4507,0.0,0.0,0.0,0.0,0.0,0.0,0.0,0.0,0.0,0.0,0.0,-1.2881,-1.2881,-1.2881,-1.2881,-1.2881,-1.2881,-1.2881,-1.2881,-1.2881,-1.3057,-1.3477,-1.4077,-1.4316,-1.4853,-1.5693,-1.6007,-1.6321,-1.665,-1.7158,-1.749,-1.7695,-1.8359,-1.8896,-1.9346,-1.9951,-2.0342,-2.0586,-2.0781,-2.1133,-2.1572,-2.2002,-2.2266,-2.2451,-2.2695,-2.2939,-2.3135,-2.3135,-2.3135,-2.3135,-2.3135,-2.3135,-2.3135,-2.3135,-2.3135,-2.3135,-2.3135,-2.3135,-2.3135,-2.3135,-2.3135,-2.3135,-2.3135,-2.3135,-2.3135,-2.3135,-2.3135,-2.3135,-2.3135,-2.3135,-2.3135,-2.3135,-2.1578,-2.0305,-1.9579,-1.7948,-1.6574,-1.5825,-1.5832,-1.5832,-1.5832,-1.5832,-1.5832,-1.5832,-1.5832,-1.5832,-1.5832,-1.5832,-1.5832,-1.5832,-1.5832,-1.5832,-1.5832,-1.5832,-1.5832,-1.4721,0.0,0.0,0.0,0.0,0.0,0.0,0.0,0.0,0.0,0.0,0.0,0.0,0.0,0.0,0.0,0.0,0.0,0.0,0.0,0.0,0.0,0.0,0.0,0.0,0.0,0.0,-1.319,-1.3296,-1.3248,-1.2929,-1.3065,-1.3065,-1.2929,-1.2881,-1.2881,-1.2881,-1.2881,-1.3301,-1.4077,-1.4077,-1.458,-1.542,-1.5732,-1.5947,-1.6164,-1.6738,-1.7158,-1.7432,-1.8047,-1.8613,-1.915,-1.958,-2.001,-2.04,-2.0518,-2.085,-2.1299,-2.1738,-2.1963,-2.209,-2.2275,-2.2627,-2.2969,-2.2969,-2.3047,-2.3135,-2.3135,-2.3135,-2.3135,-2.3135,-2.3135,-2.3135,-2.3135,-2.3135,-2.3135,-2.3135,-2.3135,-2.3135,-2.3135,-2.3135,-2.3135,-2.3135,-2.3135,-2.3135,-2.3135,-2.3135,-2.3135,-2.3135,-2.2031,-2.0935,-2.0124,-1.8588,-1.7318,-1.6386,-1.6015,-1.5832,-1.5832,-1.5832,-1.5832,-1.5832,-1.5832,-1.5832,-1.5832,-1.5832,-1.5832,-1.5832,-1.5832,-1.5832,-1.5832,-1.5832,-1.5832,0.0,0.0,0.0,-1.5418,0.0,0.0,0.0,0.0,-1.4679,0.0,0.0,0.0,0.0,0.0,0.0,0.0,0.0,0.0,0.0,0.0,0.0,0.0,0.0,0.0,0.0,0.0,0.0,-1.3815,-1.4329,-1.4107,-1.2968,-1.3467,-1.3505,-1.2929,-1.2881,-1.2881,-1.2881,-1.2881,-1.3301,-1.4077,-1.4077,-1.458,-1.541,-1.543,-1.5664,-1.6125,-1.6154,-1.6592,-1.7383,-1.7412,-1.791,-1.8701,-1.9141,-1.957,-1.999,-2.041,-2.085,-2.1299,-2.1738,-2.2148,-2.2432,-2.2031,-2.2187,-2.2539,-2.2539,-2.2812,-2.3135,-2.3135,-2.3135,-2.3135,-2.3135,-2.3135,-2.3135,-2.3135,-2.3135,-2.3135,-2.3135,-2.3135,-2.3135,-2.3135,-2.3135,-2.3135,-2.3135,-2.3135,-2.3135,-2.3135,-2.3135,-2.3135,-2.3135,-2.2031,-2.1293,-2.1203,-1.9131,-1.7692,-1.7591,-1.648,-1.5832,-1.5832,-1.5832,-1.5832,-1.5832,-1.5832,-1.5832,-1.5832,-1.5832,-1.5832,-1.5832,-1.5832,-1.5832,-1.5832,-1.5832,-1.5832,0.0,0.0,-1.5944,-1.6149,0.0,0.0,0.0,0.0,0.0,0.0,0.0,0.0,0.0,0.0,0.0,0.0,0.0,0.0,0.0,0.0,-1.6337,0.0,0.0,0.0,0.0,0.0,0.0,-1.4422,-1.456,-1.4525,-1.4107,-1.392,-1.3732,-1.3505,-1.3104,-1.3018,-1.3291,-1.3018,-1.3447,-1.4561,-1.4268,-1.458,-1.541,-1.541,-1.5498,-1.5664,-1.625,-1.667,-1.7002,-1.7568,-1.8125,-1.8682,-1.9121,-1.9541,-1.9971,-2.041,-2.085,-2.126,-2.1406,-2.1738,-2.2031,-2.1592,-2.1748,-2.21,-2.21,-2.2393,-2.2725,-2.2725,-2.292,-2.3135,-2.3135,-2.3135,-2.3135,-2.3135,-2.3135,-2.3135,-2.3135,-2.3135,-2.3135,-2.3135,-2.3135,-2.3135,-2.3135,-2.3135,-2.3135,-2.3135,-2.3135,-2.3135,-2.3135,-2.2765,-2.2217,-2.1382,-1.9852,-1.8596,-1.7785,-1.6574,-1.5832,-1.5832,-1.5832,-1.5832,-1.5832,-1.5832,-1.5832,-1.5832,-1.5832,-1.5832,-1.5832,-1.5832,-1.5832,-1.5832,-1.5832,-1.5832,-1.6522,-1.6522,0.0,-1.6522,-1.6225,0.0,-1.5942,0.0,0.0,0.0,0.0,0.0,0.0,0.0,0.0,0.0,0.0,0.0,0.0,-1.6022,-1.6522,0.0,0.0,0.0,0.0,0.0,-1.5688,-1.5062,-1.5197,-1.5152,0.0,0.0,-1.4003,-1.3826,-1.319,-1.3008,-1.3281,-1.3018,-1.3447,-1.4551,-1.4214,-1.458,-1.541,-1.541,-1.541,-1.5449,-1.6016,-1.6436,-1.6714,-1.7334,-1.7891,-1.8457,-1.8887,-1.9316,-1.9766,-2.0352,-2.085,-2.1211,-2.1055,-2.1289,-2.1582,-2.1143,-2.1299,-2.165,-2.165,-2.1953,-2.2295,-2.2295,-2.248,-2.2734,-2.2881,-2.292,-2.2949,-2.3105,-2.3135,-2.3135,-2.3135,-2.3135,-2.3135,-2.3135,-2.3135,-2.3135,-2.3135,-2.3135,-2.3135,-2.3135,-2.3135,-2.3135,-2.3135,-2.3135,-2.2775,-2.2031,-2.0494,-1.8856,-1.7131,-1.6292,-1.5832,-1.5832,-1.5832,-1.5832,-1.5832,-1.5832,-1.5879,-1.5985,-1.5885,-1.5879,-1.5985,-1.5879,-1.5832,-1.5832,-1.5832,-1.5832]},{"header":{"parameterUnit":"m.s-1","parameterCategory":1,"la1":30.6,"la2":29.2853,"lo1":-89.7004,"lo2":-87.6739,"dy":0.0162,"dx":0.0183,"nx":112,"ny":82,"refTime":"2023-05-02T18:00:00:Z","depth":0,"parameterNumber":3,"parameterNumberName":"V-component_of_WINDS"},"data":[0.0,0.0,0.0,0.0,0.0,0.0,0.0,0.0,0.0,0.0,0.0,0.0,0.0,0.0,0.0,0.0,0.0,0.0,0.0,0.0,0.0,0.0,0.0,0.0,0.0,0.0,0.0,0.0,0.0,0.0,0.0,0.0,0.0,0.0,0.0,0.0,0.0,0.0,0.0,0.0,0.0,0.0,0.0,0.0,0.0,0.0,0.0,0.0,0.0,0.0,0.0,0.0,0.0,0.0,0.0,0.0,0.0,0.0,0.0,0.0,0.0,0.0,0.0,0.0,0.0,0.0,0.0,0.0,0.0,0.0,0.0,0.0,0.0,0.0,0.0,0.0,0.0,0.0,0.0,0.0,0.0,0.0,0.0,0.0,0.0,0.0,0.0,0.0,0.0,0.0,-2.011,-2.1161,-2.3381,-2.5108,-2.5845,-2.5182,-2.3999,-2.2311,0.0,0.0,0.0,0.0,0.0,0.0,0.0,0.0,0.0,0.0,0.0,0.0,0.0,0.0,0.0,0.0,0.0,0.0,0.0,0.0,0.0,0.0,0.0,0.0,0.0,0.0,0.0,0.0,0.0,0.0,0.0,0.0,0.0,0.0,0.0,0.0,0.0,0.0,0.0,0.0,0.0,0.0,0.0,0.0,0.0,0.0,0.0,0.0,0.0,0.0,0.0,0.0,0.0,0.0,0.0,0.0,0.0,0.0,0.0,0.0,0.0,0.0,0.0,0.0,0.0,0.0,0.0,0.0,0.0,0.0,0.0,0.0,0.0,0.0,0.0,0.0,0.0,0.0,0.0,0.0,0.0,0.0,0.0,0.0,0.0,0.0,0.0,0.0,0.0,0.0,0.0,0.0,0.0,0.0,0.0,0.0,0.0,0.0,0.0,0.0,0.0,0.0,0.0,0.0,-2.2377,-2.4429,-2.4744,-2.4892,-2.5064,-2.4094,-2.3232,-2.2658,0.0,0.0,0.0,0.0,0.0,0.0,0.0,0.0,0.0,0.0,0.0,0.0,0.0,0.0,0.0,0.0,0.0,0.0,0.0,0.0,0.0,0.0,0.0,0.0,0.0,0.0,0.0,0.0,0.0,0.0,0.0,0.0,0.0,0.0,0.0,0.0,0.0,0.0,0.0,0.0,0.0,0.0,0.0,0.0,0.0,0.0,0.0,0.0,0.0,0.0,0.0,0.0,0.0,0.0,0.0,0.0,0.0,0.0,0.0,0.0,0.0,0.0,0.0,0.0,0.0,0.0,0.0,0.0,0.0,0.0,0.0,0.0,0.0,0.0,0.0,0.0,0.0,0.0,0.0,0.0,0.0,0.0,0.0,0.0,0.0,0.0,0.0,0.0,0.0,0.0,0.0,0.0,0.0,0.0,0.0,0.0,0.0,0.0,0.0,0.0,0.0,0.0,0.0,-2.1475,-2.2791,-2.5146,-2.4839,-2.4665,-2.5124,-2.3743,-2.2946,-2.3218,-2.1635,0.0,0.0,0.0,0.0,0.0,0.0,0.0,0.0,0.0,0.0,0.0,0.0,0.0,0.0,0.0,0.0,0.0,0.0,0.0,0.0,0.0,0.0,0.0,0.0,0.0,0.0,0.0,0.0,0.0,0.0,0.0,0.0,0.0,0.0,0.0,0.0,0.0,0.0,0.0,0.0,0.0,0.0,0.0,0.0,0.0,0.0,0.0,0.0,0.0,0.0,0.0,0.0,0.0,0.0,0.0,0.0,0.0,0.0,0.0,0.0,0.0,0.0,0.0,0.0,0.0,0.0,0.0,0.0,0.0,0.0,0.0,0.0,0.0,0.0,0.0,0.0,0.0,0.0,0.0,0.0,0.0,0.0,0.0,0.0,0.0,0.0,0.0,0.0,0.0,0.0,0.0,0.0,0.0,0.0,0.0,0.0,0.0,0.0,0.0,0.0,0.0,0.0,-2.227,-2.2666,-2.4888,-2.4557,-2.4447,-2.5072,-2.3371,-2.2643,-2.3534,-2.0903,0.0,0.0,0.0,0.0,0.0,0.0,0.0,0.0,0.0,0.0,0.0,0.0,0.0,0.0,0.0,0.0,0.0,0.0,0.0,0.0,0.0,0.0,0.0,0.0,0.0,0.0,0.0,0.0,0.0,0.0,0.0,0.0,0.0,0.0,0.0,0.0,0.0,0.0,0.0,0.0,0.0,0.0,0.0,0.0,0.0,0.0,0.0,0.0,0.0,0.0,0.0,0.0,0.0,0.0,0.0,0.0,0.0,0.0,0.0,0.0,0.0,0.0,0.0,0.0,0.0,0.0,0.0,0.0,0.0,0.0,0.0,0.0,0.0,0.0,0.0,0.0,0.0,0.0,0.0,0.0,0.0,0.0,0.0,0.0,0.0,0.0,0.0,0.0,0.0,0.0,0.0,0.0,0.0,0.0,0.0,0.0,0.0,0.0,0.0,0.0,0.0,0.0,-2.1999,-2.2446,-2.4098,-2.4226,-2.4226,-2.4281,-2.261,-2.2048,-2.317,-2.0815,0.0,0.0,0.0,0.0,0.0,0.0,0.0,0.0,0.0,0.0,0.0,0.0,0.0,0.0,0.0,0.0,0.0,0.0,0.0,0.0,0.0,0.0,0.0,0.0,0.0,0.0,0.0,0.0,0.0,0.0,0.0,0.0,0.0,0.0,0.0,0.0,0.0,0.0,0.0,0.0,0.0,0.0,0.0,0.0,0.0,0.0,0.0,0.0,0.0,0.0,0.0,0.0,0.0,0.0,0.0,0.0,0.0,0.0,0.0,0.0,0.0,0.0,0.0,0.0,0.0,0.0,0.0,0.0,0.0,0.0,0.0,0.0,0.0,0.0,0.0,0.0,0.0,0.0,0.0,0.0,0.0,0.0,0.0,0.0,0.0,0.0,0.0,0.0,0.0,0.0,0.0,0.0,0.0,0.0,0.0,0.0,0.0,0.0,0.0,0.0,0.0,0.0,-2.1701,-2.2275,0.0,-2.3896,-2.4006,-2.3492,-2.188,-2.1332,-2.2374,0.0,0.0,0.0,0.0,0.0,0.0,0.0,0.0,0.0,0.0,0.0,0.0,0.0,0.0,0.0,0.0,0.0,0.0,0.0,0.0,0.0,0.0,0.0,0.0,0.0,0.0,0.0,0.0,0.0,0.0,0.0,0.0,0.0,0.0,0.0,0.0,0.0,0.0,0.0,0.0,0.0,0.0,0.0,0.0,0.0,0.0,0.0,0.0,0.0,0.0,0.0,0.0,0.0,0.0,0.0,0.0,0.0,0.0,0.0,0.0,0.0,0.0,0.0,0.0,0.0,0.0,0.0,0.0,0.0,0.0,0.0,0.0,0.0,0.0,0.0,0.0,0.0,0.0,0.0,0.0,0.0,0.0,0.0,0.0,0.0,0.0,0.0,0.0,0.0,0.0,0.0,0.0,0.0,0.0,0.0,0.0,0.0,0.0,0.0,0.0,0.0,0.0,-2.1341,-2.1489,-2.1914,0.0,-2.3529,-2.3602,-2.3052,-2.0946,-2.0354,-2.2042,0.0,0.0,0.0,0.0,0.0,0.0,0.0,0.0,0.0,0.0,0.0,0.0,0.0,0.0,0.0,0.0,0.0,0.0,0.0,0.0,0.0,0.0,0.0,0.0,0.0,0.0,0.0,0.0,0.0,0.0,0.0,0.0,0.0,0.0,0.0,0.0,0.0,0.0,0.0,0.0,0.0,0.0,0.0,0.0,0.0,0.0,0.0,0.0,0.0,0.0,0.0,0.0,0.0,0.0,0.0,0.0,0.0,0.0,0.0,0.0,0.0,0.0,0.0,0.0,0.0,0.0,0.0,0.0,0.0,0.0,0.0,0.0,0.0,0.0,0.0,0.0,0.0,0.0,0.0,0.0,0.0,0.0,0.0,0.0,0.0,0.0,0.0,0.0,0.0,0.0,0.0,0.0,0.0,0.0,0.0,0.0,0.0,0.0,0.0,0.0,0.0,0.0,-2.2269,-2.1416,-2.1309,-2.3012,-2.3067,-2.2997,-2.2997,-1.9804,-1.9143,0.0,0.0,0.0,0.0,0.0,0.0,0.0,0.0,0.0,0.0,0.0,0.0,0.0,0.0,0.0,0.0,0.0,0.0,0.0,0.0,0.0,0.0,0.0,0.0,0.0,0.0,0.0,0.0,0.0,0.0,0.0,0.0,0.0,0.0,0.0,0.0,0.0,0.0,0.0,0.0,0.0,0.0,0.0,0.0,0.0,0.0,0.0,0.0,0.0,0.0,0.0,0.0,0.0,0.0,0.0,0.0,0.0,0.0,0.0,0.0,0.0,0.0,0.0,0.0,0.0,0.0,0.0,0.0,0.0,0.0,0.0,0.0,0.0,0.0,0.0,0.0,0.0,0.0,0.0,0.0,0.0,0.0,0.0,0.0,0.0,0.0,0.0,0.0,0.0,0.0,0.0,0.0,0.0,0.0,0.0,0.0,0.0,0.0,0.0,0.0,0.0,0.0,0.0,-2.1443,-2.027,-2.0137,-2.2337,-2.2491,-2.2402,-2.2309,-1.9796,-1.9198,-2.1509,0.0,0.0,0.0,0.0,0.0,0.0,0.0,0.0,0.0,0.0,0.0,0.0,0.0,0.0,0.0,0.0,0.0,0.0,0.0,0.0,0.0,0.0,0.0,0.0,0.0,0.0,0.0,0.0,0.0,0.0,0.0,0.0,0.0,0.0,0.0,0.0,0.0,0.0,0.0,0.0,0.0,0.0,0.0,0.0,0.0,0.0,0.0,0.0,0.0,0.0,0.0,0.0,0.0,0.0,0.0,0.0,0.0,0.0,0.0,0.0,0.0,0.0,0.0,0.0,0.0,0.0,0.0,0.0,0.0,0.0,0.0,0.0,0.0,0.0,0.0,0.0,0.0,0.0,0.0,0.0,0.0,0.0,0.0,0.0,0.0,0.0,0.0,0.0,0.0,0.0,0.0,0.0,0.0,0.0,0.0,0.0,0.0,0.0,0.0,0.0,0.0,0.0,-2.1742,-2.0604,-2.0389,-2.218,-2.2577,-2.2566,-2.2145,-2.0143,-1.9513,-2.1003,0.0,0.0,0.0,0.0,0.0,0.0,0.0,0.0,0.0,0.0,0.0,0.0,0.0,0.0,0.0,0.0,0.0,0.0,0.0,0.0,0.0,0.0,0.0,0.0,0.0,0.0,0.0,0.0,0.0,0.0,0.0,0.0,0.0,0.0,0.0,0.0,0.0,0.0,0.0,0.0,0.0,0.0,0.0,0.0,0.0,0.0,0.0,0.0,0.0,0.0,0.0,0.0,0.0,0.0,0.0,0.0,0.0,0.0,0.0,0.0,0.0,0.0,0.0,0.0,0.0,0.0,0.0,0.0,0.0,0.0,0.0,0.0,0.0,0.0,0.0,0.0,0.0,0.0,0.0,0.0,0.0,0.0,0.0,0.0,0.0,0.0,0.0,0.0,0.0,0.0,0.0,0.0,0.0,0.0,0.0,0.0,0.0,0.0,0.0,0.0,0.0,0.0,-2.2793,-2.1857,-2.1518,-2.2539,-2.312,-2.3164,-2.2495,-2.0734,-2.003,-2.0877,0.0,0.0,0.0,0.0,0.0,0.0,0.0,0.0,0.0,0.0,0.0,0.0,0.0,0.0,0.0,0.0,0.0,0.0,0.0,0.0,0.0,0.0,0.0,0.0,0.0,0.0,0.0,0.0,0.0,0.0,0.0,0.0,0.0,0.0,0.0,0.0,0.0,0.0,0.0,0.0,0.0,0.0,0.0,0.0,0.0,0.0,0.0,0.0,0.0,0.0,0.0,0.0,0.0,0.0,0.0,0.0,0.0,0.0,0.0,0.0,-1.8603,0.0,0.0,0.0,0.0,0.0,0.0,0.0,0.0,0.0,0.0,0.0,0.0,0.0,0.0,0.0,0.0,0.0,0.0,0.0,0.0,0.0,0.0,0.0,0.0,0.0,0.0,0.0,0.0,0.0,0.0,0.0,0.0,0.0,0.0,0.0,0.0,0.0,0.0,0.0,0.0,0.0,-2.3629,-2.1863,-2.1327,-2.3525,-2.3276,-2.3082,-2.3443,-2.1344,-2.0565,-2.1889,-2.0406,0.0,0.0,0.0,0.0,0.0,0.0,0.0,0.0,0.0,0.0,0.0,0.0,0.0,0.0,0.0,0.0,0.0,0.0,0.0,0.0,0.0,0.0,0.0,0.0,0.0,0.0,0.0,0.0,0.0,0.0,0.0,0.0,0.0,0.0,0.0,0.0,0.0,0.0,0.0,0.0,0.0,0.0,0.0,0.0,0.0,0.0,0.0,0.0,0.0,0.0,0.0,0.0,0.0,0.0,0.0,0.0,0.0,0.0,0.0,0.0,-1.9766,0.0,0.0,0.0,0.0,0.0,0.0,0.0,0.0,0.0,0.0,0.0,0.0,0.0,0.0,0.0,0.0,0.0,0.0,0.0,0.0,0.0,0.0,0.0,0.0,0.0,0.0,0.0,0.0,0.0,0.0,0.0,0.0,0.0,0.0,0.0,0.0,0.0,0.0,0.0,0.0,-2.3928,-2.2581,-2.2177,-2.3918,-2.4043,-2.3986,-2.3946,-2.267,-2.1852,-2.1817,-2.1136,0.0,0.0,0.0,0.0,0.0,0.0,0.0,0.0,0.0,0.0,0.0,0.0,0.0,0.0,0.0,0.0,0.0,0.0,0.0,0.0,0.0,0.0,0.0,0.0,0.0,0.0,0.0,0.0,0.0,0.0,0.0,0.0,0.0,0.0,0.0,0.0,0.0,0.0,0.0,0.0,0.0,0.0,0.0,0.0,0.0,0.0,0.0,0.0,0.0,0.0,0.0,0.0,0.0,-2.2949,-2.338,-2.3376,-2.4457,-2.4078,-2.2503,-2.1111,-2.0134,-1.97,-2.1936,0.0,0.0,0.0,0.0,0.0,0.0,0.0,0.0,0.0,0.0,0.0,0.0,0.0,0.0,0.0,0.0,0.0,0.0,0.0,0.0,0.0,0.0,0.0,0.0,-2.3392,-2.3221,0.0,0.0,0.0,0.0,0.0,0.0,0.0,0.0,0.0,0.0,0.0,0.0,-2.3928,-2.3438,-2.336,-2.4225,-2.4909,-2.5024,-2.4379,-2.4023,-2.3271,-2.1875,-2.2175,-2.2117,0.0,0.0,0.0,0.0,0.0,0.0,0.0,0.0,0.0,0.0,0.0,0.0,0.0,0.0,0.0,0.0,0.0,0.0,0.0,0.0,0.0,0.0,0.0,0.0,0.0,0.0,0.0,0.0,0.0,0.0,0.0,0.0,-1.1945,-1.3431,0.0,0.0,0.0,0.0,0.0,0.0,0.0,0.0,0.0,0.0,0.0,0.0,0.0,-2.1306,-2.2277,-2.2566,-2.2388,-2.1759,-2.1203,-2.0472,-1.9596,-2.1731,-2.2056,-2.0939,-2.1443,0.0,-2.1714,-2.2064,0.0,0.0,0.0,0.0,0.0,0.0,0.0,0.0,0.0,0.0,0.0,0.0,0.0,0.0,0.0,0.0,0.0,0.0,0.0,0.0,0.0,0.0,-2.3832,-2.3074,-2.2882,-2.3074,0.0,-2.4233,-2.4369,-2.362,-2.3549,0.0,0.0,0.0,0.0,0.0,0.0,0.0,-2.3815,-2.389,-2.4235,-2.5063,-2.5245,-2.5264,-2.5149,-2.4476,-2.3976,-2.3736,-2.3103,-2.2939,-2.3412,-2.3557,0.0,0.0,0.0,0.0,0.0,0.0,0.0,0.0,0.0,0.0,0.0,0.0,0.0,0.0,0.0,0.0,0.0,0.0,0.0,0.0,0.0,0.0,0.0,0.0,0.0,0.0,0.0,0.0,0.0,-1.4411,-1.62,-1.6902,-1.8435,-1.959,0.0,0.0,0.0,0.0,0.0,0.0,0.0,0.0,0.0,-2.0945,-2.2178,-2.2384,-2.1424,-2.2801,-2.3137,-2.2442,-2.3746,-2.4118,-2.3662,-2.4705,-2.4883,-2.4434,-2.4825,-2.4655,-2.4095,-2.3587,-2.3719,-2.4295,0.0,0.0,0.0,0.0,-2.4833,-2.487,-2.4072,-2.4102,0.0,-2.4259,0.0,0.0,0.0,0.0,0.0,0.0,0.0,0.0,0.0,0.0,-2.6121,-2.5206,-2.537,-2.5822,-2.6159,-2.64,-2.5964,0.0,-2.4336,-2.4771,-2.4318,0.0,0.0,0.0,0.0,-2.4003,-2.4568,-2.4322,-2.4409,-2.5207,-2.5303,-2.5303,-2.5303,-2.4986,-2.4582,-2.4129,-2.3744,-2.3448,-2.3246,-2.3706,-2.4044,0.0,0.0,0.0,0.0,0.0,0.0,0.0,0.0,0.0,0.0,0.0,0.0,0.0,0.0,0.0,0.0,0.0,0.0,0.0,0.0,0.0,0.0,0.0,0.0,0.0,0.0,0.0,0.0,-1.6911,-1.8982,-1.9219,-2.0932,-2.2188,0.0,0.0,0.0,0.0,0.0,0.0,-2.3526,-2.4119,-2.3924,-2.2866,-2.4004,-2.3888,-2.2364,-2.3957,-2.4602,-2.4335,-2.6699,-2.7804,-2.7804,-2.7765,-2.7922,-2.8195,-2.7765,-2.7178,-2.6399,-2.5214,-2.4355,-2.3887,-2.5137,-2.5597,-2.5554,-2.5554,-2.5576,-2.5522,-2.4876,-2.497,-2.5293,-2.4863,0.0,-2.5723,-2.5918,0.0,0.0,0.0,0.0,-2.6928,-2.6056,-2.6953,-2.7987,-2.7495,-2.7721,-2.806,-2.8206,-2.8236,-2.7503,0.0,-2.54,-2.5877,-2.4988,0.0,0.0,0.0,0.0,-2.4301,-2.4849,-2.462,-2.4639,-2.5245,-2.5303,-2.5303,-2.5303,-2.5303,-2.5043,-2.4428,-2.4409,-2.412,-2.3466,-2.4062,-2.4351,-2.4197,0.0,0.0,0.0,0.0,0.0,0.0,0.0,0.0,0.0,0.0,0.0,0.0,0.0,0.0,0.0,0.0,0.0,0.0,0.0,0.0,0.0,0.0,0.0,0.0,0.0,0.0,0.0,0.0,0.0,-1.7972,-2.0369,0.0,0.0,0.0,0.0,-2.5689,-2.6013,-2.6287,-2.6561,-2.6616,-2.6575,-2.6444,-2.5858,-2.6218,-2.7597,-2.7295,-2.7372,-2.7848,-2.8563,-2.8927,-2.8927,-2.8791,-2.9341,-3.0339,-2.8752,-2.8285,-2.849,-2.6475,-2.5605,-2.5586,-2.5664,-2.5683,-2.5683,-2.5683,-2.5683,-2.5683,-2.5643,-2.5117,-2.459,-2.5371,-2.5664,-2.5859,-2.668,-2.6875,0.0,0.0,-2.7415,-2.7819,-2.6957,-2.742,-2.8306,-2.909,-2.8675,-2.8294,-2.8972,-2.9129,-2.8602,0.0,-2.6523,-2.6231,-2.5175,0.0,-2.4664,-2.3725,-2.4341,-2.4667,-2.3976,-2.4666,-2.5264,-2.5303,-2.5303,-2.5303,-2.5303,-2.5303,-2.5284,-2.5245,-2.5245,-2.5207,-2.5168,-2.5207,-2.5226,-2.5216,-2.5254,0.0,0.0,0.0,0.0,0.0,0.0,0.0,0.0,0.0,0.0,0.0,0.0,0.0,0.0,0.0,0.0,0.0,0.0,0.0,0.0,0.0,0.0,0.0,0.0,0.0,0.0,0.0,0.0,-2.1616,-2.3502,0.0,-2.5091,-2.6003,-2.6802,-2.7297,-2.7473,-2.7563,-2.7638,-2.7643,-2.7636,-2.7593,-2.7342,-2.7626,-2.8509,-2.8345,-2.8717,-2.9574,-2.9883,-3.0028,-3.0028,-2.9989,-3.0182,-3.0579,-2.997,-2.9352,-2.8772,-2.8233,-2.7711,-2.725,-2.725,-2.725,-2.7172,-2.6617,-2.6784,-2.7226,-2.668,-2.6309,-2.6113,-2.6445,-2.6543,-2.6699,-2.7578,-2.7812,-2.7793,-2.7793,-2.8415,-2.8994,-2.8683,-2.9249,-2.9951,-3.0185,-2.9994,-2.9829,-3.0047,-3.0095,-2.989,-2.9236,-2.8621,-2.7918,-2.7028,-2.6864,-2.6726,-2.6404,-2.6159,-2.6135,-2.6395,-2.5763,-2.5514,-2.6082,-2.563,-2.5303,-2.5303,-2.5303,-2.5303,-2.5303,-2.5303,-2.5303,-2.5303,-2.5303,-2.5303,-2.5303,-2.5303,-2.5533,0.0,0.0,0.0,0.0,0.0,0.0,0.0,0.0,0.0,0.0,0.0,0.0,0.0,0.0,0.0,0.0,0.0,0.0,0.0,0.0,0.0,0.0,0.0,0.0,0.0,0.0,-2.2717,-2.4464,-2.592,-2.6897,-2.7213,-2.7634,-2.8184,-2.8882,-2.8944,-2.9061,-2.9372,-2.9499,-2.9324,-2.8829,-2.8733,-2.8825,-2.9102,-2.9427,-2.9918,-3.0562,-3.0925,-3.1116,-3.1116,-3.1116,-3.1116,-3.1097,-3.0811,-3.0242,-2.9508,-2.9532,-2.9217,-2.8702,-2.8272,-2.8105,-2.8055,-2.7768,-2.8046,-2.8496,-2.7966,-2.7812,-2.7793,-2.7539,-2.7441,-2.7598,-2.8476,-2.873,-2.8809,-2.9082,-2.959,-3.0039,-3.0039,-3.0684,-3.1328,-3.123,-3.1406,-3.158,-3.1526,-3.1507,-3.1411,-3.1042,-3.0218,-2.9294,-2.8448,-2.8294,-2.8294,-2.8294,-2.7582,-2.7351,-2.8198,-2.6794,-2.5967,-2.6544,-2.5832,-2.5303,-2.5303,-2.5572,-2.561,-2.5322,-2.5572,-2.561,-2.5303,-2.5572,-2.5736,-2.5736,-2.5736,-2.589,-2.6159,0.0,0.0,0.0,0.0,0.0,0.0,0.0,0.0,0.0,0.0,0.0,0.0,0.0,0.0,0.0,0.0,0.0,0.0,0.0,0.0,0.0,0.0,0.0,-1.9625,-2.3356,-2.597,-2.6076,-2.7285,-2.8148,-2.8143,-2.8217,-2.8915,-3.051,-3.0671,-3.1054,-3.1884,-3.2184,-3.1712,-3.0319,-3.0031,-2.985,-2.9751,-3.0639,-3.1033,-3.0903,-3.1732,-3.209,-3.209,-3.209,-3.209,-3.2052,-3.128,-3.0922,-3.0846,-3.0307,-3.0056,-2.9918,-2.8664,-2.8176,-2.8253,-2.9017,-2.9294,-2.9313,-2.9445,-2.9492,-2.9375,-2.8574,-2.832,-2.8496,-2.9375,-2.9668,-2.9863,-3.0703,-3.0957,-3.0976,-3.0976,-3.1601,-3.2226,-3.2207,-3.2812,-3.3379,-3.3281,-3.3284,-3.3024,-3.2124,-3.1206,-3.0275,-2.9313,-2.914,-2.914,-2.914,-2.8448,0.0,-2.9044,-2.7678,-2.6659,-2.6717,-2.5947,-2.5399,-2.538,-2.6159,-2.6255,-2.536,-2.6101,-2.6178,-2.5322,-2.612,-2.6563,-2.6563,-2.664,-2.6245,-2.538,0.0,0.0,0.0,0.0,0.0,0.0,0.0,0.0,0.0,0.0,0.0,0.0,0.0,0.0,0.0,0.0,0.0,0.0,0.0,0.0,0.0,0.0,-2.3732,-2.4178,-2.4493,-2.5397,-2.7292,-2.8424,-2.9022,-2.8961,-3.0688,-3.1729,-3.156,-3.2521,-3.2923,-3.2417,-3.1333,-3.108,-3.1835,-3.0506,-3.0112,-3.0852,-3.092,-3.0941,-3.0903,-3.1732,-3.209,-3.209,-3.209,-3.209,-3.209,-3.1883,-3.145,-3.094,-3.1353,-3.1303,-3.0848,-3.0075,-2.9771,-2.9713,-2.9302,-2.9179,-2.9231,-2.9331,-2.935,-2.9327,-2.9093,-2.9081,-2.9316,-3.0156,-3.0918,-3.1543,-3.1777,-3.2266,-3.2715,-3.2715,-3.2891,-3.293,-3.2344,-3.2812,-3.3242,-3.2637,-3.2959,-3.3275,-3.297,-3.2705,-3.2016,-3.039,-3.0121,-3.0102,-3.0044,-2.9313,0.0,-2.9929,-2.8582,-2.8005,-2.9236,-2.8582,-2.7813,-2.7236,-2.739,-2.6909,-2.538,-2.5514,-2.5553,-2.5303,-2.5534,-2.5649,-2.5649,-2.7467,-2.7911,0.0,0.0,0.0,0.0,0.0,0.0,0.0,0.0,0.0,0.0,0.0,0.0,0.0,0.0,0.0,0.0,0.0,0.0,0.0,0.0,0.0,0.0,-2.4709,-2.6017,-2.7262,-2.6779,-2.6871,-2.8456,-2.9386,-2.9881,-2.9807,-3.1174,-3.2006,-3.184,-3.2511,-3.2664,-3.2088,-3.1523,-3.1224,-3.1201,-3.0039,-2.9869,-3.0829,-3.1009,-3.1281,-3.1613,-3.2769,-3.3142,-3.2825,-3.3161,-3.3142,-3.2788,-3.2452,-3.2042,-3.1635,-3.1871,-3.1788,0.0,0.0,0.0,0.0,0.0,-3.0717,-3.0756,-3.0821,-3.0856,-3.0856,-3.0914,-3.1001,-3.1145,-3.1604,-3.216,-3.2611,-3.2611,-3.2982,-3.3359,-3.3359,-3.3652,-3.3828,-3.3359,-3.3887,-3.4355,-3.3887,-3.416,-3.4374,-3.3958,-3.3896,0.0,-3.1921,-3.1358,-3.1191,-3.1511,-3.0498,-3.0006,-3.0859,-2.9467,-2.8775,-2.9756,-2.9102,-2.8255,-2.7428,-2.7678,0.0,0.0,0.0,-2.5851,-2.5851,-2.6197,0.0,0.0,0.0,-2.8633,-2.7675,0.0,0.0,0.0,-2.8917,-2.9282,0.0,0.0,0.0,0.0,0.0,0.0,0.0,0.0,0.0,0.0,0.0,0.0,0.0,0.0,0.0,0.0,-2.5706,-2.6641,-2.9195,-2.9439,-2.9408,-2.9517,-3.0161,-3.0552,-3.0463,-3.0571,-3.0917,-3.1572,-3.1436,-3.139,-3.1496,0.0,0.0,0.0,0.0,-2.9659,-3.0496,-3.1189,-3.1898,-3.2632,-3.4128,-3.4504,-3.3825,-3.4559,-3.4486,-3.3752,-3.3054,-3.2687,-3.2559,-3.2284,-3.2232,-3.2359,-3.2428,-3.2684,-3.3,-3.2904,-3.2936,-3.3045,-3.3,0.0,0.0,-3.3134,-3.3173,-3.3171,-3.3186,-3.3262,-3.3359,-3.3359,-3.3448,-3.3568,-3.3571,-3.4197,-3.4784,-3.4707,-3.5351,-3.5957,-3.5879,-3.5937,-3.5762,-3.5,-3.4844,-3.4586,-3.3741,-3.2737,-3.2317,-3.3068,-3.1819,-3.1041,-3.1718,-3.041,-2.9421,-2.9421,0.0,0.0,-2.7121,-2.7659,-2.7313,-2.5563,-2.6178,-2.664,-2.6736,-2.7582,-2.7986,-2.789,-2.8794,-2.8852,-2.8044,-2.8852,-2.9236,-2.9256,-2.9805,-3.0221,0.0,0.0,0.0,0.0,0.0,0.0,0.0,0.0,0.0,0.0,0.0,0.0,0.0,0.0,0.0,-2.7998,-2.8479,-2.9029,-3.0267,-3.0387,-3.0331,-3.0355,-3.0447,-3.0407,-3.0109,-3.0919,-3.1372,-3.1151,-3.139,-3.1877,-3.2622,-3.1626,-3.17,-3.3208,-3.174,-3.1439,-3.2451,-3.2391,-3.2467,-3.2614,0.0,0.0,-3.3807,-3.3972,-3.3954,-3.3788,-3.3642,-3.3201,-3.2706,-3.3897,-3.4911,-3.5504,-3.3105,-3.2781,-3.3547,-3.2844,-3.3159,-3.3853,-3.316,-3.291,-3.291,-3.2949,-3.2994,-3.3032,-3.3037,-3.3607,0.0,-3.4263,-3.4716,-3.5232,-3.525,-3.5363,-3.5368,-3.4763,-3.5293,-3.5742,-3.5098,-3.5508,-3.5957,-3.5781,-3.5742,-3.5683,-3.5505,-3.4111,-3.3071,-3.3187,-3.2907,-3.2477,-3.195,-3.158,-3.1349,-3.128,-3.1195,-3.076,-2.9813,-2.9256,-2.8228,-2.6535,-2.6534,-2.6928,-2.7621,-2.8429,-2.8563,-2.7909,-2.939,-2.9737,-2.8871,-2.9737,-3.016,-3.016,-3.0278,-3.072,0.0,0.0,0.0,0.0,0.0,0.0,0.0,0.0,0.0,0.0,0.0,-2.6097,0.0,0.0,-2.7514,-2.8927,-2.9672,-3.0135,-3.0409,-3.0801,-3.0953,-3.0649,-3.051,-3.0327,-2.9975,-3.0335,-3.0532,-3.0354,-3.0809,-3.1297,-3.1759,-3.1302,-3.1556,-3.2754,-3.2293,-3.2452,-3.3401,-3.3666,-3.378,-3.3817,-3.5055,-3.5,-3.3844,-3.5092,-3.5183,-3.4431,-3.4853,-3.4816,-3.4504,-3.533,-3.5993,-3.6361,-3.4804,-3.4708,-3.5382,-3.4674,-3.5021,-3.5745,-3.5042,-3.5084,-3.5449,-3.5449,-3.5455,-3.5493,-3.5493,-3.5858,-3.6262,-3.6262,-3.6584,-3.6909,-3.6895,-3.6947,-3.692,-3.6542,-3.644,-3.6332,-3.5942,-3.5845,-3.5845,-3.5845,-3.5891,-3.5957,-3.5957,-3.5234,-3.4491,-3.4022,-3.3548,-3.3083,-3.2653,-3.2567,-3.2365,-3.1891,-3.1881,-3.1375,-3.0065,-2.9149,-2.8279,-2.7441,-2.7372,-2.7544,-2.7978,-2.8797,-2.9028,-2.8574,-2.9794,-3.0217,-2.9756,-3.0198,-3.0609,-3.1064,-3.1064,-3.1064,0.0,0.0,0.0,0.0,0.0,0.0,0.0,0.0,-2.6781,-2.6757,-2.7624,-2.839,-2.8491,-2.8573,-2.8788,-2.9333,-3.0092,-3.0516,-3.0227,-3.075,-3.0966,-3.0373,-3.0309,-3.0166,-2.9849,-2.9622,-2.9529,-2.957,-3.0221,-3.0637,-3.0761,-3.1476,-3.1935,-3.2082,-3.2889,-3.3642,-3.4284,-3.4945,-3.5247,-3.5275,-3.6615,-3.6211,-3.4357,-3.6358,-3.6523,-3.5284,-3.6009,-3.6376,-3.6523,-3.6523,-3.6633,-3.6762,-3.6762,-3.7025,-3.7338,-3.6629,-3.692,-3.7566,-3.6979,-3.7268,-3.7909,-3.7909,-3.7959,-3.8007,-3.8007,-3.8007,-3.8007,-3.8007,-3.8041,-3.808,-3.808,-3.8157,-3.8238,-3.8257,-3.7727,-3.7225,-3.7245,-3.6701,-3.6207,-3.6207,-3.6153,-3.6116,-3.6106,-3.601,-3.572,-3.5058,-3.4316,-3.3769,-3.3594,-3.3512,-3.3151,-3.227,-3.2182,-3.1516,-2.983,-2.8858,-2.8368,-2.8345,-2.8357,-2.8415,-2.8579,-2.9265,-2.9574,-2.9467,-3.0155,-3.0487,-3.0448,-3.0448,-3.0891,-3.1737,-3.191,-3.1679,-2.0812,-2.215,-2.3662,-2.5162,-2.575,-2.6416,0.0,0.0,-2.8988,-2.9732,-3.0155,-3.0385,-3.0398,-3.0394,-3.0356,-3.02,-3.0272,-3.0297,-3.0132,-3.0104,-2.9845,-2.9251,-2.9643,-2.9831,-2.9491,-2.9476,-2.9383,-2.9115,-3.003,-3.081,-3.1293,-3.2732,-3.3862,-3.455,-3.544,-3.5936,-3.6009,-3.6101,-3.6156,-3.6156,-3.634,-3.6285,-3.6028,-3.6303,-3.6321,-3.6156,-3.6266,-3.6707,-3.7349,-3.7349,-3.779,-3.8432,-3.8432,-3.8462,-3.8361,-3.7128,-3.7338,-3.8112,-3.7319,-3.7279,-3.7544,-3.7544,-3.7756,-3.8007,-3.8007,-3.8007,-3.8007,-3.8007,-3.8007,-3.8007,-3.8007,-3.8027,-3.8046,-3.8108,-3.8041,-3.8007,-3.8136,-3.8078,-3.802,-3.802,-3.7405,-3.6867,-3.6885,-3.6242,-3.5758,-3.5838,-3.5762,-3.543,-3.4648,-3.4531,-3.4178,-3.3241,-3.3211,-3.2529,-3.0795,-2.984,-2.9316,-2.926,-2.9249,-2.9569,-3.029,-3.0406,-3.0464,-3.0439,-3.054,-3.0583,-3.0583,-3.0583,-3.1037,-3.1908,-3.2673,-3.3308,-2.3032,-2.4485,0.0,0.0,-2.7949,-2.8968,-2.9923,-3.055,-3.0983,-3.1276,-3.1393,-3.1409,-3.125,-3.082,-3.0373,0.0,-3.0411,-3.0639,-3.0407,-3.0336,-2.9968,-2.9092,-2.8669,-2.8635,-2.9116,-2.9755,-3.0024,-2.9738,-3.0991,-3.206,-3.2742,-3.388,-3.489,-3.5734,-3.656,-3.6982,-3.6982,-3.7459,-3.7459,-3.7,-3.7459,-3.7202,-3.6321,-3.7276,-3.7698,-3.7698,-3.7698,-3.7881,-3.8193,-3.8193,-3.8395,-3.8707,-3.8707,-3.8707,-3.8573,-3.7728,-3.7977,-3.8677,-3.8014,-3.8191,-3.8717,-3.8717,-3.8956,-3.9216,-3.9216,-3.9336,-3.945,-3.945,-3.945,-3.945,-3.945,-3.945,-3.945,-3.9488,-3.9142,-3.8815,-3.8873,-3.8469,-3.8123,-3.8123,-3.7853,-3.7641,-3.7638,-3.7398,-3.7237,-3.7325,-3.6544,-3.5801,-3.5449,-3.543,-3.5117,-3.4219,-3.3685,-3.2927,-3.1718,-3.1719,-3.1346,-3.0339,-3.0747,-3.094,-3.078,-3.076,-3.074,-3.0662,-3.0665,-3.0639,-3.0602,-3.1114,-3.1801,-3.269,-3.3555,-3.436,-2.5129,0.0,0.0,-2.8244,-2.9822,-3.1368,-3.1523,-3.2399,-3.3086,-3.2775,-3.2625,-3.2347,-3.1695,-3.1,-3.0396,-3.0075,-3.0501,-3.0868,-3.0832,-3.068,-3.0206,-2.9131,-2.832,-2.816,-2.8931,-2.995,-3.0491,-3.0228,-3.1696,-3.2963,-3.3752,-3.4798,-3.5677,-3.6383,-3.7326,-3.7778,-3.7619,-3.8334,-3.8414,-3.7826,-3.8414,-3.8083,-3.7,-3.8175,-3.8817,-3.9038,-3.9038,-3.9038,-3.9038,-3.9038,-3.8909,-3.8707,-3.8707,-3.8707,-3.8646,-3.8266,-3.8489,-3.8934,-3.8532,-3.8877,-3.9462,-3.9462,-3.969,-3.9943,-3.9943,-4.031,-4.0715,-4.0715,-4.0976,-4.1219,-4.1219,-4.1027,-4.0854,-4.0854,-4.0219,-3.9623,-3.9623,-3.9315,-3.8988,-3.8738,-3.8738,-3.87,-3.8464,-3.831,-3.8219,-3.8219,-3.7236,-3.6524,-3.6567,-3.6404,-3.5976,-3.5156,-3.4277,-3.3516,-3.2949,-3.3203,-3.2793,-3.1348,-3.1855,-3.1816,-3.0937,-3.0898,-3.0859,-3.0762,-3.0996,-3.1086,-3.1031,-3.1893,-3.2756,-3.3633,-3.4266,-3.5003,0.0,0.0,-2.8705,-2.8831,-3.1018,-3.3142,-3.3202,-3.4456,-3.5383,-3.467,-3.4211,-3.3432,-3.1799,-3.1273,-3.0977,-3.0626,-3.0605,-3.0794,-3.1311,-3.0937,-3.0202,-2.9145,-2.8957,-2.8966,0.0,-2.995,-3.0491,-3.0228,-3.1696,-3.2963,-3.3752,-3.5349,-3.6401,-3.6684,-3.7977,-3.8428,-3.791,-3.8415,-3.8689,-3.867,-3.8689,-3.867,-3.8634,-3.8689,-3.9129,-3.9845,-3.9845,-3.9845,-3.9845,-3.9845,-3.9405,-3.8707,-3.8707,-3.8707,-3.8707,-3.867,-3.867,-3.8719,-3.8701,-3.8894,-3.9125,-3.9125,-3.9339,-3.9622,-3.9622,-4.0371,-4.1284,-4.1284,-4.2105,-4.3028,-4.3028,-4.2393,-4.1758,-4.1758,-4.1104,-4.045,-4.045,-4.1104,-4.1431,-4.0585,-4.0431,-4.0181,-3.9392,-3.8565,-3.8007,-3.8007,-3.8022,-3.8087,-3.8213,-3.7549,-3.6777,-3.6035,-3.5176,-3.4648,-3.4629,-3.3867,-3.3047,-3.2207,-3.2187,-3.1816,-3.0937,-3.0898,-3.0898,-3.0898,-3.1719,-3.2148,-3.2148,-3.2969,-3.3808,-3.4668,-3.4675,-3.5158,0.0,0.0,-3.025,-3.0598,-3.2058,-3.3564,-3.4207,-3.4913,-3.5005,-3.3517,-3.2744,-3.1731,-2.9736,-2.8783,-2.8575,-2.94,-3.0425,-3.1378,-3.2082,-3.2963,-3.2596,-3.0099,-3.0265,0.0,0.0,0.0,0.0,-3.0999,-3.2981,-3.4578,-3.5404,-3.6164,-3.7253,-3.878,-3.8904,-3.9304,-4.002,-3.9671,-3.9557,-3.9675,-3.9132,-3.8504,-3.7739,-3.8522,-3.9057,-3.9381,-3.9873,-4.0008,-3.9937,-4.0487,-3.9918,-3.8817,-3.9882,-3.9974,-3.9551,-4.0102,-3.9955,-3.9423,-3.8891,-3.8762,-3.8936,-3.9471,-3.9816,-4.0173,-4.0753,-4.1324,-4.1756,-4.1756,-4.2208,-4.2699,-4.2699,-4.2676,-4.2662,-4.2662,-4.2431,-4.222,-4.222,-4.245,-4.2585,-4.2277,-4.1758,-4.1277,-4.1008,-4.0239,-3.9469,-3.8931,-3.843,-3.7935,-3.7488,-3.7191,-3.6718,-3.5899,-3.5615,-3.5254,-3.4687,-3.4941,-3.4512,-3.3086,-3.3008,-3.2637,-3.1797,-3.1758,-3.1758,-3.1758,-3.2578,-3.3008,-3.3008,-3.3848,-3.4414,-3.4707,-3.5288,-3.573,-2.764,-2.9358,-3.1198,-3.1549,-3.2795,-3.3977,-3.4156,-3.4338,-3.3838,-3.1594,-3.0696,-2.9708,-2.7736,-2.7045,-2.7149,-2.8228,-2.9588,-3.0992,-3.2281,-3.3413,-3.3584,-3.21,-3.2132,-3.1857,0.0,0.0,0.0,-3.1861,-3.41,-3.5611,-3.5987,-3.6453,-3.7426,-3.8977,-3.8887,-3.9265,-4.0202,-3.9895,-3.9788,-3.9904,-3.9385,-3.8734,-3.8022,-3.8808,-3.9333,-3.9675,-4.0157,-4.0254,-4.0201,-4.0903,-4.0425,-3.9349,-4.0624,-4.0781,-4.0396,-4.0928,-4.0781,-4.0212,-3.9405,-3.8946,-3.8836,-3.9643,-4.0031,-4.0304,-4.1156,-4.1828,-4.2273,-4.2273,-4.2761,-4.3266,-4.3395,-4.3388,-4.3385,-4.3511,-4.3316,-4.3104,-4.3104,-4.3335,-4.3431,-4.3162,-4.2874,-4.2604,-4.2316,-4.1546,-4.0681,-3.9854,-3.9292,-3.8469,-3.7147,-3.6969,-3.6639,-3.5785,-3.5788,-3.5591,-3.504,-3.555,-3.5296,-3.3888,-3.379,-3.342,-3.2597,-3.2575,-3.2598,-3.2598,-3.3437,-3.3867,-3.3867,-3.4746,-3.5156,-3.5176,-3.5742,-3.5996,-2.879,-3.0243,-3.1525,-3.1635,-3.3065,-3.4186,-3.3034,-3.2776,-3.1949,-2.9063,-2.824,-2.7513,0.0,0.0,-2.6666,-2.7254,-2.8348,-2.9862,-3.1972,-3.259,-3.3368,0.0,0.0,0.0,0.0,0.0,0.0,-3.2883,0.0,-3.6115,-3.5656,-3.6312,-3.6968,-3.7637,-3.8111,-3.8462,-3.8755,-3.9228,-3.9441,-3.937,-3.9405,-3.9365,-3.9329,-3.9405,-3.9829,-4.0577,-4.0612,-4.0612,-4.066,-4.1238,-4.096,-4.0275,-4.0949,-4.1203,-4.1185,-4.1222,-4.1203,-4.1056,-4.0286,-3.946,-3.8891,-3.9698,-3.9955,-4.012,-4.0983,-4.197,-4.2843,-4.2843,-4.3662,-4.4631,-4.4966,-4.4443,-4.3916,-4.4248,-4.3744,-4.3203,-4.3203,-4.3799,-4.4126,-4.3357,-4.378,-4.4011,-4.3181,-4.2354,-4.1508,-4.0623,-4.045,-3.9604,-3.732,-3.7012,-3.6704,-3.5911,-3.5776,-3.5751,-3.5753,-3.5709,-3.5378,-3.4613,-3.4515,-3.4119,-3.3296,-3.3331,-3.3358,-3.3359,-3.4277,-3.4746,-3.4746,-3.5586,-3.5996,-3.5996,-3.5996,-3.5996,-2.941,-3.0455,-3.1505,-3.1182,-3.1341,-3.1466,-3.1078,-3.0275,-2.8858,-2.6127,-2.5661,-2.5175,0.0,0.0,0.0,-2.7442,-2.9412,0.0,-3.2983,-3.4849,0.0,-3.4044,0.0,-3.4235,-3.3636,-3.4659,0.0,0.0,-3.599,-3.6768,-3.7194,-3.6748,-3.7509,-3.9757,-3.9038,-3.9388,-4.0979,-4.0674,-3.9939,-3.8825,-3.9355,-3.915,-3.8322,-3.9212,-3.9782,-4.0035,-4.0593,-4.0745,-4.0713,-4.1884,-4.1501,-4.0384,-4.2189,-4.2525,-4.2066,-4.2671,-4.2506,-4.1974,-4.1754,-4.0763,-3.9735,-4.0543,-4.0799,-4.1056,-4.2451,-4.3103,-4.3299,-4.3299,-4.3714,-4.4175,-4.4261,-4.4357,-4.441,-4.4507,-4.4557,-4.4591,-4.4591,-4.4744,-4.484,-4.4629,-4.4228,-4.3561,-4.2341,-4.195,-4.1508,-4.0623,-3.9988,-3.9373,-3.8777,-3.87,-3.8354,-3.7507,-3.6925,-3.6594,-3.6593,-3.6033,-3.5616,-3.5423,-3.482,-3.4415,-3.4171,-3.4174,-3.4184,-3.4199,-3.5022,-3.5451,-3.5451,-3.5773,-3.5937,-3.5937,-3.5976,-3.5996,-3.0896,-3.1438,-3.2042,-3.1264,-3.0746,-3.0148,-2.919,-2.7943,-2.6211,-2.3524,-2.3343,0.0,0.0,0.0,0.0,0.0,0.0,0.0,-3.2089,-3.4534,-3.5984,0.0,-3.6292,0.0,-3.5682,-3.6558,-3.7147,0.0,-3.7435,-3.7685,-3.7633,-3.7487,-3.8131,-3.9867,-3.9187,-3.9531,-4.1059,-4.072,-4.01,-3.9277,-3.9675,-3.9532,-3.887,-3.9566,-3.9911,-3.9928,0.0,-4.0479,-4.0485,-4.176,-4.1765,-4.1071,-4.2831,-4.3222,-4.2873,-4.3314,-4.3204,-4.2782,-4.2415,-4.1717,-4.102,-4.1479,-4.1644,-4.1864,-4.3112,-4.3497,-4.3497,-4.3497,-4.3664,-4.3804,-4.3955,-4.4175,-4.4373,-4.4553,-4.4732,-4.4872,-4.4872,-4.4872,-4.4872,-4.4872,-4.4608,-4.4013,-4.2871,-4.2806,-4.2489,-4.1258,-4.0681,-4.0258,-3.9873,-3.9181,-3.8546,-3.8046,-3.7637,-3.7368,-3.7368,-3.6622,-3.6142,-3.6142,-3.5378,-3.4941,-3.4941,-3.496,-3.4988,-3.4982,-3.5456,-3.5689,-3.5699,-3.5779,-3.5807,-3.5815,-3.6306,-3.6523,-3.2708,-3.263,-3.2546,-3.1572,-3.0539,-2.9296,-2.7483,-2.5742,-2.3804,-2.1383,0.0,-2.163,-2.1044,0.0,-2.3403,-2.4026,0.0,-2.7805,-3.0629,-3.3028,-3.5376,-3.7654,-3.8614,-3.8807,-3.8169,-3.883,-3.9042,-3.8433,-3.8818,-3.8685,-3.7733,-3.8242,-3.8643,-3.8971,-3.9089,-3.9445,-4.007,-4.007,-4.007,-4.007,-4.007,-4.007,-4.007,-4.007,-4.007,-4.007,-4.007,0.0,-4.0171,-4.1241,-4.1707,-4.1895,-4.2995,-4.3444,-4.3497,-4.3497,-4.3497,-4.3387,-4.269,-4.2451,-4.2433,-4.2323,-4.2304,-4.2451,-4.3259,-4.3497,-4.3497,-4.3497,-4.3497,-4.3582,-4.3849,-4.3924,-4.4016,-4.4364,-4.4474,-4.4527,-4.4527,-4.4527,-4.4527,-4.4527,-4.4781,-4.4786,-4.395,-4.4078,-4.3778,-4.222,-4.1873,-4.1527,-4.0758,-3.9296,-3.8334,-3.8334,-3.8238,-3.8161,-3.8161,-3.7373,-3.6834,-3.6719,-3.6065,-3.5622,-3.5493,-3.5565,-3.5603,-3.5603,-3.5641,-3.568,-3.568,-3.5795,-3.5871,-3.5881,-3.6875,-3.7356,-3.3851,-3.2805,-3.1628,-3.1422,-2.947,-2.7259,-2.6169,-2.3799,0.0,0.0,0.0,-2.0525,-2.1054,-2.2368,0.0,-2.5077,0.0,0.0,0.0,0.0,-3.4229,0.0,0.0,0.0,0.0,0.0,0.0,0.0,0.0,-3.9512,-3.9306,-3.8516,-3.8306,-3.8971,-3.958,-3.9952,-4.007,-4.007,-4.007,-4.007,-4.007,-4.007,-4.007,-4.007,-4.007,-4.007,-4.007,0.0,-4.0171,-4.078,-4.1358,-4.1853,-4.2559,-4.3105,-4.3497,-4.3497,-4.3497,-4.3461,-4.3332,-4.3277,-4.3167,-4.2525,-4.2304,-4.2451,-4.3259,-4.3497,-4.3497,-4.3497,-4.3497,-4.3513,-4.3563,-4.3597,-4.3597,-4.3679,-4.3881,-4.4087,-4.4087,-4.4087,-4.4087,-4.4087,-4.4401,-4.4492,-4.3888,-4.4078,-4.397,-4.3028,-4.2258,-4.1758,-4.1585,-4.0681,-4.0065,-4.0065,-3.9469,-3.9065,-3.9065,-3.8277,-3.7469,-3.6757,-3.6584,-3.6199,-3.5532,-3.5526,-3.5526,-3.5526,-3.5545,-3.5545,-3.5545,-3.6301,-3.6694,-3.6704,-3.7674,-3.8103,-3.4457,-3.3709,-3.2874,-3.2242,-2.9886,-2.7269,-2.5407,0.0,0.0,0.0,0.0,-2.0394,-2.0761,0.0,0.0,0.0,0.0,0.0,0.0,0.0,0.0,0.0,0.0,0.0,0.0,0.0,0.0,0.0,0.0,-3.9918,-3.9918,-3.9338,-3.9191,-3.9546,-3.9901,-4.007,-4.007,-4.007,-4.007,-4.007,-4.007,-4.007,-4.007,-4.007,-4.007,-4.007,-4.007,0.0,-4.0121,-4.0703,-4.1087,-4.1402,-4.1997,-4.2404,-4.26,-4.26,-4.2828,-4.3087,-4.3087,-4.325,-4.3424,-4.3039,-4.291,-4.3002,-4.3369,-4.3497,-4.3497,-4.3497,-4.3497,-4.3497,-4.3497,-4.3497,-4.3497,-4.3497,-4.3612,-4.3758,-4.3758,-4.3758,-4.3758,-4.3758,-4.4046,-4.4269,-4.4227,-4.4508,-4.4499,-4.3818,-4.3374,-4.2797,-4.1912,-4.145,-4.0989,-4.0546,-4.0142,-3.9912,-3.9912,-3.9161,-3.8296,-3.743,-3.6949,-3.6353,-3.5532,-3.5493,-3.5493,-3.5493,-3.5493,-3.5718,-3.6142,-3.657,-3.7031,-3.7507,-3.8445,-3.8857,-3.4849,-3.4728,-3.4446,-3.3295,-3.0753,-2.7779,-2.5044,-2.2899,0.0,0.0,0.0,-2.0659,0.0,0.0,0.0,0.0,0.0,0.0,0.0,0.0,0.0,0.0,0.0,0.0,0.0,0.0,0.0,0.0,0.0,0.0,-4.007,-4.007,-4.007,-4.007,-4.007,-4.007,-4.007,-4.007,-4.007,-4.007,-4.007,-4.007,-4.007,-4.007,-4.007,-4.007,-4.007,0.0,0.0,-4.0528,-4.078,-4.0949,-4.1402,-4.1664,-4.181,-4.181,-4.2121,-4.2537,-4.2673,-4.2976,-4.3339,-4.3444,-4.3497,-4.3497,-4.3497,-4.3497,-4.3497,-4.3497,-4.3497,-4.3497,-4.3497,-4.3497,-4.3497,-4.3497,-4.3497,-4.3497,-4.3497,-4.3497,-4.3497,-4.3497,-4.3772,-4.4117,-4.4527,-4.4872,-4.4993,-4.4628,-4.4412,-4.3816,-4.2508,-4.22,-4.1739,-4.0873,-4.0604,-4.0489,-4.0489,-3.9912,-3.9181,-3.8334,-3.7469,-3.6622,-3.5795,-3.5603,-3.5493,-3.5493,-3.5493,-3.5911,-3.6699,-3.6892,-3.743,-3.8296,-3.9215,-3.9638,-3.5243,-3.5499,-3.522,-3.4146,-3.1402,-2.8176,-2.511,0.0,0.0,0.0,-2.1075,-2.1214,-2.1457,0.0,0.0,0.0,0.0,0.0,0.0,0.0,0.0,0.0,0.0,0.0,0.0,0.0,0.0,0.0,0.0,0.0,-4.007,-4.007,-4.007,-4.007,-4.007,-4.007,-4.007,-4.007,-4.007,-4.007,-4.007,-4.007,-4.007,-4.007,-4.007,-4.007,-4.007,0.0,0.0,-4.0171,-4.0449,-4.0903,-4.0949,-4.1313,-4.181,-4.181,-4.1853,-4.1937,-4.2519,-4.2732,-4.2864,-4.3339,-4.3497,-4.3497,-4.3497,-4.3497,-4.3497,-4.3497,-4.3497,-4.3497,-4.3497,-4.3497,-4.3497,-4.3497,-4.3497,-4.3497,-4.3497,-4.3497,-4.3497,-4.3497,-4.3772,-4.4117,-4.4527,-4.4872,-4.5203,-4.5435,-4.4797,-4.4239,-4.4085,-4.3431,-4.2643,-4.1777,-4.0969,-4.0489,-4.0489,-4.0431,-4.0027,-3.9219,-3.8354,-3.7488,-3.6642,-3.5892,-3.5493,-3.5493,-3.5493,-3.5911,-3.6699,-3.7488,-3.8334,-3.92,-4.0008,-4.0408,-3.3661,-3.514,-3.6006,-3.4076,-3.1507,-2.8611,-2.5171,0.0,0.0,-2.1425,-2.1429,-2.1466,-2.1584,0.0,0.0,0.0,0.0,0.0,0.0,0.0,0.0,0.0,0.0,0.0,0.0,0.0,0.0,0.0,0.0,0.0,-4.007,-4.007,-4.007,-4.007,-4.007,-4.007,-4.007,-4.007,-4.007,-4.007,-4.007,-4.007,-4.007,-4.007,-4.007,-4.007,-4.007,0.0,0.0,-4.007,-4.0204,-4.0417,-4.0417,-4.0546,-4.0767,-4.0767,-4.0984,-4.1296,-4.1534,-4.1853,-4.2203,-4.2404,-4.2483,-4.26,-4.3267,-4.3497,-4.3497,-4.3497,-4.3497,-4.3497,-4.3497,-4.3497,-4.3497,-4.3497,-4.3497,-4.3497,-4.3497,-4.3497,-4.3497,-4.3497,-4.3597,-4.3804,-4.4194,-4.4346,-4.4587,-4.4924,-4.4874,-4.4594,-4.4077,-4.3902,-4.3508,-4.2681,-4.1797,-4.1066,-4.0527,-4.0489,-4.0162,-3.9354,-3.8969,-3.8161,-3.6757,-3.6392,-3.5988,-3.5512,-3.5988,-3.6642,-3.7488,-3.8354,-3.92,-4.0027,-4.0335,-4.0489,-3.1006,-3.3696,-3.5681,-3.3345,-3.0995,-2.84,0.0,0.0,0.0,-2.1814,-2.1804,-2.1757,-2.1636,-2.1392,-2.126,0.0,0.0,0.0,0.0,0.0,0.0,0.0,0.0,0.0,0.0,0.0,0.0,0.0,0.0,0.0,-4.007,-4.007,-4.007,-4.007,-4.007,-4.007,-4.007,-4.007,-4.007,-4.007,-4.007,-4.007,-4.007,-4.007,-4.007,-4.007,-4.007,0.0,0.0,-4.007,-4.007,-4.007,-4.007,-4.007,-4.007,-4.007,-4.0319,-4.0703,-4.0856,-4.1178,-4.1578,-4.175,-4.181,-4.1961,-4.2772,-4.3124,-4.325,-4.325,-4.3375,-4.3497,-4.3497,-4.3497,-4.3497,-4.3497,-4.3497,-4.3497,-4.3497,-4.3497,-4.3497,-4.3497,-4.3497,-4.3597,-4.3924,-4.4016,-4.4146,-4.4527,-4.48,-4.4734,-4.4125,-4.4243,-4.4116,-4.3367,-4.2771,-4.1982,-4.0969,-4.0642,-4.0258,-3.9681,-3.9431,-3.8738,-3.7526,-3.6969,-3.643,-3.5872,-3.6411,-3.7142,-3.8007,-3.8873,-3.97,-4.0489,-4.0489,-4.0489,-2.7349,-3.0963,-3.3975,-3.2007,-2.9817,-2.7387,0.0,0.0,0.0,-2.2282,-2.2282,-2.2135,-2.1688,-2.162,-2.1607,-2.1609,0.0,0.0,0.0,0.0,0.0,0.0,0.0,0.0,0.0,0.0,0.0,0.0,0.0,0.0,-4.007,-4.007,-4.007,-4.007,-4.007,-4.007,-4.007,-4.007,-4.007,-4.007,-4.007,-4.007,-4.007,-4.007,-4.007,0.0,0.0,0.0,0.0,-4.007,-4.007,-4.007,-4.007,-4.007,-4.007,-4.007,-4.0121,-4.0154,-4.0703,-4.0903,-4.0995,-4.1621,-4.181,-4.181,-4.1793,-4.2244,-4.2711,-4.2711,-4.3087,-4.3497,-4.3497,-4.3497,-4.3497,-4.3497,-4.3497,-4.3497,-4.3497,-4.3497,-4.3497,-4.3497,-4.3497,-4.3597,-4.3924,-4.4016,-4.4146,-4.4527,-4.4606,-4.4606,-4.4606,-4.4606,-4.441,-4.3852,-4.3778,-4.3253,-4.1899,-4.0989,-4.0489,-4.0489,-3.9738,-3.9277,-3.9258,-3.7623,-3.6699,-3.6699,-3.6699,-3.7142,-3.8007,-3.8873,-3.97,-4.0489,-4.0489,-4.0489,-2.4945,-2.7371,-2.9191,-2.5962,-2.3871,-2.2849,-2.3745,0.0,0.0,0.0,0.0,-2.2237,-2.2106,-2.1809,-2.1709,-2.2027,0.0,0.0,0.0,0.0,0.0,0.0,0.0,0.0,0.0,0.0,0.0,0.0,0.0,0.0,-4.007,-4.007,-4.007,-4.007,-4.007,-4.007,-4.007,-4.007,-4.007,-4.007,-4.007,-4.007,-4.007,-4.007,-4.007,0.0,0.0,0.0,0.0,-4.007,-4.007,-4.007,-4.007,-4.007,-4.007,-4.007,-4.007,-4.0121,-4.0286,-4.0368,-4.0368,-4.0594,-4.0642,-4.0642,-4.0642,-4.1348,-4.2162,-4.2559,-4.3105,-4.3497,-4.3497,-4.3497,-4.3497,-4.3497,-4.3497,-4.3497,-4.3497,-4.3497,-4.3497,-4.3497,-4.3497,-4.3548,-4.3646,-4.3646,-4.3693,-4.3823,-4.4046,-4.4175,-4.4175,-4.4447,-4.4537,-4.4372,-4.3312,-4.2417,-4.186,-4.2085,-4.1758,-4.0566,-4.0816,-4.0489,-3.9354,-3.8757,-3.82,-3.7603,-3.8161,-3.8604,-3.8892,-3.9719,-4.0239,-4.0489,-4.0489,-4.0489,0.0,-2.2686,-2.4217,-2.1847,-2.071,0.0,0.0,0.0,0.0,0.0,0.0,0.0,-2.231,-2.204,-2.1973,-2.2248,0.0,0.0,0.0,0.0,0.0,0.0,0.0,0.0,0.0,0.0,0.0,0.0,0.0,0.0,-4.007,-4.007,-4.007,-4.007,-4.007,-4.007,-4.007,-4.007,-4.007,-4.007,-4.007,-4.007,-4.007,-4.007,-4.007,0.0,0.0,0.0,0.0,-4.007,-4.007,-4.007,-4.007,-4.007,-4.007,-4.007,-4.007,-4.007,-4.007,-4.007,-4.007,-4.007,-4.007,-4.007,-4.007,-4.072,-4.1578,-4.2203,-4.2752,-4.3214,-4.3214,-4.3339,-4.3497,-4.3497,-4.3497,-4.3497,-4.3497,-4.3497,-4.3497,-4.3497,-4.3497,-4.3497,-4.3497,-4.3497,-4.3497,-4.3497,-4.3679,-4.3804,-4.3804,-4.4035,-4.4223,-4.4364,-4.3426,-4.2561,-4.1952,-4.2239,-4.2021,-4.1046,-4.1508,-4.1335,-4.0296,-3.9642,-3.9027,-3.8507,-3.9008,-3.9296,-3.9296,-4.0104,-4.0489,-4.0489,-4.0489,-4.0489,0.0,0.0,0.0,0.0,0.0,0.0,0.0,0.0,0.0,0.0,0.0,0.0,0.0,0.0,0.0,-2.2462,0.0,0.0,0.0,0.0,0.0,0.0,0.0,0.0,0.0,0.0,0.0,0.0,0.0,0.0,-4.007,-4.007,-4.007,-4.007,-4.007,-4.007,-4.007,-4.007,-4.007,-4.007,-4.007,-4.007,-4.007,-4.007,-4.007,0.0,0.0,0.0,0.0,-4.007,-4.007,-4.007,-4.007,-4.007,-4.007,-4.007,-4.007,-4.007,-4.007,-4.007,-4.007,-4.007,-4.007,-4.007,-4.007,-4.0497,-4.1041,-4.1578,-4.2162,-4.2655,-4.2711,-4.305,-4.3444,-4.3479,-4.3497,-4.3497,-4.3497,-4.3497,-4.3497,-4.3497,-4.3497,-4.3497,-4.3497,-4.3497,-4.3497,-4.3497,-4.3497,-4.3497,-4.3497,-4.3497,-4.3631,-4.3924,-4.3899,-4.3426,-4.2259,-4.1721,-4.1514,-4.1687,-4.1726,-4.1761,-4.172,-4.02,-3.9392,-3.9392,-3.9392,-3.9392,-3.9392,-4.0142,-4.0489,-4.0489,-4.0489,-4.0527,-1.6975,0.0,-1.6823,-1.7279,0.0,0.0,0.0,0.0,0.0,0.0,0.0,0.0,0.0,0.0,0.0,0.0,0.0,0.0,0.0,0.0,0.0,0.0,0.0,0.0,0.0,0.0,0.0,0.0,0.0,-4.007,-4.007,-4.007,-4.007,-4.007,-4.007,-4.007,-4.007,-4.007,-4.007,-4.007,-4.007,-4.007,-4.007,-4.007,-4.007,0.0,0.0,0.0,-4.007,-4.007,-4.007,-4.007,-4.007,-4.007,-4.007,-4.007,-4.007,-4.007,-4.007,-4.007,-4.007,-4.007,-4.007,-4.007,-4.007,-4.0497,-4.0949,-4.1087,-4.1534,-4.2121,-4.2577,-4.2788,-4.2976,-4.341,-4.3497,-4.3497,-4.3497,-4.3497,-4.3497,-4.3497,-4.3497,-4.3497,-4.3497,-4.3497,-4.3497,-4.3497,-4.3497,-4.3497,-4.3497,-4.3497,-4.3513,-4.3597,-4.3078,-4.2686,-4.264,-4.2768,-4.2158,-4.0597,-4.1074,-4.1243,-4.0816,-4.0431,-4.0219,-4.0219,-4.0219,-4.0219,-4.0219,-4.0412,-4.0489,-4.0489,-4.0489,-4.0854,-1.7195,-1.6803,-1.6757,-1.707,-1.7604,-1.8298,0.0,0.0,0.0,0.0,0.0,0.0,0.0,0.0,0.0,0.0,0.0,0.0,0.0,0.0,0.0,0.0,0.0,0.0,0.0,0.0,0.0,0.0,0.0,-4.007,-4.007,-4.007,-4.007,-4.007,-4.007,-4.007,-4.007,-4.007,-4.007,-4.007,-4.007,-4.007,-4.007,-4.007,-4.007,0.0,0.0,0.0,-4.007,-4.007,-4.007,-4.007,-4.007,-4.007,-4.007,-4.007,-4.007,-4.007,-4.007,-4.007,-4.007,-4.007,-4.007,-4.007,-4.007,-4.0286,-4.0528,-4.0528,-4.0967,-4.1534,-4.2121,-4.248,-4.2826,-4.3375,-4.3497,-4.3497,-4.3497,-4.3497,-4.3497,-4.3497,-4.3497,-4.3497,-4.3497,-4.3497,-4.3497,-4.3497,-4.3497,-4.3497,-4.3497,-4.3497,-4.3497,-4.3497,-4.3112,-4.2772,-4.258,-4.2735,-4.249,-4.162,-4.1623,-4.1603,-4.1415,-4.0705,-4.0372,-4.0489,-4.0489,-4.0489,-4.0489,-4.0489,-4.0489,-4.0489,-4.0489,-4.0969,-1.7281,-1.7563,-1.8071,-1.7772,-1.7772,-1.8113,0.0,0.0,0.0,0.0,0.0,0.0,0.0,0.0,0.0,0.0,0.0,0.0,0.0,0.0,0.0,0.0,0.0,0.0,0.0,0.0,0.0,0.0,0.0,-4.007,-4.007,-4.007,-4.007,-4.007,-4.007,-4.007,-4.007,-4.007,-4.007,-4.007,-4.007,-4.007,-4.007,-4.007,-4.007,-4.007,0.0,0.0,-4.007,-4.007,-4.007,-4.007,-4.007,-4.007,-4.007,-4.007,-4.007,-4.007,-4.007,-4.007,-4.007,-4.007,-4.007,-4.007,-4.007,-4.007,-4.007,-4.007,-4.0417,-4.0903,-4.149,-4.2121,-4.2693,-4.325,-4.3444,-4.3497,-4.3497,-4.3497,-4.3497,-4.3497,-4.3497,-4.3497,-4.3497,-4.3497,-4.3497,-4.3497,-4.3497,-4.3497,-4.3497,-4.3497,-4.3497,-4.3497,-4.3497,-4.3222,-4.2543,-4.2488,-4.2709,-4.3294,-4.2509,-4.2106,-4.2309,-4.0901,-4.0213,-4.0489,-4.0489,-4.0489,-4.0489,-4.0489,-4.0489,-4.0489,-4.0642,-4.1162,-1.8597,-1.9316,-1.9818,-1.8115,-1.8149,-1.8553,0.0,0.0,0.0,0.0,0.0,0.0,0.0,0.0,0.0,0.0,0.0,0.0,0.0,0.0,0.0,0.0,0.0,0.0,0.0,0.0,0.0,0.0,0.0,-4.007,-4.007,-4.007,-4.007,-4.007,-4.007,-4.007,-4.007,-4.007,-4.007,-4.007,-4.007,-4.007,-4.007,-4.007,-4.007,-4.007,0.0,-4.007,-4.007,-4.007,-4.007,-4.007,-4.007,-4.007,-4.007,-4.007,-4.007,-4.007,-4.007,-4.007,-4.007,-4.007,-4.007,-4.007,-4.007,-4.007,-4.007,-4.007,-4.0171,-4.0336,-4.092,-4.149,-4.208,-4.2693,-4.3178,-4.3497,-4.3497,-4.3497,-4.3497,-4.3497,-4.3497,-4.3497,-4.3497,-4.3497,-4.3497,-4.3497,-4.3497,-4.3497,-4.3497,-4.3497,-4.3497,-4.3497,-4.3497,-4.3442,-4.3314,-4.3314,-4.3364,-4.3461,-4.2333,-4.1612,-4.149,-4.0577,-4.0213,-4.0489,-4.0489,-4.0489,-4.0489,-4.0489,-4.0489,-4.0508,-4.1258,-4.2066,-1.8882,-1.9405,-1.9944,-1.9016,-1.9555,0.0,0.0,0.0,0.0,0.0,0.0,0.0,0.0,0.0,0.0,0.0,0.0,0.0,0.0,0.0,0.0,0.0,0.0,0.0,0.0,0.0,0.0,0.0,0.0,0.0,-4.007,-4.007,-4.007,-4.007,-4.007,-4.007,-4.007,-4.007,-4.007,-4.007,-4.007,-4.007,-4.007,-4.007,-4.007,-4.007,0.0,-4.007,-4.007,-4.007,-4.007,-4.007,-4.007,-4.007,-4.007,-4.007,-4.007,-4.007,-4.007,-4.007,-4.007,-4.007,-4.007,-4.007,-4.007,-4.007,-4.007,-4.007,-4.007,-4.0204,-4.078,-4.1133,-4.149,-4.208,-4.2637,-4.3069,-4.3069,-4.3304,-4.3497,-4.3497,-4.3497,-4.3497,-4.3497,-4.3497,-4.3497,-4.3497,-4.3497,-4.3497,-4.3497,-4.3497,-4.3497,-4.3497,-4.3497,-4.3497,-4.3497,-4.3497,-4.3296,-4.2873,-4.2646,-4.2058,-4.1063,-4.1017,-4.0871,-4.0508,-4.0489,-4.0489,-4.0489,-4.0489,-4.0489,-4.0508,-4.1393,-4.2277,-1.9076,-1.9301,-1.969,-1.969,0.0,0.0,0.0,0.0,0.0,0.0,0.0,0.0,0.0,0.0,0.0,0.0,0.0,0.0,0.0,0.0,0.0,0.0,0.0,0.0,0.0,0.0,0.0,0.0,0.0,0.0,-3.9782,-3.9833,-3.9901,-4.007,-4.007,-4.007,-4.007,-4.007,-4.007,-4.007,-4.007,-4.007,-4.007,-4.007,-4.007,-4.007,-4.007,-4.007,-4.007,-4.007,-4.007,-4.007,-4.007,-4.007,-4.007,-4.007,-4.007,-4.007,-4.007,-4.007,-4.007,-4.007,-4.007,-4.007,-4.007,-4.007,-4.007,-4.007,-4.007,-4.0204,-4.0625,-4.0827,-4.1041,-4.149,-4.2038,-4.248,-4.248,-4.2921,-4.3321,-4.3321,-4.341,-4.3497,-4.3497,-4.3497,-4.3497,-4.3497,-4.3497,-4.3497,-4.3497,-4.3497,-4.3497,-4.3497,-4.3497,-4.3497,-4.3497,-4.3497,-4.3222,-4.2616,-4.2957,-4.2648,-4.1437,-4.157,-4.1498,-4.1123,-4.07,-4.0585,-4.0796,-4.0585,-4.0585,-4.0835,-4.17,-4.2566,-1.963,-1.9645,-1.969,-1.969,0.0,0.0,0.0,0.0,0.0,0.0,0.0,0.0,0.0,0.0,0.0,0.0,0.0,0.0,0.0,0.0,0.0,0.0,0.0,0.0,0.0,0.0,0.0,0.0,0.0,0.0,-3.8962,-3.8978,-3.9315,-4.007,-4.007,-4.007,-4.007,-4.007,-4.007,-4.007,-4.007,-4.007,-4.007,-4.007,-4.007,-4.007,-4.007,-4.007,-4.007,-4.007,-4.007,-4.007,-4.007,-4.007,-4.007,-4.007,-4.007,-4.007,-4.007,-4.007,-4.007,-4.007,-4.007,-4.007,-4.007,-4.007,-4.007,-4.007,-4.007,-4.0121,-4.0171,-4.0546,-4.0903,-4.0949,-4.1446,-4.1853,-4.1853,-4.2342,-4.275,-4.275,-4.3178,-4.3497,-4.3497,-4.3497,-4.3497,-4.3497,-4.3497,-4.3497,-4.3497,-4.3497,-4.3497,-4.3497,-4.3497,-4.3497,-4.3497,-4.3497,-4.3461,-4.3406,-4.3052,-4.2913,-4.3121,-4.1955,-4.1838,-4.2893,-4.1316,-4.0893,-4.17,-4.0893,-4.0912,-4.1739,-4.2604,-4.3431,-1.969,-2.0085,-2.0392,-1.9846,0.0,0.0,0.0,0.0,0.0,0.0,0.0,0.0,0.0,0.0,0.0,0.0,0.0,0.0,0.0,0.0,0.0,0.0,0.0,0.0,0.0,0.0,0.0,0.0,0.0,0.0,-3.8854,-3.8908,-3.9262,-4.007,-4.007,-4.007,-4.007,-4.007,-4.007,-4.007,-4.007,-4.007,-4.007,-4.007,-4.007,-4.007,-4.007,-4.007,-4.007,-4.007,-4.007,-4.007,-4.007,-4.007,-4.007,-4.007,-4.007,-4.007,-4.007,-4.007,-4.007,-4.007,-4.007,-4.007,-4.007,-4.007,-4.007,-4.007,-4.007,-4.007,-4.007,-4.0237,-4.0417,-4.0417,-4.0844,-4.1223,-4.1223,-4.1707,-4.2262,-4.2616,-4.2864,-4.3105,-4.3444,-4.3497,-4.3497,-4.3497,-4.3497,-4.3497,-4.3497,-4.3497,-4.3497,-4.3497,-4.3497,-4.3497,-4.3497,-4.3497,-4.3497,-4.3497,-4.354,-4.3386,-4.3016,-4.2882,-4.2811,-4.2738,-4.2345,-4.2277,-4.2604,-4.2277,-4.2297,-4.2624,-4.3451,-4.4008,-1.969,-2.014,-2.0655,0.0,0.0,0.0,0.0,0.0,0.0,0.0,0.0,0.0,0.0,0.0,0.0,0.0,0.0,0.0,0.0,0.0,0.0,0.0,0.0,0.0,0.0,0.0,0.0,0.0,0.0,0.0,0.0,-3.8908,-3.9262,-4.007,-4.007,-4.007,-4.007,-4.007,-4.007,-4.007,-4.007,-4.007,-4.007,-4.007,-4.007,-4.007,-4.007,-4.007,-4.007,-4.007,-4.007,-4.007,-4.007,-4.007,-4.007,-4.007,-4.007,-4.007,-4.007,-4.007,-4.007,-4.007,-4.007,-4.007,-4.007,-4.007,-4.007,-4.007,-4.007,-4.007,-4.007,-4.007,-4.007,-4.007,-4.0368,-4.0655,-4.0655,-4.1087,-4.1621,-4.2038,-4.244,-4.2826,-4.3178,-4.3375,-4.3497,-4.3497,-4.3497,-4.3497,-4.3497,-4.3497,-4.3497,-4.3497,-4.3497,-4.3497,-4.3497,-4.3497,-4.3497,-4.3497,-4.3726,-4.3639,-4.3193,-4.3467,-4.3539,-4.3321,-4.3063,-4.3113,-4.347,-4.322,-4.3239,-4.3489,-4.4047,-4.4451,-1.969,-1.9722,0.0,0.0,0.0,0.0,0.0,0.0,0.0,0.0,0.0,0.0,0.0,0.0,0.0,0.0,0.0,0.0,0.0,0.0,0.0,0.0,0.0,0.0,0.0,0.0,0.0,0.0,0.0,0.0,0.0,-3.8908,-3.9262,-4.007,-4.007,-4.007,-4.007,-4.0054,-4.0054,-4.007,-4.007,-4.007,-4.007,-4.007,-4.007,-4.007,-4.007,-4.007,-4.007,-4.007,-4.007,-4.007,-4.007,-4.007,-4.007,-4.007,-4.007,-4.007,-4.007,-4.007,-4.007,-4.007,-4.007,-4.007,-4.007,-4.007,-4.007,-4.007,-4.007,-4.007,-4.007,-4.007,-4.007,-4.007,-4.007,-4.007,-4.007,-4.0546,-4.0903,-4.0903,-4.1853,-4.2711,-4.2711,-4.3142,-4.3479,-4.3497,-4.3497,-4.3497,-4.3497,-4.3497,-4.3497,-4.3497,-4.3497,-4.3497,-4.3497,-4.3497,-4.3497,-4.3497,-4.3497,-4.3646,-4.3986,-4.3557,-4.388,-4.5055,-4.3397,-4.3101,-4.4316,-4.3508,-4.3528,-4.4316,-4.4316,-4.4759,-1.969,0.0,0.0,0.0,0.0,0.0,0.0,0.0,0.0,0.0,0.0,0.0,0.0,0.0,0.0,0.0,0.0,0.0,0.0,0.0,0.0,0.0,0.0,0.0,0.0,0.0,0.0,0.0,0.0,0.0,0.0,-3.8908,-3.9262,-4.007,-3.958,-3.9326,-3.9326,-3.8802,-3.8802,-3.9326,-3.9326,-3.958,-4.007,-4.007,-4.007,-4.007,-4.007,-4.007,-4.007,-4.007,-4.007,-4.007,-4.007,-4.007,-4.007,-4.007,-4.007,-4.007,-4.007,-4.007,-4.007,-4.007,-4.007,-4.007,-4.007,-4.007,-4.007,-4.007,-4.007,-4.007,-4.007,-4.007,-4.007,-4.007,-4.007,-4.007,-4.007,-4.0204,-4.0449,-4.0827,-4.1178,-4.1707,-4.2559,-4.2826,-4.3069,-4.3444,-4.3497,-4.3497,-4.3497,-4.3497,-4.3497,-4.3497,-4.3497,-4.3497,-4.3497,-4.3497,-4.3497,-4.3497,-4.3497,-4.3548,-4.3646,-4.3732,-4.3942,-4.4327,-4.4096,-4.425,-4.486,-4.4631,-4.4748,-4.5201,-4.5201,-4.5336,-1.969,0.0,0.0,0.0,0.0,0.0,0.0,0.0,0.0,0.0,0.0,0.0,0.0,0.0,0.0,0.0,0.0,0.0,0.0,0.0,0.0,0.0,0.0,0.0,0.0,0.0,0.0,0.0,0.0,0.0,0.0,-3.8802,-3.9058,-3.9225,-3.8785,-3.8565,-3.8565,-3.8125,-3.8125,-3.8565,-3.8565,-3.8937,-3.9648,-3.9952,-4.007,-4.007,-4.007,-4.007,-4.007,-4.007,-4.007,-4.007,-4.007,-4.007,-4.007,-4.007,-4.007,-4.007,-4.007,-4.007,-4.007,-4.007,-4.007,-4.007,-4.007,-4.007,-4.007,-4.007,-4.007,-4.007,-4.007,-4.007,-4.007,-4.007,-4.007,-4.007,-4.007,-4.007,-4.0204,-4.0546,-4.0733,-4.1133,-4.1853,-4.2382,-4.2826,-4.3124,-4.3356,-4.3497,-4.3497,-4.3497,-4.3497,-4.3497,-4.3497,-4.3497,-4.3497,-4.3497,-4.3497,-4.3497,-4.3497,-4.3497,-4.3497,-4.3693,-4.3849,-4.4016,-4.4233,-4.4535,-4.4896,-4.503,-4.5201,-4.54,-4.555,-4.5586,0.0,0.0,0.0,0.0,0.0,0.0,0.0,0.0,0.0,0.0,0.0,0.0,0.0,0.0,0.0,0.0,0.0,0.0,0.0,0.0,0.0,0.0,0.0,0.0,0.0,0.0,0.0,0.0,0.0,0.0,0.0,-3.8531,-3.8582,-3.7922,-3.7838,-3.7804,-3.7804,-3.7736,-3.7736,-3.7804,-3.7804,-3.8193,-3.892,-3.9648,-4.002,-4.007,-4.007,-4.007,-4.007,-4.007,-4.007,-4.007,-4.007,-4.007,-4.007,-4.007,-4.007,-4.007,-4.007,-4.007,-4.007,-4.007,-4.007,-4.007,-4.007,-4.007,-4.007,-4.007,-4.007,-4.007,-4.007,-4.007,-4.007,-4.007,-4.007,-4.007,-4.007,-4.007,-4.007,-4.007,-4.048,-4.0856,-4.0903,-4.181,-4.2559,-4.2693,-4.3178,-4.3497,-4.3497,-4.3497,-4.3497,-4.3497,-4.3497,-4.3497,-4.3497,-4.3497,-4.3497,-4.3497,-4.3497,-4.3497,-4.3497,-4.3497,-4.3646,-4.3955,-4.3955,-4.4165,-4.4553,-4.4853,-4.5011,-4.5074,-4.54,-4.5549,0.0,0.0,0.0,0.0,0.0,0.0,0.0,0.0,0.0,0.0,0.0,0.0,0.0,0.0,0.0,0.0,0.0,0.0,0.0,0.0,0.0,0.0,0.0,0.0,0.0,0.0,0.0,0.0,0.0,0.0,-3.7922,-3.8058,-3.8075,-3.7922,-3.733,-3.7026,-3.7026,-3.6417,-3.6417,0.0,-3.7026,-3.7415,-3.8159,-3.8903,-3.9529,-4.007,-4.007,-4.007,-4.007,-4.007,-4.007,-4.007,-4.007,-4.007,-4.007,-4.007,-4.007,-4.007,-4.007,-4.007,-4.007,-4.007,-4.007,-4.007,-4.007,-4.007,-4.007,-4.007,-4.007,-4.007,-4.007,-4.007,-4.007,-4.007,-4.007,-4.007,-4.007,-4.007,-4.007,-4.007,-4.0204,-4.0417,-4.0827,-4.1133,-4.1621,-4.2577,-4.3178,-4.3497,-4.3497,-4.3497,-4.3497,-4.3497,-4.3497,-4.3497,-4.3497,-4.3497,-4.3497,-4.3497,-4.3497,-4.3497,-4.3497,-4.3497,-4.3548,-4.3597,-4.3597,-4.3772,-4.4117,-4.4204,-4.4401,-4.4726,-4.5052,-4.5201,0.0,0.0,0.0,0.0,0.0,0.0,0.0,0.0,0.0,0.0,0.0,0.0,0.0,0.0,0.0,0.0,0.0,0.0,0.0,0.0,0.0,0.0,0.0,0.0,0.0,0.0,0.0,0.0,0.0,-3.7584,-3.6857,-3.7161,-3.7195,-3.6823,-3.6434,-3.6231,-3.6231,-3.5825,-3.5825,-3.6231,-3.6231,-3.662,-3.7398,-3.8497,-3.9394,-4.007,-4.007,-4.007,-4.007,-4.007,-4.007,-4.007,-4.007,-4.007,-4.007,-4.007,-4.007,-4.007,-4.007,-4.007,-4.007,-4.007,-4.007,-4.007,-4.007,-4.007,-4.007,-4.007,-4.007,-4.007,-4.007,-4.007,-4.007,-4.007,-4.007,-4.007,-4.007,-4.007,-4.007,-4.007,-4.007,-4.0204,-4.0449,-4.0733,-4.1313,-4.2519,-4.2939,-4.3214,-4.3463,-4.3497,-4.3497,-4.3497,-4.3497,-4.3497,-4.3497,-4.3497,-4.3497,-4.3497,-4.3497,-4.3497,-4.3497,-4.3497,-4.3497,-4.3497,-4.3497,-4.3597,-4.374,-4.3924,-4.4087,-4.4337,-4.4853,-4.5096,0.0,0.0,0.0,0.0,0.0,0.0,0.0,0.0,0.0,0.0,0.0,0.0,0.0,0.0,0.0,0.0,0.0,0.0,0.0,0.0,0.0,0.0,0.0,0.0,0.0,0.0,0.0,0.0,0.0,-3.6586,-3.5301,-3.5842,-3.591,-3.5267,-3.5351,-3.5419,-3.5419,-3.5554,-3.5622,-3.5622,-3.5622,-3.6028,-3.6823,-3.8058,-3.9005,-3.9698,-3.9698,-3.9698,-3.9715,-3.9834,-3.9884,-3.9901,-4.002,-4.007,-4.007,-4.007,-4.007,-4.007,-4.007,-4.007,-4.007,-4.007,-4.007,-4.007,-4.007,-4.007,-4.007,-4.007,-4.007,-4.007,-4.007,-4.007,-4.007,-4.007,-4.007,-4.007,-4.007,-4.007,-4.007,-4.007,-4.007,-4.007,-4.007,-4.0528,-4.1251,-4.2382,-4.2616,-4.2902,-4.3444,-4.3497,-4.3497,-4.3497,-4.3497,-4.3497,-4.3497,-4.3497,-4.3497,-4.3497,-4.3497,-4.3497,-4.3497,-4.3497,-4.3497,-4.3497,-4.3497,-4.3497,-4.3497,-4.3772,-4.3893,-4.3924,-4.4612,-4.49,0.0,0.0,0.0,0.0,0.0,0.0,0.0,0.0,0.0,0.0,0.0,0.0,0.0,0.0,0.0,0.0,0.0,0.0,0.0,0.0,0.0,0.0,0.0,0.0,0.0,0.0,0.0,0.0,-3.3897,-3.3914,-3.3711,-3.3795,-3.3812,-3.3711,-3.4303,-3.4641,-3.4641,-3.5301,-3.5622,-3.5622,-3.5622,-3.6028,-3.6789,-3.6975,-3.7483,-3.8193,-3.8193,-3.8193,-3.8244,-3.887,-3.914,-3.9191,-3.9834,-4.007,-4.007,-4.007,-4.007,-4.007,-4.007,-4.007,-4.007,-4.007,-4.007,-4.007,-4.007,-4.007,-4.007,-4.007,-4.007,-4.007,-4.007,-4.007,-4.007,-4.007,-4.007,-4.007,-4.007,-4.007,-4.007,-4.007,-4.007,-4.007,-4.007,-4.0528,-4.1133,-4.181,-4.2342,-4.2902,-4.3444,-4.3497,-4.3497,-4.3497,-4.3497,-4.3497,-4.3497,-4.3497,-4.3497,-4.3497,-4.3497,-4.3497,-4.3497,-4.3497,-4.3497,-4.3497,-4.3497,-4.3497,-4.3497,-4.3548,-4.3582,-4.3563,-4.3974,-4.4146,0.0,0.0,0.0,0.0,0.0,0.0,0.0,0.0,0.0,0.0,0.0,0.0,0.0,0.0,0.0,0.0,0.0,0.0,0.0,0.0,0.0,0.0,0.0,0.0,0.0,0.0,0.0,0.0,-3.3169,-3.3406,-3.3406,-3.3406,-3.3406,-3.3406,-3.3711,-3.388,-3.388,-3.4218,-3.4573,-3.4996,-3.5419,-3.5808,-3.6129,-3.6129,-3.6789,-3.7905,-3.7905,-3.7905,-3.7973,-3.87,-3.8988,-3.9056,-3.9783,-4.007,-4.007,-4.007,-4.007,-4.007,-4.007,-4.007,-4.007,-4.007,-4.007,-4.007,-4.007,-4.007,-4.007,-4.007,-4.007,-4.007,-4.007,-4.007,-4.007,-4.007,-4.007,-4.007,-4.007,-4.007,-4.007,-4.007,-4.007,-4.007,-4.007,-4.0286,-4.0625,-4.1223,-4.181,-4.2422,-4.2976,-4.3321,-4.3497,-4.3497,-4.3497,-4.3497,-4.3497,-4.3497,-4.3497,-4.3497,-4.3497,-4.3497,-4.3497,-4.3497,-4.3497,-4.3497,-4.3497,-4.3497,-4.3497,-4.3497,-4.3497,-4.3532,-4.3849,-4.4016,0.0,0.0,0.0,0.0,0.0,0.0,0.0,0.0,0.0,0.0,0.0,0.0,0.0,0.0,0.0,0.0,0.0,0.0,0.0,0.0,0.0,0.0,0.0,0.0,0.0,0.0,0.0,0.0,-3.1968,-3.2273,-3.2273,-3.2459,-3.2577,-3.2577,-3.2933,-3.3119,-3.3119,-3.3322,-3.3677,-3.4218,-3.4979,-3.5334,-3.5351,-3.5537,-3.6248,-3.733,-3.733,-3.7432,-3.7686,-3.8413,-3.8819,-3.9056,-3.9783,-4.007,-4.007,-4.007,-4.007,-4.007,-4.007,-4.007,-4.007,-4.007,-4.007,-4.007,-4.007,-4.007,-4.007,-4.007,-4.007,-4.007,-4.007,-4.007,-4.007,-4.007,-4.007,-4.007,-4.007,-4.007,-4.007,-4.007,-4.007,-4.007,-4.007,-4.007,-4.0286,-4.0827,-4.1402,-4.2021,-4.2616,-4.3178,-4.3497,-4.3497,-4.3497,-4.3497,-4.3497,-4.3497,-4.3497,-4.3497,-4.3497,-4.3497,-4.3497,-4.3497,-4.3497,-4.3497,-4.3497,-4.3497,-4.3497,-4.3497,-4.3497,-4.3532,-4.3758,-4.3881,0.0,0.0,0.0,0.0,0.0,0.0,0.0,0.0,0.0,0.0,0.0,0.0,0.0,0.0,0.0,0.0,0.0,0.0,0.0,0.0,0.0,0.0,0.0,0.0,0.0,0.0,0.0,0.0,-2.9231,-2.9211,-2.9211,-2.9888,-3.0277,-3.0277,-3.1613,-3.2341,-3.2341,-3.3051,-3.3423,-3.3474,-3.4201,-3.4556,-3.4573,-3.5301,-3.5656,-3.574,-3.574,-3.6146,-3.6891,-3.7652,-3.8379,-3.9056,-3.9783,-4.007,-4.007,-4.007,-4.007,-4.007,-4.007,-4.007,-4.007,-4.007,-4.007,-4.007,-4.007,-4.007,-4.007,-4.007,-4.007,-4.007,-4.007,-4.007,-4.007,-4.007,-4.007,-4.007,-4.007,-4.007,-4.007,-4.007,-4.007,-4.007,-4.007,-4.007,-4.0286,-4.0827,-4.1402,-4.2021,-4.2616,-4.3178,-4.3497,-4.3497,-4.3497,-4.3497,-4.3497,-4.3497,-4.3497,-4.3497,-4.3497,-4.3497,-4.3497,-4.3497,-4.3497,-4.3497,-4.3497,-4.3497,-4.3497,-4.3497,-4.3497,-4.3497,-4.3513,-4.3513,0.0,0.0,0.0,0.0,0.0,0.0,0.0,0.0,0.0,0.0,0.0,0.0,0.0,0.0,0.0,0.0,0.0,0.0,0.0,0.0,0.0,0.0,0.0,0.0,0.0,0.0,0.0,0.0,0.0,-2.9011,-2.9011,-2.9245,-2.9381,-2.9381,-2.9888,-3.0395,-3.0886,-3.2087,-3.2679,-3.2696,-3.344,-3.4032,-3.4506,-3.4776,-3.5165,-3.5622,-3.5622,-3.5774,-3.6096,-3.6857,-3.7347,-3.7652,-3.8396,-3.8971,-3.9377,-3.9377,-3.9681,-4.007,-4.007,-4.007,-4.007,-4.007,-4.007,-4.007,-4.007,-4.007,-4.007,-4.007,-4.007,-4.007,-4.007,-4.007,-4.007,-4.007,-4.007,-4.007,-4.007,-4.007,-4.007,-4.007,-4.007,-4.007,-4.007,-4.007,-4.0171,-4.0368,-4.1196,-4.1895,-4.208,-4.294,-4.3497,-4.3497,-4.3497,-4.3497,-4.3497,-4.3497,-4.3497,-4.3497,-4.3497,-4.3497,-4.3497,-4.3497,-4.3497,-4.3497,-4.3497,-4.3497,-4.3497,-4.3497,-4.3497,-4.3497,-4.3497,-4.3497,0.0,0.0,0.0,0.0,0.0,0.0,0.0,0.0,0.0,0.0,0.0,0.0,0.0,0.0,0.0,0.0,0.0,0.0,0.0,0.0,0.0,0.0,0.0,0.0,0.0,0.0,0.0,0.0,0.0,0.0,-2.7841,-2.8078,-2.845,-2.8958,-2.9011,-2.9228,-2.9736,-3.0937,-3.1546,-3.1562,-3.256,-3.3288,-3.3761,-3.4015,-3.4539,-3.525,-3.525,-3.5537,-3.6045,-3.6569,-3.6924,-3.7212,-3.7719,-3.8345,-3.8988,-3.8988,-3.9462,-4.007,-4.007,-4.007,-4.007,-4.007,-4.007,-4.007,-4.007,-4.007,-4.007,-4.007,-4.007,-4.007,-4.007,-4.007,-4.007,-4.007,-4.007,-4.007,-4.007,-4.007,-4.007,-4.007,-4.007,-4.007,-4.007,-4.007,-4.007,-4.007,-4.1076,-4.181,-4.181,-4.281,-4.3497,-4.3497,-4.3497,-4.3497,-4.3497,-4.3497,-4.3497,-4.3497,-4.3497,-4.3497,-4.3497,-4.3497,-4.3497,-4.3497,-4.3497,-4.3497,-4.3497,-4.3497,-4.3497,-4.3497,-4.3497,-4.3497,0.0,0.0,0.0,0.0,0.0,0.0,0.0,0.0,0.0,0.0,0.0,0.0,0.0,0.0,0.0,0.0,0.0,0.0,0.0,0.0,0.0,0.0,0.0,0.0,0.0,0.0,0.0,0.0,-2.3902,-2.4381,-2.5509,-2.6251,-2.7317,-2.8839,-2.8907,-2.8924,-2.8941,-2.9702,-3.0074,-3.0091,-3.1529,-3.2263,-3.2273,-3.3034,-3.3778,-3.4455,-3.4455,-3.5318,-3.6705,-3.6738,-3.7178,-3.7838,-3.7872,-3.8328,-3.8954,-3.8988,-3.9462,-4.007,-4.007,-4.007,-4.007,-4.007,-4.007,-4.007,-4.007,-4.007,-4.007,-4.007,-4.007,-4.007,-4.007,-4.007,-4.007,-4.007,-4.007,-4.007,-4.007,-4.007,-4.007,-4.007,-4.007,-4.007,-4.007,-4.007,-4.007,-4.007,-4.1076,-4.1768,-4.181,-4.2772,-4.3479,-4.3497,-4.3497,-4.3497,-4.3497,-4.3497,-4.3497,-4.3497,-4.3497,-4.3497,-4.3497,-4.3497,-4.3497,-4.3497,-4.3497,-4.3497,-4.3497,-4.3497,-4.3497,-4.3497,-4.3497,-4.3497,-2.0599,0.0,0.0,0.0,0.0,0.0,0.0,0.0,0.0,0.0,0.0,0.0,0.0,0.0,0.0,0.0,0.0,0.0,0.0,0.0,0.0,0.0,0.0,0.0,0.0,0.0,0.0,0.0,-2.432,-2.4467,-2.478,-2.4983,-2.5541,-2.6505,-2.7046,-2.7588,-2.8146,-2.8907,-2.9296,-2.9313,-3.026,-3.0987,-3.1512,-3.2256,-3.3,-3.3711,-3.3711,-3.4252,-3.5165,-3.5723,-3.6062,-3.6299,-3.6874,-3.755,-3.8278,-3.8802,-3.9462,-4.007,-4.007,-4.007,-4.007,-4.007,-4.007,-4.007,-4.007,-4.007,-4.007,-4.007,-4.007,-4.007,-4.007,-4.007,-4.007,-4.007,-4.007,-4.007,-4.007,-4.007,-4.007,-4.007,-4.007,-4.007,-4.007,-4.007,-4.007,-4.007,-4.072,-4.1313,-4.175,-4.2462,-4.305,-4.3444,-4.3497,-4.3497,-4.3497,-4.3497,-4.3497,-4.3497,-4.3497,-4.3497,-4.3497,-4.3497,-4.3497,-4.3497,-4.3497,-4.3497,-4.3497,-4.3497,-4.3497,-4.3497,-4.3497,-4.3497,0.0,0.0,0.0,0.0,0.0,0.0,-2.1499,-2.1709,0.0,0.0,0.0,0.0,0.0,0.0,0.0,0.0,0.0,0.0,0.0,0.0,0.0,0.0,0.0,0.0,0.0,-2.3287,-2.3287,-2.3287,-2.3287,-2.3513,-2.4002,-2.4337,-2.4831,-2.5592,-2.571,-2.6268,-2.7334,-2.7807,-2.818,-2.8518,-2.96,-3.0328,-3.0768,-3.1495,-3.2222,-3.2933,-3.2933,-3.3355,-3.41,-3.4844,-3.5334,-3.569,-3.6485,-3.7246,-3.799,-3.8717,-3.9462,-4.007,-4.007,-4.007,-4.007,-4.007,-4.007,-4.007,-4.007,-4.007,-4.007,-4.007,-4.007,-4.007,-4.007,-4.007,-4.007,-4.007,-4.007,-4.007,-4.007,-4.007,-4.007,-4.007,-4.007,-4.007,-4.007,-4.007,-4.007,-4.007,-4.0577,-4.1041,-4.1402,-4.2162,-4.2826,-4.3124,-4.3375,-4.3497,-4.3497,-4.3497,-4.3497,-4.3497,-4.3497,-4.3497,-4.3497,-4.3497,-4.3497,-4.3497,-4.3497,-4.3497,-4.3497,-4.3497,-4.3497,-4.3497,-4.3497,-4.3497,0.0,0.0,0.0,0.0,0.0,0.0,-2.0759,-2.0928,-2.1022,0.0,0.0,0.0,0.0,0.0,0.0,0.0,0.0,0.0,0.0,0.0,0.0,0.0,0.0,0.0,-2.1718,-2.1688,-2.1688,-2.1688,-2.1688,-2.2136,-2.3211,-2.3883,-2.4577,-2.5338,-2.4712,-2.5033,-2.6437,-2.6539,-2.6911,-2.7553,-2.9127,-2.9905,-3.0006,-3.0734,-3.1461,-3.2195,-3.2195,-3.2594,-3.3339,-3.4066,-3.481,-3.5588,-3.6434,-3.7195,-3.7889,-3.87,-3.9394,-3.9969,-4.0054,-4.007,-4.007,-4.007,-4.007,-4.007,-4.007,-4.007,-4.007,-4.007,-4.007,-4.007,-4.007,-4.007,-4.007,-4.007,-4.007,-4.007,-4.007,-4.007,-4.007,-4.007,-4.007,-4.007,-4.007,-4.007,-4.007,-4.007,-4.0497,-4.081,-4.0903,-4.1895,-4.2616,-4.2693,-4.3178,-4.3497,-4.3497,-4.3497,-4.3497,-4.3497,-4.3497,-4.3497,-4.3497,-4.3497,-4.3497,-4.3497,-4.3497,-4.3497,-4.3497,-4.3497,-4.3497,-4.3497,-4.3497,-4.3497,0.0,0.0,0.0,0.0,0.0,0.0,-2.1401,-2.1474,-2.1217,0.0,0.0,0.0,0.0,0.0,0.0,0.0,0.0,0.0,0.0,0.0,0.0,0.0,0.0,0.0,-2.2163,-2.2163,-2.2163,-2.2163,-2.2163,-2.2276,-2.2513,-2.2649,-2.3071,-2.3799,-2.368,-2.4036,-2.4929,-2.5524,-2.5896,-2.6065,-2.7554,-2.8602,-2.9228,-2.9973,-3.0717,-3.141,-3.141,-3.1816,-3.256,-3.3305,-3.4049,-3.4844,-3.6231,-3.6874,-3.7161,-3.8497,-3.9089,-3.9292,-3.9868,-4.007,-4.007,-4.007,-4.007,-4.007,-4.007,-4.007,-4.007,-4.007,-4.007,-4.007,-4.007,-4.007,-4.007,-4.007,-4.007,-4.007,-4.007,-4.007,-4.007,-4.007,-4.007,-4.007,-4.007,-4.007,-4.007,-4.007,-4.0204,-4.0417,-4.0856,-4.1534,-4.2162,-4.2655,-4.3178,-4.3497,-4.3497,-4.3497,-4.3497,-4.3497,-4.3497,-4.3497,-4.3497,-4.3497,-4.3497,-4.3497,-4.3497,-4.3497,-4.3497,-4.3497,-4.3497,-4.3497,-4.3497,-4.3497,0.0,0.0,0.0,-2.218,0.0,0.0,0.0,-2.1576,-2.1013,0.0,0.0,0.0,0.0,0.0,0.0,0.0,0.0,0.0,0.0,0.0,0.0,0.0,0.0,0.0,-2.231,-2.231,-2.231,-2.231,-2.231,-2.231,-2.231,-2.231,-2.2649,-2.3376,-2.3038,-2.3376,-2.4506,-2.4492,-2.4881,-2.5625,-2.6725,-2.7672,-2.8433,-2.9583,-3.0311,-3.0666,-3.1038,-3.1393,-3.1833,-3.2933,-3.3626,-3.4134,-3.6028,-3.6772,-3.6907,-3.8041,-3.8447,-3.8565,-3.9292,-3.9529,-3.9597,-3.9952,-4.007,-4.007,-4.007,-4.007,-4.007,-4.007,-4.007,-4.007,-4.007,-4.007,-4.007,-4.007,-4.007,-4.007,-4.007,-4.007,-4.007,-4.007,-4.007,-4.007,-4.007,-4.007,-4.007,-4.007,-4.007,-4.0204,-4.0449,-4.1286,-4.1895,-4.2203,-4.2995,-4.3497,-4.3497,-4.3497,-4.3497,-4.3497,-4.3497,-4.3497,-4.3497,-4.3497,-4.3497,-4.3497,-4.3497,-4.3497,-4.3497,-4.3497,-4.3497,-4.3497,-4.3497,-4.3497,0.0,0.0,0.0,0.0,0.0,-2.2264,0.0,0.0,0.0,0.0,0.0,0.0,0.0,0.0,0.0,0.0,0.0,0.0,0.0,0.0,0.0,0.0,0.0,0.0,0.0,-2.231,-2.231,-2.231,-2.231,-2.231,-2.231,-2.231,-2.2581,-2.3173,-2.2615,-2.2868,-2.4052,-2.3613,-2.4069,-2.5406,-2.6133,-2.6962,-2.7823,-2.911,-2.9837,-3.0142,-3.0734,-3.1072,-3.1292,-3.2645,-3.3271,-3.3609,-3.574,-3.6552,-3.6654,-3.7415,-3.7787,-3.8024,-3.8734,-3.9089,-3.9292,-3.9884,-4.007,-4.007,-4.007,-4.007,-4.007,-4.007,-4.007,-4.007,-4.007,-4.007,-4.007,-4.007,-4.007,-4.007,-4.007,-4.007,-4.007,-4.007,-4.007,-4.007,-4.007,-4.007,-4.007,-4.007,-4.007,-4.007,-4.007,-4.1122,-4.181,-4.181,-4.281,-4.3497,-4.3497,-4.3497,-4.3497,-4.3497,-4.3497,-4.3497,-4.3497,-4.3497,-4.3497,-4.3497,-4.3497,-4.3497,-4.3497,-4.3497,-4.3497,-4.3497,-4.3497,-4.3497,0.0,0.0,0.0,0.0,-2.2003,0.0,0.0,0.0,0.0,-2.0424,0.0,0.0,0.0,0.0,0.0,0.0,0.0,0.0,0.0,0.0,0.0,0.0,0.0,0.0,0.0,-2.231,-2.231,-2.231,-2.231,-2.231,-2.231,-2.231,-2.2344,-2.2429,-2.2344,-2.2395,-2.2564,-2.3122,-2.3799,-2.4611,-2.5372,-2.6454,-2.7789,-2.7958,-2.8822,-3.0108,-3.0192,-3.0598,-3.1258,-3.207,-3.2797,-3.3558,-3.5131,-3.5757,-3.5842,-3.662,-3.733,-3.8024,-3.8734,-3.9411,-3.9969,-4.0054,-4.007,-4.007,-4.007,-4.007,-4.007,-4.007,-4.007,-4.007,-4.007,-4.007,-4.007,-4.007,-4.007,-4.007,-4.007,-4.007,-4.007,-4.007,-4.007,-4.007,-4.007,-4.007,-4.007,-4.007,-4.007,-4.007,-4.007,-4.1122,-4.181,-4.181,-4.281,-4.3497,-4.3497,-4.3497,-4.3497,-4.3497,-4.3497,-4.3497,-4.3497,-4.3497,-4.3497,-4.3497,-4.3497,-4.3497,-4.3497,-4.3497,-4.3497,-4.3497,-4.3497,-4.3497,0.0,0.0,0.0,0.0,0.0,0.0,-2.1746,0.0,-2.1702,0.0,0.0,0.0,0.0,0.0,0.0,0.0,-2.0814,0.0,0.0,0.0,0.0,0.0,0.0,0.0,0.0,0.0,0.0,0.0,-2.231,-2.231,-2.231,-2.231,-2.231,-2.231,-2.231,-2.231,-2.231,-2.2615,-2.3342,-2.4506,-2.4797,-2.5727,-2.7182,-2.7587,-2.8127,-2.8839,-2.9719,-3.0294,-3.0649,-3.1799,-3.273,-3.3508,-3.4556,-3.5233,-3.5656,-3.5994,-3.6603,-3.7364,-3.8108,-3.8565,-3.8886,-3.9309,-3.9732,-4.007,-4.007,-4.007,-4.007,-4.007,-4.007,-4.007,-4.007,-4.007,-4.007,-4.007,-4.007,-4.007,-4.007,-4.007,-4.007,-4.007,-4.007,-4.007,-4.007,-4.007,-4.007,-4.007,-4.007,-4.007,-4.007,-4.0797,-4.1402,-4.175,-4.2541,-4.3178,-4.3479,-4.3497,-4.3497,-4.3497,-4.3497,-4.3497,-4.3497,-4.3497,-4.3497,-4.3497,-4.3497,-4.3497,-4.3497,-4.3497,-4.3497,-4.3497,-4.3497,-4.3497,-2.0927,0.0,0.0,0.0,0.0,0.0,0.0,0.0,0.0,0.0,0.0,0.0,0.0,0.0,0.0,0.0,0.0,0.0,0.0,0.0,0.0,0.0,0.0,0.0,0.0,0.0,0.0,-2.2061,-2.202,-2.2049,-2.2282,-2.218,-2.218,-2.2282,-2.231,-2.231,-2.231,-2.231,-2.3038,-2.4506,-2.4506,-2.5253,-2.6708,-2.7249,-2.7621,-2.7857,-2.8991,-2.9719,-3.0192,-3.1258,-3.2239,-3.3169,-3.3914,-3.4658,-3.5334,-3.5537,-3.6113,-3.6891,-3.7652,-3.8041,-3.8261,-3.8582,-3.9191,-3.9783,-3.9783,-3.9918,-4.007,-4.007,-4.007,-4.007,-4.007,-4.007,-4.007,-4.007,-4.007,-4.007,-4.007,-4.007,-4.007,-4.007,-4.007,-4.007,-4.007,-4.007,-4.007,-4.007,-4.007,-4.007,-4.007,-4.0577,-4.1087,-4.149,-4.2244,-4.2864,-4.325,-4.341,-4.3497,-4.3497,-4.3497,-4.3497,-4.3497,-4.3497,-4.3497,-4.3497,-4.3497,-4.3497,-4.3497,-4.3497,-4.3497,-4.3497,-4.3497,-4.3497,0.0,0.0,0.0,-2.1027,0.0,0.0,0.0,0.0,-2.0019,0.0,0.0,0.0,0.0,0.0,0.0,0.0,0.0,0.0,0.0,0.0,0.0,0.0,0.0,0.0,0.0,0.0,0.0,-2.1582,-2.1244,-2.1415,-2.2237,-2.1869,-2.1823,-2.2282,-2.231,-2.231,-2.231,-2.231,-2.3038,-2.4506,-2.4506,-2.5253,-2.6691,-2.6725,-2.7131,-2.7789,-2.784,-2.8738,-3.0108,-3.0159,-3.1021,-3.2391,-3.3152,-3.3897,-3.4624,-3.5351,-3.6113,-3.6891,-3.7652,-3.8362,-3.8853,-3.8159,-3.843,-3.9039,-3.9039,-3.9512,-4.007,-4.007,-4.007,-4.007,-4.007,-4.007,-4.007,-4.007,-4.007,-4.007,-4.007,-4.007,-4.007,-4.007,-4.007,-4.007,-4.007,-4.007,-4.007,-4.007,-4.007,-4.007,-4.007,-4.0577,-4.0903,-4.0949,-4.1979,-4.2711,-4.2732,-4.3214,-4.3497,-4.3497,-4.3497,-4.3497,-4.3497,-4.3497,-4.3497,-4.3497,-4.3497,-4.3497,-4.3497,-4.3497,-4.3497,-4.3497,-4.3497,-4.3497,0.0,0.0,-2.0135,-2.0122,0.0,0.0,0.0,0.0,0.0,0.0,0.0,0.0,0.0,0.0,0.0,0.0,0.0,0.0,0.0,0.0,-1.9818,0.0,0.0,0.0,0.0,0.0,0.0,-2.1181,-2.1086,-2.1134,-2.1415,-2.1538,-2.1658,-2.1823,-2.2135,-2.2547,-2.3021,-2.2547,-2.3291,-2.522,-2.4712,-2.5253,-2.6691,-2.6691,-2.6843,-2.7131,-2.8146,-2.8873,-2.9448,-3.0429,-3.1393,-3.2357,-3.3119,-3.3846,-3.459,-3.5351,-3.6113,-3.6823,-3.7077,-3.7652,-3.8159,-3.7398,-3.7669,-3.8278,-3.8278,-3.8785,-3.936,-3.936,-3.9698,-4.007,-4.007,-4.007,-4.007,-4.007,-4.007,-4.007,-4.007,-4.007,-4.007,-4.007,-4.007,-4.007,-4.007,-4.007,-4.007,-4.007,-4.007,-4.007,-4.007,-4.0237,-4.0497,-4.0856,-4.1621,-4.2262,-4.2673,-4.3178,-4.3497,-4.3497,-4.3497,-4.3497,-4.3497,-4.3497,-4.3497,-4.3497,-4.3497,-4.3497,-4.3497,-4.3497,-4.3497,-4.3497,-4.3497,-4.3497,-1.969,-1.969,0.0,-1.969,-1.9682,0.0,-1.9687,0.0,0.0,0.0,0.0,0.0,0.0,0.0,0.0,0.0,0.0,0.0,0.0,-1.9697,-1.969,0.0,0.0,0.0,0.0,0.0,-2.0261,-2.0731,-2.0632,-2.0665,0.0,0.0,-2.146,-2.1598,-2.2061,-2.253,-2.3004,-2.2547,-2.3291,-2.5203,-2.4743,-2.5253,-2.6691,-2.6691,-2.6691,-2.6759,-2.774,-2.8467,-2.9096,-3.0023,-3.0987,-3.1968,-3.2713,-3.3457,-3.4235,-3.525,-3.6113,-3.6738,-3.6468,-3.6874,-3.7381,-3.662,-3.6891,-3.7499,-3.7499,-3.8024,-3.8616,-3.8616,-3.8937,-3.9377,-3.9631,-3.9698,-3.9749,-4.002,-4.007,-4.007,-4.007,-4.007,-4.007,-4.007,-4.007,-4.007,-4.007,-4.007,-4.007,-4.007,-4.007,-4.007,-4.007,-4.007,-4.0254,-4.0577,-4.1331,-4.2103,-4.2939,-4.3286,-4.3497,-4.3497,-4.3497,-4.3497,-4.3497,-4.3497,-4.3626,-4.392,-4.3644,-4.3626,-4.392,-4.3626,-4.3497,-4.3497,-4.3497,-4.3497]}]]